Wetterdaten: Mittwoch, 26.10.2016
Datum Zeit Temp. A. Feuchte A. Luftdruck Regen Wind Richtung Richtung Sonnenschein ET UV Solar Taupunkt Windchill Windben Empfang
26.10.2016 00:00 12,4 C 99 % 1022,4 hPa 0,0 l/m 6,8 km/h (2 Bft) SW 221 0 min 0,000 mm 0,0 UV-I 0 W/m 12,2 C 12,1 C 9,7 km/h (2 Bft) 100,00 %
26.10.2016 00:01 12,4 C 99 % 1022,4 hPa 0,0 l/m 4,8 km/h (1 Bft) SW 221 0 min 0,000 mm 0,0 UV-I 0 W/m 12,2 C 12,4 C 4,8 km/h (1 Bft) 100,00 %
26.10.2016 00:02 12,4 C 99 % 1022,4 hPa 0,0 l/m 4,8 km/h (1 Bft) SW 221 0 min 0,000 mm 0,0 UV-I 0 W/m 12,2 C 12,4 C 4,8 km/h (1 Bft) 11,11 %
26.10.2016 00:03 12,3 C 99 % 1022,3 hPa 0,0 l/m 4,3 km/h (1 Bft) SW 220 0 min 0,000 mm 0,0 UV-I 0 W/m 12,1 C 12,3 C 4,8 km/h (1 Bft) 55,56 %
26.10.2016 00:04 12,3 C 98 % 1022,3 hPa 0,0 l/m 4,9 km/h (1 Bft) W-SW 246 0 min 0,000 mm 0,0 UV-I 0 W/m 12,0 C 12,3 C 11,3 km/h (2 Bft) 100,00 %
26.10.2016 00:05 12,3 C 98 % 1022,3 hPa 0,0 l/m 4,4 km/h (1 Bft) W-SW 250 0 min 0,000 mm 0,0 UV-I 0 W/m 12,0 C 12,3 C 4,8 km/h (1 Bft) 100,00 %
26.10.2016 00:06 12,4 C 98 % 1022,4 hPa 0,0 l/m 4,3 km/h (1 Bft) W-SW 251 0 min 0,000 mm 0,0 UV-I 0 W/m 12,1 C 12,4 C 4,8 km/h (1 Bft) 100,00 %
26.10.2016 00:07 12,4 C 99 % 1022,4 hPa 0,0 l/m 5,3 km/h (1 Bft) W-SW 257 0 min 0,000 mm 0,0 UV-I 0 W/m 12,2 C 12,4 C 8,0 km/h (2 Bft) 100,00 %
26.10.2016 00:08 12,4 C 98 % 1022,4 hPa 0,0 l/m 4,3 km/h (1 Bft) W-SW 256 0 min 0,000 mm 0,0 UV-I 0 W/m 12,1 C 12,4 C 4,8 km/h (1 Bft) 91,67 %
26.10.2016 00:09 12,4 C 98 % 1022,4 hPa 0,0 l/m 4,6 km/h (1 Bft) W-SW 257 0 min 0,000 mm 0,0 UV-I 0 W/m 12,1 C 12,4 C 6,4 km/h (2 Bft) 95,65 %
26.10.2016 00:10 12,4 C 98 % 1022,4 hPa 0,0 l/m 4,9 km/h (1 Bft) W-SW 257 0 min 0,000 mm 0,0 UV-I 0 W/m 12,1 C 12,4 C 6,4 km/h (2 Bft) 95,83 %
26.10.2016 00:11 12,3 C 99 % 1022,4 hPa 0,0 l/m 3,5 km/h (1 Bft) W-SW 257 0 min 0,000 mm 0,0 UV-I 0 W/m 12,1 C 12,3 C 4,8 km/h (1 Bft) 96,15 %
26.10.2016 00:12 12,3 C 99 % 1022,4 hPa 0,0 l/m 4,3 km/h (1 Bft) W-SW 238 0 min 0,000 mm 0,0 UV-I 0 W/m 12,1 C 12,3 C 6,4 km/h (2 Bft) 100,00 %
26.10.2016 00:13 12,4 C 98 % 1022,4 hPa 0,0 l/m 3,7 km/h (1 Bft) W-SW 238 0 min 0,000 mm 0,0 UV-I 0 W/m 12,1 C 12,4 C 4,8 km/h (1 Bft) 95,65 %
26.10.2016 00:14 12,3 C 98 % 1022,4 hPa 0,0 l/m 4,3 km/h (1 Bft) SW 236 0 min 0,000 mm 0,0 UV-I 0 W/m 12,0 C 12,3 C 6,4 km/h (2 Bft) 100,00 %
26.10.2016 00:15 12,3 C 98 % 1022,4 hPa 0,0 l/m 3,6 km/h (1 Bft) SW 236 0 min 0,000 mm 0,0 UV-I 0 W/m 12,0 C 12,3 C 4,8 km/h (1 Bft) 95,83 %
26.10.2016 00:16 12,4 C 98 % 1022,4 hPa 0,0 l/m 5,1 km/h (1 Bft) SW 232 0 min 0,000 mm 0,0 UV-I 0 W/m 12,1 C 12,4 C 8,0 km/h (2 Bft) 100,00 %
26.10.2016 00:17 12,3 C 99 % 1022,4 hPa 0,0 l/m 5,6 km/h (1 Bft) SW 236 0 min 0,000 mm 0,0 UV-I 0 W/m 12,1 C 12,3 C 8,0 km/h (2 Bft) 95,83 %
26.10.2016 00:18 12,3 C 98 % 1022,4 hPa 0,0 l/m 5,3 km/h (1 Bft) SW 236 0 min 0,000 mm 0,0 UV-I 0 W/m 12,0 C 12,3 C 6,4 km/h (2 Bft) 96,15 %
26.10.2016 00:19 12,3 C 98 % 1022,4 hPa 0,0 l/m 7,2 km/h (2 Bft) SW 234 0 min 0,000 mm 0,0 UV-I 0 W/m 12,0 C 11,8 C 9,7 km/h (2 Bft) 100,00 %
26.10.2016 00:20 12,3 C 98 % 1022,3 hPa 0,0 l/m 6,8 km/h (2 Bft) SW 233 0 min 0,000 mm 0,0 UV-I 0 W/m 12,0 C 12,0 C 9,7 km/h (2 Bft) 100,00 %
26.10.2016 00:21 12,3 C 98 % 1022,4 hPa 0,0 l/m 6,5 km/h (2 Bft) SW 221 0 min 0,000 mm 0,0 UV-I 0 W/m 12,0 C 12,3 C 9,7 km/h (2 Bft) 96,30 %
26.10.2016 00:22 12,3 C 99 % 1022,4 hPa 0,0 l/m 5,3 km/h (1 Bft) SW 227 0 min 0,000 mm 0,0 UV-I 0 W/m 12,1 C 12,3 C 6,4 km/h (2 Bft) 91,30 %
26.10.2016 00:23 12,4 C 98 % 1022,3 hPa 0,0 l/m 4,0 km/h (1 Bft) SW 227 0 min 0,000 mm 0,0 UV-I 0 W/m 12,1 C 12,4 C 4,8 km/h (1 Bft) 100,00 %
26.10.2016 00:24 12,4 C 98 % 1022,3 hPa 0,0 l/m 3,6 km/h (1 Bft) SW 227 0 min 0,000 mm 0,0 UV-I 0 W/m 12,1 C 12,4 C 4,8 km/h (1 Bft) 96,15 %
26.10.2016 00:25 12,4 C 99 % 1022,3 hPa 0,0 l/m 4,1 km/h (1 Bft) SW 231 0 min 0,000 mm 0,0 UV-I 0 W/m 12,2 C 12,4 C 4,8 km/h (1 Bft) 100,00 %
26.10.2016 00:26 12,4 C 99 % 1022,3 hPa 0,0 l/m 4,7 km/h (1 Bft) SW 235 0 min 0,000 mm 0,0 UV-I 0 W/m 12,2 C 12,4 C 4,8 km/h (1 Bft) 85,71 %
26.10.2016 00:27 12,4 C 99 % 1022,4 hPa 0,0 l/m 3,4 km/h (1 Bft) SW 235 0 min 0,000 mm 0,0 UV-I 0 W/m 12,2 C 12,4 C 4,8 km/h (1 Bft) 100,00 %
26.10.2016 00:28 12,4 C 99 % 1022,4 hPa 0,0 l/m 4,0 km/h (1 Bft) SW 235 0 min 0,000 mm 0,0 UV-I 0 W/m 12,2 C 12,4 C 4,8 km/h (1 Bft) 92,31 %
26.10.2016 00:29 12,4 C 99 % 1022,4 hPa 0,0 l/m 4,3 km/h (1 Bft) SW 234 0 min 0,000 mm 0,0 UV-I 0 W/m 12,2 C 12,4 C 6,4 km/h (2 Bft) 95,83 %
26.10.2016 00:30 12,4 C 99 % 1022,4 hPa 0,0 l/m 4,4 km/h (1 Bft) SW 234 0 min 0,000 mm 0,0 UV-I 0 W/m 12,2 C 12,4 C 6,4 km/h (2 Bft) 100,00 %
26.10.2016 00:31 12,4 C 99 % 1022,4 hPa 0,0 l/m 4,0 km/h (1 Bft) SW 234 0 min 0,000 mm 0,0 UV-I 0 W/m 12,2 C 12,4 C 6,4 km/h (2 Bft) 95,83 %
26.10.2016 00:32 12,4 C 99 % 1022,4 hPa 0,0 l/m 3,8 km/h (1 Bft) W-SW 237 0 min 0,000 mm 0,0 UV-I 0 W/m 12,2 C 12,4 C 4,8 km/h (1 Bft) 100,00 %
26.10.2016 00:33 12,4 C 99 % 1022,4 hPa 0,0 l/m 3,7 km/h (1 Bft) W-SW 237 0 min 0,000 mm 0,0 UV-I 0 W/m 12,2 C 12,4 C 4,8 km/h (1 Bft) 95,83 %
26.10.2016 00:34 12,4 C 99 % 1022,4 hPa 0,0 l/m 5,0 km/h (1 Bft) W 264 0 min 0,000 mm 0,0 UV-I 0 W/m 12,2 C 12,4 C 6,4 km/h (2 Bft) 100,00 %
26.10.2016 00:35 12,4 C 99 % 1022,4 hPa 0,0 l/m 4,7 km/h (1 Bft) W 264 0 min 0,000 mm 0,0 UV-I 0 W/m 12,2 C 12,4 C 6,4 km/h (2 Bft) 95,83 %
26.10.2016 00:36 12,3 C 99 % 1022,5 hPa 0,0 l/m 4,4 km/h (1 Bft) W 264 0 min 0,000 mm 0,0 UV-I 0 W/m 12,1 C 12,3 C 4,8 km/h (1 Bft) 95,83 %
26.10.2016 00:37 12,4 C 99 % 1022,5 hPa 0,0 l/m 4,2 km/h (1 Bft) W 264 0 min 0,000 mm 0,0 UV-I 0 W/m 12,2 C 12,4 C 4,8 km/h (1 Bft) 100,00 %
26.10.2016 00:38 12,3 C 99 % 1022,5 hPa 0,0 l/m 3,8 km/h (1 Bft) W 264 0 min 0,000 mm 0,0 UV-I 0 W/m 12,1 C 12,3 C 4,8 km/h (1 Bft) 100,00 %
26.10.2016 00:39 12,3 C 98 % 1022,5 hPa 0,0 l/m 4,3 km/h (1 Bft) W 264 0 min 0,000 mm 0,0 UV-I 0 W/m 12,0 C 12,3 C 4,8 km/h (1 Bft) 88,46 %
26.10.2016 00:40 12,3 C 98 % 1022,5 hPa 0,0 l/m 3,5 km/h (1 Bft) W 264 0 min 0,000 mm 0,0 UV-I 0 W/m 12,0 C 12,3 C 4,8 km/h (1 Bft) 96,30 %
26.10.2016 00:41 12,3 C 98 % 1022,5 hPa 0,0 l/m 2,8 km/h (1 Bft) W 264 0 min 0,000 mm 0,0 UV-I 0 W/m 12,0 C 12,3 C 4,8 km/h (1 Bft) 100,00 %
26.10.2016 00:42 12,3 C 98 % 1022,5 hPa 0,0 l/m 2,5 km/h (1 Bft) W 264 0 min 0,000 mm 0,0 UV-I 0 W/m 12,0 C 12,3 C 3,2 km/h (1 Bft) 95,83 %
26.10.2016 00:43 12,3 C 98 % 1022,5 hPa 0,0 l/m 3,2 km/h (1 Bft) W 264 0 min 0,000 mm 0,0 UV-I 0 W/m 12,0 C 12,3 C 4,8 km/h (1 Bft) 86,96 %
26.10.2016 00:44 12,3 C 98 % 1022,5 hPa 0,0 l/m 4,2 km/h (1 Bft) W 263 0 min 0,000 mm 0,0 UV-I 0 W/m 12,0 C 12,3 C 6,4 km/h (2 Bft) 100,00 %
26.10.2016 00:45 12,3 C 98 % 1022,5 hPa 0,0 l/m 3,6 km/h (1 Bft) W-SW 254 0 min 0,000 mm 0,0 UV-I 0 W/m 12,0 C 12,3 C 4,8 km/h (1 Bft) 90,91 %
26.10.2016 00:46 12,3 C 98 % 1022,5 hPa 0,0 l/m 3,9 km/h (1 Bft) W-SW 254 0 min 0,000 mm 0,0 UV-I 0 W/m 12,0 C 12,3 C 4,8 km/h (1 Bft) 100,00 %
26.10.2016 00:47 12,3 C 98 % 1022,5 hPa 0,0 l/m 3,9 km/h (1 Bft) W-SW 254 0 min 0,000 mm 0,0 UV-I 0 W/m 12,0 C 12,3 C 6,4 km/h (2 Bft) 100,00 %
26.10.2016 00:48 12,3 C 98 % 1022,5 hPa 0,0 l/m 4,0 km/h (1 Bft) W-SW 254 0 min 0,000 mm 0,0 UV-I 0 W/m 12,0 C 12,3 C 4,8 km/h (1 Bft) 96,30 %
26.10.2016 00:49 12,3 C 98 % 1022,5 hPa 0,0 l/m 2,9 km/h (1 Bft) W-SW 254 0 min 0,000 mm 0,0 UV-I 0 W/m 12,0 C 12,3 C 3,2 km/h (1 Bft) 100,00 %
26.10.2016 00:50 12,3 C 98 % 1022,5 hPa 0,0 l/m 3,5 km/h (1 Bft) W-SW 251 0 min 0,000 mm 0,0 UV-I 0 W/m 12,0 C 12,3 C 4,8 km/h (1 Bft) 100,00 %
26.10.2016 00:51 12,3 C 98 % 1022,5 hPa 0,0 l/m 3,6 km/h (1 Bft) W-SW 251 0 min 0,000 mm 0,0 UV-I 0 W/m 12,0 C 12,3 C 4,8 km/h (1 Bft) 100,00 %
26.10.2016 00:52 12,3 C 98 % 1022,5 hPa 0,0 l/m 3,2 km/h (1 Bft) W-SW 251 0 min 0,000 mm 0,0 UV-I 0 W/m 12,0 C 12,3 C 4,8 km/h (1 Bft) 100,00 %
26.10.2016 00:53 12,3 C 98 % 1022,5 hPa 0,0 l/m 4,1 km/h (1 Bft) W-SW 250 0 min 0,000 mm 0,0 UV-I 0 W/m 12,0 C 12,3 C 4,8 km/h (1 Bft) 100,00 %
26.10.2016 00:54 12,3 C 98 % 1022,5 hPa 0,0 l/m 4,3 km/h (1 Bft) W-SW 250 0 min 0,000 mm 0,0 UV-I 0 W/m 12,0 C 12,3 C 6,4 km/h (2 Bft) 100,00 %
26.10.2016 00:55 12,3 C 98 % 1022,5 hPa 0,0 l/m 3,3 km/h (1 Bft) W-SW 250 0 min 0,000 mm 0,0 UV-I 0 W/m 12,0 C 12,3 C 4,8 km/h (1 Bft) 100,00 %
26.10.2016 00:56 12,3 C 98 % 1022,5 hPa 0,0 l/m 4,3 km/h (1 Bft) W-SW 248 0 min 0,000 mm 0,0 UV-I 0 W/m 12,0 C 12,3 C 6,4 km/h (2 Bft) 100,00 %
26.10.2016 00:57 12,3 C 98 % 1022,5 hPa 0,0 l/m 4,3 km/h (1 Bft) W-SW 247 0 min 0,000 mm 0,0 UV-I 0 W/m 12,0 C 12,3 C 6,4 km/h (2 Bft) 100,00 %
26.10.2016 00:58 12,3 C 98 % 1022,5 hPa 0,0 l/m 4,4 km/h (1 Bft) W-SW 247 0 min 0,000 mm 0,0 UV-I 0 W/m 12,0 C 12,3 C 6,4 km/h (2 Bft) 96,15 %
26.10.2016 00:59 12,3 C 98 % 1022,5 hPa 0,0 l/m 4,4 km/h (1 Bft) W-SW 247 0 min 0,000 mm 0,0 UV-I 0 W/m 12,0 C 12,3 C 6,4 km/h (2 Bft) 100,00 %
26.10.2016 01:00 12,3 C 98 % 1022,5 hPa 0,0 l/m 4,3 km/h (1 Bft) W-SW 247 0 min 0,000 mm 0,0 UV-I 0 W/m 12,0 C 12,3 C 6,4 km/h (2 Bft) 100,00 %
26.10.2016 01:01 12,3 C 98 % 1022,6 hPa 0,0 l/m 2,8 km/h (1 Bft) W-SW 248 0 min 0,000 mm 0,0 UV-I 0 W/m 12,0 C 12,3 C 4,8 km/h (1 Bft) 100,00 %
26.10.2016 01:02 12,3 C 98 % 1022,6 hPa 0,0 l/m 4,4 km/h (1 Bft) W-SW 249 0 min 0,000 mm 0,0 UV-I 0 W/m 12,0 C 12,3 C 4,8 km/h (1 Bft) 100,00 %
26.10.2016 01:03 12,3 C 98 % 1022,6 hPa 0,0 l/m 3,6 km/h (1 Bft) W-SW 249 0 min 0,000 mm 0,0 UV-I 0 W/m 12,0 C 12,3 C 4,8 km/h (1 Bft) 100,00 %
26.10.2016 01:04 12,3 C 98 % 1022,6 hPa 0,2 l/m 2,5 km/h (1 Bft) W-SW 249 0 min 0,000 mm 0,0 UV-I 0 W/m 12,0 C 12,3 C 3,2 km/h (1 Bft) 96,15 %
26.10.2016 01:05 12,3 C 98 % 1022,6 hPa 0,0 l/m 2,9 km/h (1 Bft) W-SW 249 0 min 0,000 mm 0,0 UV-I 0 W/m 12,0 C 12,3 C 4,8 km/h (1 Bft) 100,00 %
26.10.2016 01:06 12,3 C 98 % 1022,6 hPa 0,0 l/m 3,1 km/h (1 Bft) W-SW 249 0 min 0,000 mm 0,0 UV-I 0 W/m 12,0 C 12,3 C 3,2 km/h (1 Bft) 100,00 %
26.10.2016 01:07 12,3 C 98 % 1022,6 hPa 0,0 l/m 2,4 km/h (1 Bft) W-SW 249 0 min 0,000 mm 0,0 UV-I 0 W/m 12,0 C 12,3 C 3,2 km/h (1 Bft) 100,00 %
26.10.2016 01:08 12,3 C 98 % 1022,6 hPa 0,0 l/m 2,8 km/h (1 Bft) W-SW 249 0 min 0,000 mm 0,0 UV-I 0 W/m 12,0 C 12,3 C 3,2 km/h (1 Bft) 100,00 %
26.10.2016 01:09 12,3 C 98 % 1022,5 hPa 0,0 l/m 3,8 km/h (1 Bft) W-SW 249 0 min 0,000 mm 0,0 UV-I 0 W/m 12,0 C 12,3 C 4,8 km/h (1 Bft) 100,00 %
26.10.2016 01:10 12,3 C 98 % 1022,6 hPa 0,0 l/m 3,5 km/h (1 Bft) W-SW 251 0 min 0,000 mm 0,0 UV-I 0 W/m 12,0 C 12,3 C 4,8 km/h (1 Bft) 100,00 %
26.10.2016 01:11 12,3 C 98 % 1022,5 hPa 0,0 l/m 4,3 km/h (1 Bft) W-SW 252 0 min 0,000 mm 0,0 UV-I 0 W/m 12,0 C 12,3 C 6,4 km/h (2 Bft) 91,30 %
26.10.2016 01:12 12,3 C 98 % 1022,5 hPa 0,0 l/m 3,7 km/h (1 Bft) W-SW 252 0 min 0,000 mm 0,0 UV-I 0 W/m 12,0 C 12,3 C 4,8 km/h (1 Bft) 100,00 %
26.10.2016 01:13 12,3 C 98 % 1022,6 hPa 0,0 l/m 5,0 km/h (1 Bft) W-SW 252 0 min 0,000 mm 0,0 UV-I 0 W/m 12,0 C 12,3 C 8,0 km/h (2 Bft) 96,15 %
26.10.2016 01:14 12,3 C 98 % 1022,6 hPa 0,0 l/m 4,5 km/h (1 Bft) W-SW 253 0 min 0,000 mm 0,0 UV-I 0 W/m 12,0 C 12,3 C 6,4 km/h (2 Bft) 100,00 %
26.10.2016 01:15 12,3 C 98 % 1022,6 hPa 0,0 l/m 5,0 km/h (1 Bft) W-SW 249 0 min 0,000 mm 0,0 UV-I 0 W/m 12,0 C 12,3 C 6,4 km/h (2 Bft) 100,00 %
26.10.2016 01:16 12,3 C 98 % 1022,6 hPa 0,0 l/m 3,6 km/h (1 Bft) W-SW 249 0 min 0,000 mm 0,0 UV-I 0 W/m 12,0 C 12,3 C 4,8 km/h (1 Bft) 100,00 %
26.10.2016 01:17 12,3 C 98 % 1022,5 hPa 0,0 l/m 5,0 km/h (1 Bft) W-SW 250 0 min 0,000 mm 0,0 UV-I 0 W/m 12,0 C 12,3 C 6,4 km/h (2 Bft) 100,00 %
26.10.2016 01:18 12,3 C 98 % 1022,5 hPa 0,0 l/m 4,7 km/h (1 Bft) W-SW 248 0 min 0,000 mm 0,0 UV-I 0 W/m 12,0 C 12,3 C 6,4 km/h (2 Bft) 96,67 %
26.10.2016 01:19 12,3 C 98 % 1022,6 hPa 0,0 l/m 4,9 km/h (1 Bft) W-SW 247 0 min 0,000 mm 0,0 UV-I 0 W/m 12,0 C 12,3 C 8,0 km/h (2 Bft) 100,00 %
26.10.2016 01:20 12,3 C 98 % 1022,5 hPa 0,0 l/m 5,0 km/h (1 Bft) W-SW 239 0 min 0,000 mm 0,0 UV-I 0 W/m 12,0 C 12,3 C 6,4 km/h (2 Bft) 100,00 %
26.10.2016 01:21 12,3 C 98 % 1022,6 hPa 0,0 l/m 4,8 km/h (1 Bft) W-SW 239 0 min 0,000 mm 0,0 UV-I 0 W/m 12,0 C 12,3 C 6,4 km/h (2 Bft) 100,00 %
26.10.2016 01:22 12,3 C 98 % 1022,6 hPa 0,0 l/m 5,4 km/h (1 Bft) W-SW 246 0 min 0,000 mm 0,0 UV-I 0 W/m 12,0 C 12,3 C 8,0 km/h (2 Bft) 100,00 %
26.10.2016 01:23 12,3 C 98 % 1022,6 hPa 0,0 l/m 5,9 km/h (2 Bft) W-SW 246 0 min 0,000 mm 0,0 UV-I 0 W/m 12,0 C 12,3 C 8,0 km/h (2 Bft) 100,00 %
26.10.2016 01:24 12,2 C 98 % 1022,6 hPa 0,0 l/m 5,5 km/h (1 Bft) W-SW 248 0 min 0,000 mm 0,0 UV-I 0 W/m 11,9 C 12,2 C 6,4 km/h (2 Bft) 100,00 %
26.10.2016 01:25 12,2 C 98 % 1022,6 hPa 0,0 l/m 4,4 km/h (1 Bft) W-SW 248 0 min 0,000 mm 0,0 UV-I 0 W/m 11,9 C 12,2 C 6,4 km/h (2 Bft) 100,00 %
26.10.2016 01:26 12,2 C 98 % 1022,6 hPa 0,0 l/m 4,6 km/h (1 Bft) W-SW 248 0 min 0,000 mm 0,0 UV-I 0 W/m 11,9 C 12,2 C 4,8 km/h (1 Bft) 100,00 %
26.10.2016 01:27 12,2 C 98 % 1022,6 hPa 0,0 l/m 3,6 km/h (1 Bft) W 266 0 min 0,000 mm 0,0 UV-I 0 W/m 11,9 C 12,2 C 4,8 km/h (1 Bft) 100,00 %
26.10.2016 01:28 12,2 C 98 % 1022,6 hPa 0,0 l/m 4,6 km/h (1 Bft) W 277 0 min 0,000 mm 0,0 UV-I 0 W/m 11,9 C 12,2 C 6,4 km/h (2 Bft) 100,00 %
26.10.2016 01:29 12,2 C 98 % 1022,7 hPa 0,0 l/m 4,2 km/h (1 Bft) W 277 0 min 0,000 mm 0,0 UV-I 0 W/m 11,9 C 12,2 C 4,8 km/h (1 Bft) 100,00 %
26.10.2016 01:30 12,2 C 98 % 1022,7 hPa 0,0 l/m 4,2 km/h (1 Bft) W 277 0 min 0,000 mm 0,0 UV-I 0 W/m 11,9 C 12,2 C 4,8 km/h (1 Bft) 100,00 %
26.10.2016 01:31 12,2 C 98 % 1022,6 hPa 0,0 l/m 4,3 km/h (1 Bft) W 277 0 min 0,000 mm 0,0 UV-I 0 W/m 11,9 C 12,2 C 4,8 km/h (1 Bft) 100,00 %
26.10.2016 01:32 12,2 C 98 % 1022,6 hPa 0,0 l/m 3,4 km/h (1 Bft) W 277 0 min 0,000 mm 0,0 UV-I 0 W/m 11,9 C 12,2 C 4,8 km/h (1 Bft) 95,83 %
26.10.2016 01:33 12,2 C 99 % 1022,6 hPa 0,0 l/m 5,0 km/h (1 Bft) W-SW 245 0 min 0,000 mm 0,0 UV-I 0 W/m 12,0 C 12,2 C 6,4 km/h (2 Bft) 91,30 %
26.10.2016 01:34 12,2 C 99 % 1022,6 hPa 0,0 l/m 3,7 km/h (1 Bft) W-SW 248 0 min 0,000 mm 0,0 UV-I 0 W/m 12,0 C 12,2 C 4,8 km/h (1 Bft) 93,33 %
26.10.2016 01:35 12,2 C 99 % 1022,6 hPa 0,0 l/m 5,1 km/h (1 Bft) W 279 0 min 0,000 mm 0,0 UV-I 0 W/m 12,0 C 12,2 C 6,4 km/h (2 Bft) 100,00 %
26.10.2016 01:36 12,2 C 99 % 1022,5 hPa 0,0 l/m 3,4 km/h (1 Bft) W 279 0 min 0,000 mm 0,0 UV-I 0 W/m 12,0 C 12,2 C 4,8 km/h (1 Bft) 96,15 %
26.10.2016 01:37 12,2 C 99 % 1022,6 hPa 0,0 l/m 3,9 km/h (1 Bft) W 279 0 min 0,000 mm 0,0 UV-I 0 W/m 12,0 C 12,2 C 6,4 km/h (2 Bft) 100,00 %
26.10.2016 01:38 12,2 C 99 % 1022,6 hPa 0,0 l/m 3,3 km/h (1 Bft) W 279 0 min 0,000 mm 0,0 UV-I 0 W/m 12,0 C 12,2 C 4,8 km/h (1 Bft) 100,00 %
26.10.2016 01:39 12,2 C 99 % 1022,6 hPa 0,0 l/m 4,1 km/h (1 Bft) W 279 0 min 0,000 mm 0,0 UV-I 0 W/m 12,0 C 12,2 C 4,8 km/h (1 Bft) 100,00 %
26.10.2016 01:40 12,2 C 99 % 1022,5 hPa 0,0 l/m 6,0 km/h (2 Bft) W-SW 254 0 min 0,000 mm 0,0 UV-I 0 W/m 12,0 C 12,2 C 9,7 km/h (2 Bft) 96,55 %
26.10.2016 01:41 12,2 C 99 % 1022,5 hPa 0,0 l/m 4,8 km/h (1 Bft) W-SW 255 0 min 0,000 mm 0,0 UV-I 0 W/m 12,0 C 12,2 C 6,4 km/h (2 Bft) 100,00 %
26.10.2016 01:42 12,2 C 99 % 1022,5 hPa 0,0 l/m 5,3 km/h (1 Bft) W-SW 254 0 min 0,000 mm 0,0 UV-I 0 W/m 12,0 C 12,2 C 6,4 km/h (2 Bft) 100,00 %
26.10.2016 01:43 12,1 C 99 % 1022,5 hPa 0,0 l/m 3,7 km/h (1 Bft) W 261 0 min 0,000 mm 0,0 UV-I 0 W/m 11,9 C 12,1 C 4,8 km/h (1 Bft) 100,00 %
26.10.2016 01:44 12,1 C 99 % 1022,5 hPa 0,0 l/m 3,4 km/h (1 Bft) W 261 0 min 0,000 mm 0,0 UV-I 0 W/m 11,9 C 12,1 C 4,8 km/h (1 Bft) 100,00 %
26.10.2016 01:45 12,1 C 99 % 1022,6 hPa 0,0 l/m 4,8 km/h (1 Bft) W-SW 244 0 min 0,000 mm 0,0 UV-I 0 W/m 11,9 C 12,1 C 8,0 km/h (2 Bft) 100,00 %
26.10.2016 01:46 12,1 C 99 % 1022,6 hPa 0,0 l/m 3,7 km/h (1 Bft) W-SW 244 0 min 0,000 mm 0,0 UV-I 0 W/m 11,9 C 12,1 C 4,8 km/h (1 Bft) 100,00 %
26.10.2016 01:47 12,1 C 99 % 1022,6 hPa 0,0 l/m 4,2 km/h (1 Bft) W-SW 245 0 min 0,000 mm 0,0 UV-I 0 W/m 11,9 C 12,1 C 6,4 km/h (2 Bft) 100,00 %
26.10.2016 01:48 12,1 C 99 % 1022,5 hPa 0,0 l/m 3,3 km/h (1 Bft) W 259 0 min 0,000 mm 0,0 UV-I 0 W/m 11,9 C 12,1 C 6,4 km/h (2 Bft) 100,00 %
26.10.2016 01:49 12,1 C 99 % 1022,6 hPa 0,0 l/m 3,1 km/h (1 Bft) W 259 0 min 0,000 mm 0,0 UV-I 0 W/m 11,9 C 12,1 C 4,8 km/h (1 Bft) 96,30 %
26.10.2016 01:50 12,1 C 99 % 1022,5 hPa 0,0 l/m 3,6 km/h (1 Bft) W 260 0 min 0,000 mm 0,0 UV-I 0 W/m 11,9 C 12,1 C 4,8 km/h (1 Bft) 100,00 %
26.10.2016 01:51 12,1 C 99 % 1022,5 hPa 0,0 l/m 3,6 km/h (1 Bft) W 269 0 min 0,000 mm 0,0 UV-I 0 W/m 11,9 C 12,1 C 4,8 km/h (1 Bft) 100,00 %
26.10.2016 01:52 12,1 C 99 % 1022,5 hPa 0,0 l/m 1,5 km/h (1 Bft) W 269 0 min 0,000 mm 0,0 UV-I 0 W/m 11,9 C 12,1 C 3,2 km/h (1 Bft) 95,65 %
26.10.2016 01:53 12,1 C 99 % 1022,5 hPa 0,0 l/m 2,3 km/h (1 Bft) W 269 0 min 0,000 mm 0,0 UV-I 0 W/m 11,9 C 12,1 C 4,8 km/h (1 Bft) 93,33 %
26.10.2016 01:54 12,1 C 99 % 1022,5 hPa 0,0 l/m 4,1 km/h (1 Bft) W-SW 257 0 min 0,000 mm 0,0 UV-I 0 W/m 11,9 C 12,1 C 8,0 km/h (2 Bft) 100,00 %
26.10.2016 01:55 12,1 C 99 % 1022,5 hPa 0,0 l/m 3,4 km/h (1 Bft) W-SW 257 0 min 0,000 mm 0,0 UV-I 0 W/m 11,9 C 12,1 C 4,8 km/h (1 Bft) 100,00 %
26.10.2016 01:56 12,1 C 99 % 1022,5 hPa 0,0 l/m 6,3 km/h (2 Bft) W-SW 252 0 min 0,000 mm 0,0 UV-I 0 W/m 11,9 C 12,1 C 9,7 km/h (2 Bft) 100,00 %
26.10.2016 01:57 12,1 C 99 % 1022,6 hPa 0,0 l/m 4,0 km/h (1 Bft) W-SW 251 0 min 0,000 mm 0,0 UV-I 0 W/m 11,9 C 12,1 C 6,4 km/h (2 Bft) 100,00 %
26.10.2016 01:58 12,1 C 99 % 1022,5 hPa 0,0 l/m 2,8 km/h (1 Bft) W-SW 251 0 min 0,000 mm 0,0 UV-I 0 W/m 11,9 C 12,1 C 4,8 km/h (1 Bft) 100,00 %
26.10.2016 01:59 12,1 C 99 % 1022,6 hPa 0,0 l/m 2,5 km/h (1 Bft) W-SW 251 0 min 0,000 mm 0,0 UV-I 0 W/m 11,9 C 12,1 C 4,8 km/h (1 Bft) 100,00 %
26.10.2016 02:00 12,0 C 99 % 1022,6 hPa 0,0 l/m 4,8 km/h (1 Bft) W-SW 251 0 min 0,000 mm 0,0 UV-I 0 W/m 11,8 C 12,0 C 6,4 km/h (2 Bft) 100,00 %
26.10.2016 02:01 12,0 C 99 % 1022,6 hPa 0,0 l/m 3,9 km/h (1 Bft) W-SW 251 0 min 0,000 mm 0,0 UV-I 0 W/m 11,8 C 12,0 C 4,8 km/h (1 Bft) 100,00 %
26.10.2016 02:02 12,0 C 98 % 1022,6 hPa 0,0 l/m 3,9 km/h (1 Bft) W-SW 251 0 min 0,000 mm 0,0 UV-I 0 W/m 11,7 C 12,0 C 4,8 km/h (1 Bft) 100,00 %
26.10.2016 02:03 12,0 C 98 % 1022,6 hPa 0,0 l/m 4,7 km/h (1 Bft) W-SW 251 0 min 0,000 mm 0,0 UV-I 0 W/m 11,7 C 12,0 C 4,8 km/h (1 Bft) 100,00 %
26.10.2016 02:04 12,0 C 98 % 1022,6 hPa 0,0 l/m 4,0 km/h (1 Bft) W-SW 251 0 min 0,000 mm 0,0 UV-I 0 W/m 11,7 C 12,0 C 4,8 km/h (1 Bft) 100,00 %
26.10.2016 02:05 12,0 C 98 % 1022,6 hPa 0,0 l/m 4,2 km/h (1 Bft) W-SW 250 0 min 0,000 mm 0,0 UV-I 0 W/m 11,7 C 12,0 C 6,4 km/h (2 Bft) 91,30 %
26.10.2016 02:06 12,0 C 98 % 1022,6 hPa 0,0 l/m 3,0 km/h (1 Bft) W-SW 250 0 min 0,000 mm 0,0 UV-I 0 W/m 11,7 C 12,0 C 4,8 km/h (1 Bft) 100,00 %
26.10.2016 02:07 12,0 C 98 % 1022,6 hPa 0,0 l/m 3,6 km/h (1 Bft) W-SW 250 0 min 0,000 mm 0,0 UV-I 0 W/m 11,7 C 12,0 C 4,8 km/h (1 Bft) 100,00 %
26.10.2016 02:08 12,0 C 98 % 1022,7 hPa 0,0 l/m 4,2 km/h (1 Bft) W-SW 251 0 min 0,000 mm 0,0 UV-I 0 W/m 11,7 C 12,0 C 4,8 km/h (1 Bft) 100,00 %
26.10.2016 02:09 12,0 C 98 % 1022,7 hPa 0,0 l/m 5,2 km/h (1 Bft) W-SW 249 0 min 0,000 mm 0,0 UV-I 0 W/m 11,7 C 12,0 C 8,0 km/h (2 Bft) 100,00 %
26.10.2016 02:10 12,0 C 98 % 1022,7 hPa 0,0 l/m 4,6 km/h (1 Bft) W-SW 249 0 min 0,000 mm 0,0 UV-I 0 W/m 11,7 C 12,0 C 6,4 km/h (2 Bft) 100,00 %
26.10.2016 02:11 11,9 C 98 % 1022,7 hPa 0,0 l/m 2,9 km/h (1 Bft) W-SW 250 0 min 0,000 mm 0,0 UV-I 0 W/m 11,6 C 11,9 C 4,8 km/h (1 Bft) 100,00 %
26.10.2016 02:12 12,0 C 98 % 1022,7 hPa 0,0 l/m 4,1 km/h (1 Bft) W 264 0 min 0,000 mm 0,0 UV-I 0 W/m 11,7 C 12,0 C 6,4 km/h (2 Bft) 92,31 %
26.10.2016 02:13 11,9 C 98 % 1022,7 hPa 0,0 l/m 5,1 km/h (1 Bft) W 267 0 min 0,000 mm 0,0 UV-I 0 W/m 11,6 C 11,9 C 9,7 km/h (2 Bft) 95,83 %
26.10.2016 02:14 11,9 C 98 % 1022,7 hPa 0,0 l/m 3,4 km/h (1 Bft) W 267 0 min 0,000 mm 0,0 UV-I 0 W/m 11,6 C 11,9 C 4,8 km/h (1 Bft) 100,00 %
26.10.2016 02:15 11,9 C 98 % 1022,7 hPa 0,0 l/m 4,3 km/h (1 Bft) W 265 0 min 0,000 mm 0,0 UV-I 0 W/m 11,6 C 11,9 C 4,8 km/h (1 Bft) 95,83 %
26.10.2016 02:16 11,9 C 98 % 1022,7 hPa 0,0 l/m 4,2 km/h (1 Bft) W 267 0 min 0,000 mm 0,0 UV-I 0 W/m 11,6 C 11,9 C 6,4 km/h (2 Bft) 100,00 %
26.10.2016 02:17 11,9 C 98 % 1022,7 hPa 0,0 l/m 4,2 km/h (1 Bft) W 265 0 min 0,000 mm 0,0 UV-I 0 W/m 11,6 C 11,9 C 6,4 km/h (2 Bft) 96,30 %
26.10.2016 02:18 11,9 C 98 % 1022,7 hPa 0,0 l/m 3,4 km/h (1 Bft) W 265 0 min 0,000 mm 0,0 UV-I 0 W/m 11,6 C 11,9 C 4,8 km/h (1 Bft) 95,65 %
26.10.2016 02:19 11,9 C 98 % 1022,8 hPa 0,0 l/m 3,7 km/h (1 Bft) W 267 0 min 0,000 mm 0,0 UV-I 0 W/m 11,6 C 11,9 C 6,4 km/h (2 Bft) 96,30 %
26.10.2016 02:20 11,9 C 98 % 1022,7 hPa 0,0 l/m 5,1 km/h (1 Bft) W 259 0 min 0,000 mm 0,0 UV-I 0 W/m 11,6 C 11,9 C 6,4 km/h (2 Bft) 100,00 %
26.10.2016 02:21 11,9 C 98 % 1022,7 hPa 0,0 l/m 2,5 km/h (1 Bft) W 259 0 min 0,000 mm 0,0 UV-I 0 W/m 11,6 C 11,9 C 3,2 km/h (1 Bft) 93,33 %
26.10.2016 02:22 11,9 C 98 % 1022,8 hPa 0,0 l/m 3,6 km/h (1 Bft) W 271 0 min 0,000 mm 0,0 UV-I 0 W/m 11,6 C 11,9 C 9,7 km/h (2 Bft) 95,65 %
26.10.2016 02:23 11,9 C 98 % 1022,8 hPa 0,0 l/m 4,3 km/h (1 Bft) W 271 0 min 0,000 mm 0,0 UV-I 0 W/m 11,6 C 11,9 C 6,4 km/h (2 Bft) 100,00 %
26.10.2016 02:24 11,9 C 98 % 1022,8 hPa 0,0 l/m 2,9 km/h (1 Bft) W 271 0 min 0,000 mm 0,0 UV-I 0 W/m 11,6 C 11,9 C 4,8 km/h (1 Bft) 95,65 %
26.10.2016 02:25 11,9 C 98 % 1022,8 hPa 0,0 l/m 3,5 km/h (1 Bft) SW 236 0 min 0,000 mm 0,0 UV-I 0 W/m 11,6 C 11,9 C 6,4 km/h (2 Bft) 100,00 %
26.10.2016 02:26 11,9 C 98 % 1022,8 hPa 0,0 l/m 3,6 km/h (1 Bft) W-SW 237 0 min 0,000 mm 0,0 UV-I 0 W/m 11,6 C 11,9 C 4,8 km/h (1 Bft) 95,65 %
26.10.2016 02:27 11,9 C 98 % 1022,8 hPa 0,0 l/m 4,3 km/h (1 Bft) W-SW 238 0 min 0,000 mm 0,0 UV-I 0 W/m 11,6 C 11,9 C 4,8 km/h (1 Bft) 100,00 %
26.10.2016 02:28 11,9 C 98 % 1022,9 hPa 0,0 l/m 3,4 km/h (1 Bft) W-SW 238 0 min 0,000 mm 0,0 UV-I 0 W/m 11,6 C 11,9 C 4,8 km/h (1 Bft) 92,31 %
26.10.2016 02:29 11,9 C 98 % 1022,9 hPa 0,0 l/m 4,1 km/h (1 Bft) W-SW 239 0 min 0,000 mm 0,0 UV-I 0 W/m 11,6 C 11,9 C 6,4 km/h (2 Bft) 100,00 %
26.10.2016 02:30 11,9 C 98 % 1022,9 hPa 0,0 l/m 6,5 km/h (2 Bft) W 261 0 min 0,000 mm 0,0 UV-I 0 W/m 11,6 C 11,9 C 8,0 km/h (2 Bft) 96,55 %
26.10.2016 02:31 11,9 C 98 % 1022,9 hPa 0,0 l/m 3,4 km/h (1 Bft) W-SW 254 0 min 0,000 mm 0,0 UV-I 0 W/m 11,6 C 11,9 C 4,8 km/h (1 Bft) 96,30 %
26.10.2016 02:32 11,9 C 98 % 1022,9 hPa 0,0 l/m 3,9 km/h (1 Bft) W-SW 254 0 min 0,000 mm 0,0 UV-I 0 W/m 11,6 C 11,9 C 6,4 km/h (2 Bft) 100,00 %
26.10.2016 02:33 11,9 C 98 % 1023,0 hPa 0,0 l/m 3,9 km/h (1 Bft) W-SW 253 0 min 0,000 mm 0,0 UV-I 0 W/m 11,6 C 11,9 C 6,4 km/h (2 Bft) 93,33 %
26.10.2016 02:34 11,9 C 98 % 1023,0 hPa 0,0 l/m 4,1 km/h (1 Bft) W-SW 253 0 min 0,000 mm 0,0 UV-I 0 W/m 11,6 C 11,9 C 4,8 km/h (1 Bft) 100,00 %
26.10.2016 02:35 11,9 C 98 % 1023,0 hPa 0,0 l/m 4,4 km/h (1 Bft) W-SW 254 0 min 0,000 mm 0,0 UV-I 0 W/m 11,6 C 11,9 C 6,4 km/h (2 Bft) 95,65 %
26.10.2016 02:36 11,9 C 98 % 1022,9 hPa 0,0 l/m 3,7 km/h (1 Bft) W-SW 254 0 min 0,000 mm 0,0 UV-I 0 W/m 11,6 C 11,9 C 6,4 km/h (2 Bft) 96,30 %
26.10.2016 02:37 11,8 C 98 % 1022,9 hPa 0,0 l/m 4,1 km/h (1 Bft) W-SW 255 0 min 0,000 mm 0,0 UV-I 0 W/m 11,5 C 11,8 C 6,4 km/h (2 Bft) 95,65 %
26.10.2016 02:38 11,8 C 98 % 1022,9 hPa 0,0 l/m 3,0 km/h (1 Bft) W-SW 255 0 min 0,000 mm 0,0 UV-I 0 W/m 11,5 C 11,8 C 4,8 km/h (1 Bft) 100,00 %
26.10.2016 02:39 11,8 C 98 % 1022,9 hPa 0,0 l/m 3,8 km/h (1 Bft) W 274 0 min 0,000 mm 0,0 UV-I 0 W/m 11,5 C 11,8 C 9,7 km/h (2 Bft) 95,65 %
26.10.2016 02:40 11,8 C 98 % 1022,9 hPa 0,0 l/m 6,4 km/h (2 Bft) W 277 0 min 0,000 mm 0,0 UV-I 0 W/m 11,5 C 11,8 C 11,3 km/h (2 Bft) 96,30 %
26.10.2016 02:41 11,8 C 98 % 1022,9 hPa 0,0 l/m 5,1 km/h (1 Bft) W 264 0 min 0,000 mm 0,0 UV-I 0 W/m 11,5 C 11,8 C 6,4 km/h (2 Bft) 92,86 %
26.10.2016 02:42 11,8 C 98 % 1022,9 hPa 0,0 l/m 4,9 km/h (1 Bft) W-SW 250 0 min 0,000 mm 0,0 UV-I 0 W/m 11,5 C 11,8 C 6,4 km/h (2 Bft) 94,87 %
26.10.2016 02:43 11,8 C 98 % 1022,9 hPa 0,0 l/m 4,6 km/h (1 Bft) W-SW 254 0 min 0,000 mm 0,0 UV-I 0 W/m 11,5 C 11,8 C 6,4 km/h (2 Bft) 92,86 %
26.10.2016 02:44 11,8 C 98 % 1022,9 hPa 0,0 l/m 4,6 km/h (1 Bft) W 259 0 min 0,000 mm 0,0 UV-I 0 W/m 11,5 C 11,8 C 6,4 km/h (2 Bft) 95,83 %
26.10.2016 02:45 11,8 C 98 % 1022,9 hPa 0,0 l/m 4,4 km/h (1 Bft) W 260 0 min 0,000 mm 0,0 UV-I 0 W/m 11,5 C 11,8 C 6,4 km/h (2 Bft) 100,00 %
26.10.2016 02:46 11,8 C 98 % 1022,9 hPa 0,0 l/m 5,7 km/h (1 Bft) W-SW 243 0 min 0,000 mm 0,0 UV-I 0 W/m 11,5 C 11,8 C 9,7 km/h (2 Bft) 100,00 %
26.10.2016 02:47 11,8 C 98 % 1022,9 hPa 0,0 l/m 5,6 km/h (1 Bft) W 262 0 min 0,000 mm 0,0 UV-I 0 W/m 11,5 C 11,8 C 6,4 km/h (2 Bft) 100,00 %
26.10.2016 02:48 11,8 C 98 % 1022,9 hPa 0,0 l/m 6,7 km/h (2 Bft) W-SW 254 0 min 0,000 mm 0,0 UV-I 0 W/m 11,5 C 11,6 C 11,3 km/h (2 Bft) 100,00 %
26.10.2016 02:49 11,8 C 98 % 1022,9 hPa 0,0 l/m 5,1 km/h (1 Bft) W-SW 239 0 min 0,000 mm 0,0 UV-I 0 W/m 11,5 C 11,8 C 6,4 km/h (2 Bft) 100,00 %
26.10.2016 02:50 11,8 C 98 % 1022,9 hPa 0,0 l/m 7,2 km/h (2 Bft) W 271 0 min 0,000 mm 0,0 UV-I 0 W/m 11,5 C 11,3 C 9,7 km/h (2 Bft) 97,55 %
26.10.2016 02:51 11,8 C 98 % 1022,9 hPa 0,0 l/m 5,2 km/h (1 Bft) W 277 0 min 0,000 mm 0,0 UV-I 0 W/m 11,5 C 11,8 C 9,7 km/h (2 Bft) 100,00 %
26.10.2016 02:52 11,8 C 98 % 1022,9 hPa 0,0 l/m 6,8 km/h (2 Bft) SW 233 0 min 0,000 mm 0,0 UV-I 0 W/m 11,5 C 11,5 C 12,9 km/h (3 Bft) 100,00 %
26.10.2016 02:53 11,8 C 98 % 1022,9 hPa 0,0 l/m 5,7 km/h (1 Bft) W-NW 298 0 min 0,000 mm 0,0 UV-I 0 W/m 11,5 C 11,8 C 8,0 km/h (2 Bft) 96,30 %
26.10.2016 02:54 11,8 C 98 % 1022,9 hPa 0,0 l/m 5,6 km/h (1 Bft) W-SW 250 0 min 0,000 mm 0,0 UV-I 0 W/m 11,5 C 11,8 C 8,0 km/h (2 Bft) 100,00 %
26.10.2016 02:55 11,8 C 98 % 1022,9 hPa 0,0 l/m 6,8 km/h (2 Bft) W 265 0 min 0,000 mm 0,0 UV-I 0 W/m 11,5 C 11,5 C 12,9 km/h (3 Bft) 100,00 %
26.10.2016 02:56 11,8 C 98 % 1022,9 hPa 0,0 l/m 4,0 km/h (1 Bft) W 269 0 min 0,000 mm 0,0 UV-I 0 W/m 11,5 C 11,8 C 4,8 km/h (1 Bft) 100,00 %
26.10.2016 02:57 11,8 C 98 % 1022,9 hPa 0,0 l/m 3,6 km/h (1 Bft) W 270 0 min 0,000 mm 0,0 UV-I 0 W/m 11,5 C 11,8 C 4,8 km/h (1 Bft) 100,00 %
26.10.2016 02:58 11,8 C 98 % 1022,9 hPa 0,0 l/m 3,6 km/h (1 Bft) W 270 0 min 0,000 mm 0,0 UV-I 0 W/m 11,5 C 11,8 C 4,8 km/h (1 Bft) 100,00 %
26.10.2016 02:59 11,8 C 98 % 1023,0 hPa 0,0 l/m 3,6 km/h (1 Bft) W 260 0 min 0,000 mm 0,0 UV-I 0 W/m 11,5 C 11,8 C 6,4 km/h (2 Bft) 100,00 %
26.10.2016 03:00 11,8 C 98 % 1023,0 hPa 0,0 l/m 6,2 km/h (2 Bft) W 265 0 min 0,000 mm 0,0 UV-I 0 W/m 11,5 C 11,8 C 11,3 km/h (2 Bft) 100,00 %
26.10.2016 03:01 11,8 C 98 % 1023,0 hPa 0,0 l/m 5,1 km/h (1 Bft) W 262 0 min 0,000 mm 0,0 UV-I 0 W/m 11,5 C 11,8 C 9,7 km/h (2 Bft) 100,00 %
26.10.2016 03:02 11,8 C 98 % 1023,0 hPa 0,0 l/m 5,5 km/h (1 Bft) W-SW 256 0 min 0,000 mm 0,0 UV-I 0 W/m 11,5 C 11,8 C 9,7 km/h (2 Bft) 100,00 %
26.10.2016 03:03 11,8 C 98 % 1023,0 hPa 0,0 l/m 6,6 km/h (2 Bft) W-SW 251 0 min 0,000 mm 0,0 UV-I 0 W/m 11,5 C 11,7 C 11,3 km/h (2 Bft) 100,00 %
26.10.2016 03:04 11,8 C 98 % 1023,0 hPa 0,0 l/m 4,7 km/h (1 Bft) W-SW 257 0 min 0,000 mm 0,0 UV-I 0 W/m 11,5 C 11,8 C 8,0 km/h (2 Bft) 100,00 %
26.10.2016 03:05 11,7 C 98 % 1023,0 hPa 0,0 l/m 5,3 km/h (1 Bft) W-SW 250 0 min 0,000 mm 0,0 UV-I 0 W/m 11,4 C 11,7 C 9,7 km/h (2 Bft) 100,00 %
26.10.2016 03:06 11,7 C 98 % 1023,0 hPa 0,0 l/m 5,2 km/h (1 Bft) W-SW 244 0 min 0,000 mm 0,0 UV-I 0 W/m 11,4 C 11,7 C 9,7 km/h (2 Bft) 100,00 %
26.10.2016 03:07 11,7 C 98 % 1022,9 hPa 0,0 l/m 4,6 km/h (1 Bft) W 271 0 min 0,000 mm 0,0 UV-I 0 W/m 11,4 C 11,7 C 9,7 km/h (2 Bft) 100,00 %
26.10.2016 03:08 11,7 C 98 % 1022,9 hPa 0,0 l/m 5,0 km/h (1 Bft) W-SW 253 0 min 0,000 mm 0,0 UV-I 0 W/m 11,4 C 11,7 C 9,7 km/h (2 Bft) 100,00 %
26.10.2016 03:09 11,7 C 98 % 1022,9 hPa 0,0 l/m 4,1 km/h (1 Bft) W-SW 252 0 min 0,000 mm 0,0 UV-I 0 W/m 11,4 C 11,7 C 6,4 km/h (2 Bft) 100,00 %
26.10.2016 03:10 11,7 C 98 % 1023,0 hPa 0,0 l/m 1,4 km/h (1 Bft) W-SW 252 0 min 0,000 mm 0,0 UV-I 0 W/m 11,4 C 11,7 C 3,2 km/h (1 Bft) 100,00 %
26.10.2016 03:11 11,7 C 98 % 1023,0 hPa 0,0 l/m 1,7 km/h (1 Bft) W-SW 252 0 min 0,000 mm 0,0 UV-I 0 W/m 11,4 C 11,7 C 3,2 km/h (1 Bft) 100,00 %
26.10.2016 03:12 11,7 C 98 % 1023,0 hPa 0,0 l/m 3,5 km/h (1 Bft) W-SW 250 0 min 0,000 mm 0,0 UV-I 0 W/m 11,4 C 11,7 C 6,4 km/h (2 Bft) 100,00 %
26.10.2016 03:13 11,7 C 98 % 1023,0 hPa 0,0 l/m 4,2 km/h (1 Bft) W-SW 250 0 min 0,000 mm 0,0 UV-I 0 W/m 11,4 C 11,7 C 4,8 km/h (1 Bft) 95,65 %
26.10.2016 03:14 11,7 C 98 % 1023,0 hPa 0,0 l/m 5,7 km/h (1 Bft) W-SW 242 0 min 0,000 mm 0,0 UV-I 0 W/m 11,4 C 11,7 C 9,7 km/h (2 Bft) 100,00 %
26.10.2016 03:15 11,7 C 98 % 1023,1 hPa 0,0 l/m 2,7 km/h (1 Bft) W 269 0 min 0,000 mm 0,0 UV-I 0 W/m 11,4 C 11,7 C 3,2 km/h (1 Bft) 96,88 %
26.10.2016 03:16 11,7 C 98 % 1023,0 hPa 0,0 l/m 4,2 km/h (1 Bft) SW 232 0 min 0,000 mm 0,0 UV-I 0 W/m 11,4 C 11,7 C 6,4 km/h (2 Bft) 100,00 %
26.10.2016 03:17 11,7 C 98 % 1023,1 hPa 0,0 l/m 3,5 km/h (1 Bft) W-SW 240 0 min 0,000 mm 0,0 UV-I 0 W/m 11,4 C 11,7 C 4,8 km/h (1 Bft) 90,91 %
26.10.2016 03:18 11,7 C 98 % 1023,1 hPa 0,0 l/m 3,8 km/h (1 Bft) W-SW 241 0 min 0,000 mm 0,0 UV-I 0 W/m 11,4 C 11,7 C 6,4 km/h (2 Bft) 100,00 %
26.10.2016 03:19 11,7 C 98 % 1023,0 hPa 0,0 l/m 5,2 km/h (1 Bft) W-SW 250 0 min 0,000 mm 0,0 UV-I 0 W/m 11,4 C 11,7 C 6,4 km/h (2 Bft) 100,00 %
26.10.2016 03:20 11,6 C 98 % 1023,0 hPa 0,0 l/m 4,5 km/h (1 Bft) W-SW 256 0 min 0,000 mm 0,0 UV-I 0 W/m 11,3 C 11,6 C 6,4 km/h (2 Bft) 100,00 %
26.10.2016 03:21 11,6 C 98 % 1023,0 hPa 0,0 l/m 4,0 km/h (1 Bft) W 266 0 min 0,000 mm 0,0 UV-I 0 W/m 11,3 C 11,6 C 9,7 km/h (2 Bft) 100,00 %
26.10.2016 03:22 11,6 C 98 % 1023,1 hPa 0,0 l/m 5,3 km/h (1 Bft) W 275 0 min 0,000 mm 0,0 UV-I 0 W/m 11,3 C 11,6 C 9,7 km/h (2 Bft) 100,00 %
26.10.2016 03:23 11,6 C 98 % 1023,1 hPa 0,0 l/m 5,3 km/h (1 Bft) W-SW 254 0 min 0,000 mm 0,0 UV-I 0 W/m 11,3 C 11,6 C 11,3 km/h (2 Bft) 100,00 %
26.10.2016 03:24 11,6 C 98 % 1023,1 hPa 0,0 l/m 3,5 km/h (1 Bft) W-SW 254 0 min 0,000 mm 0,0 UV-I 0 W/m 11,3 C 11,6 C 4,8 km/h (1 Bft) 100,00 %
26.10.2016 03:25 11,6 C 98 % 1023,1 hPa 0,0 l/m 5,8 km/h (2 Bft) W-SW 255 0 min 0,000 mm 0,0 UV-I 0 W/m 11,3 C 11,6 C 11,3 km/h (2 Bft) 100,00 %
26.10.2016 03:26 11,6 C 98 % 1023,1 hPa 0,0 l/m 5,5 km/h (1 Bft) W-SW 244 0 min 0,000 mm 0,0 UV-I 0 W/m 11,3 C 11,6 C 11,3 km/h (2 Bft) 100,00 %
26.10.2016 03:27 11,6 C 98 % 1023,1 hPa 0,0 l/m 5,0 km/h (1 Bft) W 264 0 min 0,000 mm 0,0 UV-I 0 W/m 11,3 C 11,6 C 9,7 km/h (2 Bft) 100,00 %
26.10.2016 03:28 11,6 C 98 % 1023,2 hPa 0,0 l/m 5,5 km/h (1 Bft) W-SW 238 0 min 0,000 mm 0,0 UV-I 0 W/m 11,3 C 11,6 C 8,0 km/h (2 Bft) 100,00 %
26.10.2016 03:29 11,6 C 98 % 1023,1 hPa 0,0 l/m 3,7 km/h (1 Bft) W-SW 250 0 min 0,000 mm 0,0 UV-I 0 W/m 11,3 C 11,6 C 4,8 km/h (1 Bft) 100,00 %
26.10.2016 03:30 11,6 C 98 % 1023,1 hPa 0,0 l/m 3,8 km/h (1 Bft) W-SW 251 0 min 0,000 mm 0,0 UV-I 0 W/m 11,3 C 11,6 C 6,4 km/h (2 Bft) 100,00 %
26.10.2016 03:31 11,6 C 98 % 1023,1 hPa 0,0 l/m 4,2 km/h (1 Bft) W-SW 254 0 min 0,000 mm 0,0 UV-I 0 W/m 11,3 C 11,6 C 6,4 km/h (2 Bft) 100,00 %
26.10.2016 03:32 11,6 C 98 % 1023,1 hPa 0,0 l/m 4,0 km/h (1 Bft) W-SW 245 0 min 0,000 mm 0,0 UV-I 0 W/m 11,3 C 11,6 C 6,4 km/h (2 Bft) 100,00 %
26.10.2016 03:33 11,6 C 98 % 1023,2 hPa 0,0 l/m 4,7 km/h (1 Bft) W-SW 246 0 min 0,000 mm 0,0 UV-I 0 W/m 11,3 C 11,6 C 6,4 km/h (2 Bft) 100,00 %
26.10.2016 03:34 11,6 C 98 % 1023,2 hPa 0,0 l/m 4,1 km/h (1 Bft) W-SW 248 0 min 0,000 mm 0,0 UV-I 0 W/m 11,3 C 11,6 C 6,4 km/h (2 Bft) 100,00 %
26.10.2016 03:35 11,6 C 98 % 1023,2 hPa 0,0 l/m 5,1 km/h (1 Bft) W 270 0 min 0,000 mm 0,0 UV-I 0 W/m 11,3 C 11,6 C 6,4 km/h (2 Bft) 95,83 %
26.10.2016 03:36 11,6 C 98 % 1023,2 hPa 0,0 l/m 6,4 km/h (2 Bft) W-SW 256 0 min 0,000 mm 0,0 UV-I 0 W/m 11,3 C 11,6 C 9,7 km/h (2 Bft) 100,00 %
26.10.2016 03:37 11,5 C 98 % 1023,3 hPa 0,0 l/m 4,5 km/h (1 Bft) W-SW 240 0 min 0,000 mm 0,0 UV-I 0 W/m 11,2 C 11,5 C 6,4 km/h (2 Bft) 100,00 %
26.10.2016 03:38 11,6 C 98 % 1023,2 hPa 0,0 l/m 5,1 km/h (1 Bft) W-SW 241 0 min 0,000 mm 0,0 UV-I 0 W/m 11,3 C 11,6 C 6,4 km/h (2 Bft) 100,00 %
26.10.2016 03:39 11,5 C 98 % 1023,2 hPa 0,0 l/m 7,3 km/h (2 Bft) W-SW 246 0 min 0,000 mm 0,0 UV-I 0 W/m 11,2 C 10,9 C 11,3 km/h (2 Bft) 96,30 %
26.10.2016 03:40 11,5 C 98 % 1023,3 hPa 0,0 l/m 4,8 km/h (1 Bft) W 259 0 min 0,000 mm 0,0 UV-I 0 W/m 11,2 C 11,5 C 6,4 km/h (2 Bft) 100,00 %
26.10.2016 03:41 11,5 C 98 % 1023,3 hPa 0,0 l/m 5,2 km/h (1 Bft) W-SW 258 0 min 0,000 mm 0,0 UV-I 0 W/m 11,2 C 11,5 C 6,4 km/h (2 Bft) 100,00 %
26.10.2016 03:42 11,5 C 98 % 1023,3 hPa 0,0 l/m 5,5 km/h (1 Bft) W 261 0 min 0,000 mm 0,0 UV-I 0 W/m 11,2 C 11,5 C 8,0 km/h (2 Bft) 100,00 %
26.10.2016 03:43 11,5 C 98 % 1023,3 hPa 0,0 l/m 3,8 km/h (1 Bft) W-SW 244 0 min 0,000 mm 0,0 UV-I 0 W/m 11,2 C 11,5 C 6,4 km/h (2 Bft) 100,00 %
26.10.2016 03:44 11,5 C 98 % 1023,3 hPa 0,0 l/m 7,1 km/h (2 Bft) W-SW 255 0 min 0,000 mm 0,0 UV-I 0 W/m 11,2 C 11,0 C 12,9 km/h (3 Bft) 100,00 %
26.10.2016 03:45 11,5 C 98 % 1023,2 hPa 0,0 l/m 5,1 km/h (1 Bft) W-SW 245 0 min 0,000 mm 0,0 UV-I 0 W/m 11,2 C 11,5 C 11,3 km/h (2 Bft) 100,00 %
26.10.2016 03:46 11,5 C 98 % 1023,3 hPa 0,0 l/m 9,1 km/h (2 Bft) W-SW 244 0 min 0,000 mm 0,0 UV-I 0 W/m 11,2 C 9,8 C 12,9 km/h (3 Bft) 100,00 %
26.10.2016 03:47 11,5 C 98 % 1023,3 hPa 0,0 l/m 6,1 km/h (2 Bft) W-SW 250 0 min 0,000 mm 0,0 UV-I 0 W/m 11,2 C 11,5 C 9,7 km/h (2 Bft) 100,00 %
26.10.2016 03:48 11,5 C 98 % 1023,3 hPa 0,0 l/m 6,7 km/h (2 Bft) W-SW 244 0 min 0,000 mm 0,0 UV-I 0 W/m 11,2 C 11,3 C 9,7 km/h (2 Bft) 95,65 %
26.10.2016 03:49 11,5 C 98 % 1023,3 hPa 0,0 l/m 7,2 km/h (2 Bft) W-SW 251 0 min 0,000 mm 0,0 UV-I 0 W/m 11,2 C 11,0 C 12,9 km/h (3 Bft) 100,00 %
26.10.2016 03:50 11,4 C 98 % 1023,3 hPa 0,0 l/m 4,1 km/h (1 Bft) W-SW 251 0 min 0,000 mm 0,0 UV-I 0 W/m 11,1 C 11,4 C 4,8 km/h (1 Bft) 100,00 %
26.10.2016 03:51 11,4 C 98 % 1023,3 hPa 0,0 l/m 6,6 km/h (2 Bft) W-SW 249 0 min 0,000 mm 0,0 UV-I 0 W/m 11,1 C 11,3 C 11,3 km/h (2 Bft) 100,00 %
26.10.2016 03:52 11,4 C 98 % 1023,3 hPa 0,0 l/m 3,8 km/h (1 Bft) W 261 0 min 0,000 mm 0,0 UV-I 0 W/m 11,1 C 11,4 C 4,8 km/h (1 Bft) 100,00 %
26.10.2016 03:53 11,4 C 98 % 1023,3 hPa 0,0 l/m 4,1 km/h (1 Bft) W-SW 238 0 min 0,000 mm 0,0 UV-I 0 W/m 11,1 C 11,4 C 6,4 km/h (2 Bft) 100,00 %
26.10.2016 03:54 11,4 C 98 % 1023,3 hPa 0,0 l/m 4,8 km/h (1 Bft) W-SW 254 0 min 0,000 mm 0,0 UV-I 0 W/m 11,1 C 11,4 C 6,4 km/h (2 Bft) 100,00 %
26.10.2016 03:55 11,4 C 98 % 1023,3 hPa 0,0 l/m 4,2 km/h (1 Bft) W-SW 239 0 min 0,000 mm 0,0 UV-I 0 W/m 11,1 C 11,4 C 6,4 km/h (2 Bft) 100,00 %
26.10.2016 03:56 11,4 C 98 % 1023,3 hPa 0,0 l/m 5,3 km/h (1 Bft) W 273 0 min 0,000 mm 0,0 UV-I 0 W/m 11,1 C 11,4 C 9,7 km/h (2 Bft) 100,00 %
26.10.2016 03:57 11,4 C 98 % 1023,3 hPa 0,0 l/m 4,0 km/h (1 Bft) W 273 0 min 0,000 mm 0,0 UV-I 0 W/m 11,1 C 11,4 C 6,4 km/h (2 Bft) 100,00 %
26.10.2016 03:58 11,4 C 98 % 1023,3 hPa 0,0 l/m 4,1 km/h (1 Bft) SW 234 0 min 0,000 mm 0,0 UV-I 0 W/m 11,1 C 11,4 C 6,4 km/h (2 Bft) 100,00 %
26.10.2016 03:59 11,4 C 98 % 1023,3 hPa 0,0 l/m 4,2 km/h (1 Bft) W-NW 285 0 min 0,000 mm 0,0 UV-I 0 W/m 11,1 C 11,4 C 6,4 km/h (2 Bft) 100,00 %
26.10.2016 04:00 11,4 C 98 % 1023,3 hPa 0,0 l/m 3,2 km/h (1 Bft) W 268 0 min 0,000 mm 0,0 UV-I 0 W/m 11,1 C 11,4 C 4,8 km/h (1 Bft) 100,00 %
26.10.2016 04:03 11,4 C 98 % 1023,3 hPa 0,0 l/m 4,3 km/h (1 Bft) W-SW 251 0 min 0,000 mm 0,0 UV-I 0 W/m 11,1 C 11,4 C 6,4 km/h (2 Bft) 100,00 %
26.10.2016 04:05 11,3 C 98 % 1023,3 hPa 0,0 l/m 5,4 km/h (1 Bft) W 263 0 min 0,000 mm 0,0 UV-I 0 W/m 11,0 C 11,3 C 9,7 km/h (2 Bft) 100,00 %
26.10.2016 04:06 11,3 C 98 % 1023,3 hPa 0,0 l/m 3,4 km/h (1 Bft) W 263 0 min 0,000 mm 0,0 UV-I 0 W/m 11,0 C 11,3 C 4,8 km/h (1 Bft) 100,00 %
26.10.2016 04:07 11,3 C 98 % 1023,4 hPa 0,0 l/m 5,0 km/h (1 Bft) W-SW 250 0 min 0,000 mm 0,0 UV-I 0 W/m 11,0 C 11,3 C 6,4 km/h (2 Bft) 91,30 %
26.10.2016 04:08 11,3 C 98 % 1023,4 hPa 0,0 l/m 3,9 km/h (1 Bft) W-SW 250 0 min 0,000 mm 0,0 UV-I 0 W/m 11,0 C 11,3 C 6,4 km/h (2 Bft) 95,83 %
26.10.2016 04:09 11,3 C 98 % 1023,4 hPa 0,0 l/m 3,5 km/h (1 Bft) W 261 0 min 0,000 mm 0,0 UV-I 0 W/m 11,0 C 11,3 C 4,8 km/h (1 Bft) 100,00 %
26.10.2016 04:10 11,3 C 98 % 1023,4 hPa 0,0 l/m 4,5 km/h (1 Bft) W 259 0 min 0,000 mm 0,0 UV-I 0 W/m 11,0 C 11,3 C 4,8 km/h (1 Bft) 100,00 %
26.10.2016 04:11 11,3 C 98 % 1023,4 hPa 0,0 l/m 3,3 km/h (1 Bft) W-SW 250 0 min 0,000 mm 0,0 UV-I 0 W/m 11,0 C 11,3 C 4,8 km/h (1 Bft) 100,00 %
26.10.2016 04:12 11,3 C 98 % 1023,4 hPa 0,0 l/m 5,0 km/h (1 Bft) W 262 0 min 0,000 mm 0,0 UV-I 0 W/m 11,0 C 11,3 C 6,4 km/h (2 Bft) 100,00 %
26.10.2016 04:13 11,2 C 98 % 1023,4 hPa 0,0 l/m 4,5 km/h (1 Bft) W-SW 255 0 min 0,000 mm 0,0 UV-I 0 W/m 10,9 C 11,2 C 8,0 km/h (2 Bft) 100,00 %
26.10.2016 04:14 11,2 C 98 % 1023,4 hPa 0,0 l/m 3,7 km/h (1 Bft) W-SW 255 0 min 0,000 mm 0,0 UV-I 0 W/m 10,9 C 11,2 C 4,8 km/h (1 Bft) 95,65 %
26.10.2016 04:15 11,2 C 98 % 1023,5 hPa 0,0 l/m 4,6 km/h (1 Bft) W-SW 257 0 min 0,000 mm 0,0 UV-I 0 W/m 10,9 C 11,2 C 6,4 km/h (2 Bft) 100,00 %
26.10.2016 04:16 11,2 C 98 % 1023,5 hPa 0,0 l/m 4,3 km/h (1 Bft) W-NW 283 0 min 0,000 mm 0,0 UV-I 0 W/m 10,9 C 11,2 C 9,7 km/h (2 Bft) 92,31 %
26.10.2016 04:17 11,2 C 98 % 1023,5 hPa 0,0 l/m 3,0 km/h (1 Bft) W 263 0 min 0,000 mm 0,0 UV-I 0 W/m 10,9 C 11,2 C 4,8 km/h (1 Bft) 92,59 %
26.10.2016 04:18 11,2 C 98 % 1023,5 hPa 0,0 l/m 2,9 km/h (1 Bft) W 263 0 min 0,000 mm 0,0 UV-I 0 W/m 10,9 C 11,2 C 3,2 km/h (1 Bft) 100,00 %
26.10.2016 04:19 11,2 C 98 % 1023,5 hPa 0,0 l/m 3,4 km/h (1 Bft) W 262 0 min 0,000 mm 0,0 UV-I 0 W/m 10,9 C 11,2 C 4,8 km/h (1 Bft) 95,83 %
26.10.2016 04:20 11,1 C 98 % 1023,5 hPa 0,0 l/m 3,3 km/h (1 Bft) W 262 0 min 0,000 mm 0,0 UV-I 0 W/m 10,8 C 11,1 C 4,8 km/h (1 Bft) 100,00 %
26.10.2016 04:21 11,1 C 98 % 1023,5 hPa 0,0 l/m 3,4 km/h (1 Bft) W 279 0 min 0,000 mm 0,0 UV-I 0 W/m 10,8 C 11,1 C 6,4 km/h (2 Bft) 95,83 %
26.10.2016 04:22 11,1 C 98 % 1023,5 hPa 0,0 l/m 4,3 km/h (1 Bft) W-SW 258 0 min 0,000 mm 0,0 UV-I 0 W/m 10,8 C 11,1 C 6,4 km/h (2 Bft) 91,30 %
26.10.2016 04:23 11,1 C 98 % 1023,5 hPa 0,0 l/m 3,5 km/h (1 Bft) W 269 0 min 0,000 mm 0,0 UV-I 0 W/m 10,8 C 11,1 C 4,8 km/h (1 Bft) 100,00 %
26.10.2016 04:24 11,1 C 98 % 1023,5 hPa 0,0 l/m 4,2 km/h (1 Bft) W 265 0 min 0,000 mm 0,0 UV-I 0 W/m 10,8 C 11,1 C 4,8 km/h (1 Bft) 91,30 %
26.10.2016 04:25 11,0 C 98 % 1023,5 hPa 0,0 l/m 4,1 km/h (1 Bft) W-SW 254 0 min 0,000 mm 0,0 UV-I 0 W/m 10,7 C 11,0 C 4,8 km/h (1 Bft) 100,00 %
26.10.2016 04:26 11,0 C 98 % 1023,5 hPa 0,0 l/m 3,9 km/h (1 Bft) W-SW 254 0 min 0,000 mm 0,0 UV-I 0 W/m 10,7 C 11,0 C 4,8 km/h (1 Bft) 95,65 %
26.10.2016 04:27 11,0 C 98 % 1023,5 hPa 0,0 l/m 4,3 km/h (1 Bft) W 260 0 min 0,000 mm 0,0 UV-I 0 W/m 10,7 C 11,0 C 4,8 km/h (1 Bft) 100,00 %
26.10.2016 04:28 10,9 C 98 % 1023,5 hPa 0,0 l/m 4,5 km/h (1 Bft) W 260 0 min 0,000 mm 0,0 UV-I 0 W/m 10,6 C 10,9 C 6,4 km/h (2 Bft) 96,15 %
26.10.2016 04:29 10,9 C 98 % 1023,5 hPa 0,0 l/m 3,5 km/h (1 Bft) W 260 0 min 0,000 mm 0,0 UV-I 0 W/m 10,6 C 10,9 C 4,8 km/h (1 Bft) 100,00 %
26.10.2016 04:30 10,9 C 98 % 1023,5 hPa 0,0 l/m 4,2 km/h (1 Bft) W 260 0 min 0,000 mm 0,0 UV-I 0 W/m 10,6 C 10,9 C 4,8 km/h (1 Bft) 95,83 %
26.10.2016 04:31 10,9 C 98 % 1023,5 hPa 0,0 l/m 3,9 km/h (1 Bft) W 260 0 min 0,000 mm 0,0 UV-I 0 W/m 10,6 C 10,9 C 4,8 km/h (1 Bft) 100,00 %
26.10.2016 04:32 10,9 C 98 % 1023,6 hPa 0,0 l/m 5,5 km/h (1 Bft) W-SW 238 0 min 0,000 mm 0,0 UV-I 0 W/m 10,6 C 10,9 C 8,0 km/h (2 Bft) 96,30 %
26.10.2016 04:33 10,9 C 98 % 1023,6 hPa 0,0 l/m 4,1 km/h (1 Bft) SW 230 0 min 0,000 mm 0,0 UV-I 0 W/m 10,6 C 10,9 C 6,4 km/h (2 Bft) 96,15 %
26.10.2016 04:34 10,9 C 98 % 1023,6 hPa 0,0 l/m 5,5 km/h (1 Bft) W 259 0 min 0,000 mm 0,0 UV-I 0 W/m 10,6 C 10,9 C 9,7 km/h (2 Bft) 100,00 %
26.10.2016 04:35 10,9 C 98 % 1023,6 hPa 0,0 l/m 4,8 km/h (1 Bft) W-SW 241 0 min 0,000 mm 0,0 UV-I 0 W/m 10,6 C 10,9 C 6,4 km/h (2 Bft) 96,55 %
26.10.2016 04:36 10,9 C 98 % 1023,6 hPa 0,0 l/m 3,8 km/h (1 Bft) W-SW 251 0 min 0,000 mm 0,0 UV-I 0 W/m 10,6 C 10,9 C 4,8 km/h (1 Bft) 95,83 %
26.10.2016 04:37 10,9 C 98 % 1023,6 hPa 0,0 l/m 2,6 km/h (1 Bft) W-SW 251 0 min 0,000 mm 0,0 UV-I 0 W/m 10,6 C 10,9 C 4,8 km/h (1 Bft) 95,65 %
26.10.2016 04:38 10,9 C 98 % 1023,6 hPa 0,0 l/m 3,0 km/h (1 Bft) W-SW 248 0 min 0,000 mm 0,0 UV-I 0 W/m 10,6 C 10,9 C 4,8 km/h (1 Bft) 100,00 %
26.10.2016 04:39 10,9 C 98 % 1023,6 hPa 0,0 l/m 3,6 km/h (1 Bft) W-SW 248 0 min 0,000 mm 0,0 UV-I 0 W/m 10,6 C 10,9 C 4,8 km/h (1 Bft) 95,65 %
26.10.2016 04:40 10,9 C 98 % 1023,7 hPa 0,0 l/m 4,1 km/h (1 Bft) W-SW 248 0 min 0,000 mm 0,0 UV-I 0 W/m 10,6 C 10,9 C 4,8 km/h (1 Bft) 96,00 %
26.10.2016 04:41 10,9 C 98 % 1023,7 hPa 0,0 l/m 3,9 km/h (1 Bft) W 263 0 min 0,000 mm 0,0 UV-I 0 W/m 10,6 C 10,9 C 4,8 km/h (1 Bft) 100,00 %
26.10.2016 04:42 10,9 C 98 % 1023,7 hPa 0,0 l/m 4,4 km/h (1 Bft) W 281 0 min 0,000 mm 0,0 UV-I 0 W/m 10,6 C 10,9 C 4,8 km/h (1 Bft) 95,83 %
26.10.2016 04:43 10,9 C 98 % 1023,7 hPa 0,0 l/m 3,7 km/h (1 Bft) W 281 0 min 0,000 mm 0,0 UV-I 0 W/m 10,6 C 10,9 C 4,8 km/h (1 Bft) 100,00 %
26.10.2016 04:44 10,9 C 98 % 1023,7 hPa 0,0 l/m 4,3 km/h (1 Bft) W 281 0 min 0,000 mm 0,0 UV-I 0 W/m 10,6 C 10,9 C 4,8 km/h (1 Bft) 96,30 %
26.10.2016 04:45 10,9 C 98 % 1023,8 hPa 0,0 l/m 6,5 km/h (2 Bft) W 261 0 min 0,000 mm 0,0 UV-I 0 W/m 10,6 C 10,9 C 11,3 km/h (2 Bft) 100,00 %
26.10.2016 04:46 10,9 C 98 % 1023,8 hPa 0,0 l/m 7,2 km/h (2 Bft) W-SW 244 0 min 0,000 mm 0,0 UV-I 0 W/m 10,6 C 10,3 C 9,7 km/h (2 Bft) 93,33 %
26.10.2016 04:47 10,9 C 98 % 1023,7 hPa 0,0 l/m 5,4 km/h (1 Bft) W-SW 245 0 min 0,000 mm 0,0 UV-I 0 W/m 10,6 C 10,9 C 6,4 km/h (2 Bft) 100,00 %
26.10.2016 04:48 10,9 C 98 % 1023,7 hPa 0,0 l/m 4,5 km/h (1 Bft) W 263 0 min 0,000 mm 0,0 UV-I 0 W/m 10,6 C 10,9 C 6,4 km/h (2 Bft) 100,00 %
26.10.2016 04:49 10,9 C 98 % 1023,8 hPa 0,0 l/m 4,1 km/h (1 Bft) W 263 0 min 0,000 mm 0,0 UV-I 0 W/m 10,6 C 10,9 C 6,4 km/h (2 Bft) 96,30 %
26.10.2016 04:50 10,9 C 98 % 1023,7 hPa 0,0 l/m 4,5 km/h (1 Bft) W-SW 256 0 min 0,000 mm 0,0 UV-I 0 W/m 10,6 C 10,9 C 6,4 km/h (2 Bft) 100,00 %
26.10.2016 04:51 10,9 C 98 % 1023,8 hPa 0,0 l/m 4,2 km/h (1 Bft) W-SW 256 0 min 0,000 mm 0,0 UV-I 0 W/m 10,6 C 10,9 C 6,4 km/h (2 Bft) 95,83 %
26.10.2016 04:52 10,9 C 98 % 1023,8 hPa 0,0 l/m 4,5 km/h (1 Bft) W-SW 250 0 min 0,000 mm 0,0 UV-I 0 W/m 10,6 C 10,9 C 6,4 km/h (2 Bft) 100,00 %
26.10.2016 04:53 10,9 C 98 % 1023,8 hPa 0,0 l/m 4,5 km/h (1 Bft) W-SW 253 0 min 0,000 mm 0,0 UV-I 0 W/m 10,6 C 10,9 C 6,4 km/h (2 Bft) 100,00 %
26.10.2016 04:54 10,9 C 98 % 1023,8 hPa 0,0 l/m 6,0 km/h (2 Bft) W-SW 253 0 min 0,000 mm 0,0 UV-I 0 W/m 10,6 C 10,9 C 11,3 km/h (2 Bft) 100,00 %
26.10.2016 04:55 10,9 C 98 % 1023,8 hPa 0,0 l/m 5,3 km/h (1 Bft) W 263 0 min 0,000 mm 0,0 UV-I 0 W/m 10,6 C 10,9 C 6,4 km/h (2 Bft) 100,00 %
26.10.2016 04:56 10,9 C 98 % 1023,8 hPa 0,0 l/m 6,4 km/h (2 Bft) W 262 0 min 0,000 mm 0,0 UV-I 0 W/m 10,6 C 10,9 C 9,7 km/h (2 Bft) 96,15 %
26.10.2016 04:57 10,9 C 98 % 1023,8 hPa 0,0 l/m 4,6 km/h (1 Bft) W 262 0 min 0,000 mm 0,0 UV-I 0 W/m 10,6 C 10,9 C 6,4 km/h (2 Bft) 100,00 %
26.10.2016 04:58 10,9 C 98 % 1023,8 hPa 0,0 l/m 4,4 km/h (1 Bft) W 262 0 min 0,000 mm 0,0 UV-I 0 W/m 10,6 C 10,9 C 6,4 km/h (2 Bft) 100,00 %
26.10.2016 04:59 10,9 C 98 % 1023,8 hPa 0,0 l/m 6,5 km/h (2 Bft) W-SW 241 0 min 0,000 mm 0,0 UV-I 0 W/m 10,6 C 10,9 C 8,0 km/h (2 Bft) 96,30 %
26.10.2016 05:00 10,9 C 98 % 1023,8 hPa 0,0 l/m 5,2 km/h (1 Bft) W-SW 252 0 min 0,000 mm 0,0 UV-I 0 W/m 10,6 C 10,9 C 6,4 km/h (2 Bft) 100,00 %
26.10.2016 05:01 10,9 C 98 % 1023,8 hPa 0,0 l/m 4,3 km/h (1 Bft) W-SW 242 0 min 0,000 mm 0,0 UV-I 0 W/m 10,6 C 10,9 C 4,8 km/h (1 Bft) 100,00 %
26.10.2016 05:02 10,9 C 98 % 1023,8 hPa 0,0 l/m 4,5 km/h (1 Bft) SW 233 0 min 0,000 mm 0,0 UV-I 0 W/m 10,6 C 10,9 C 6,4 km/h (2 Bft) 100,00 %
26.10.2016 05:03 10,9 C 98 % 1023,8 hPa 0,0 l/m 4,7 km/h (1 Bft) W-SW 239 0 min 0,000 mm 0,0 UV-I 0 W/m 10,6 C 10,9 C 6,4 km/h (2 Bft) 100,00 %
26.10.2016 05:04 10,9 C 98 % 1023,8 hPa 0,0 l/m 5,0 km/h (1 Bft) SW 231 0 min 0,000 mm 0,0 UV-I 0 W/m 10,6 C 10,9 C 6,4 km/h (2 Bft) 100,00 %
26.10.2016 05:05 10,9 C 98 % 1023,8 hPa 0,0 l/m 5,0 km/h (1 Bft) W 271 0 min 0,000 mm 0,0 UV-I 0 W/m 10,6 C 10,9 C 8,0 km/h (2 Bft) 100,00 %
26.10.2016 05:06 10,9 C 98 % 1023,7 hPa 0,0 l/m 4,6 km/h (1 Bft) W 265 0 min 0,000 mm 0,0 UV-I 0 W/m 10,6 C 10,9 C 9,7 km/h (2 Bft) 95,65 %
26.10.2016 05:07 10,9 C 98 % 1023,7 hPa 0,0 l/m 5,7 km/h (1 Bft) W-SW 254 0 min 0,000 mm 0,0 UV-I 0 W/m 10,6 C 10,9 C 8,0 km/h (2 Bft) 100,00 %
26.10.2016 05:08 10,9 C 98 % 1023,8 hPa 0,0 l/m 4,2 km/h (1 Bft) W 260 0 min 0,000 mm 0,0 UV-I 0 W/m 10,6 C 10,9 C 6,4 km/h (2 Bft) 100,00 %
26.10.2016 05:09 10,9 C 98 % 1023,7 hPa 0,0 l/m 5,9 km/h (2 Bft) W-SW 253 0 min 0,000 mm 0,0 UV-I 0 W/m 10,6 C 10,9 C 9,7 km/h (2 Bft) 100,00 %
26.10.2016 05:10 10,9 C 98 % 1023,8 hPa 0,0 l/m 4,4 km/h (1 Bft) W 260 0 min 0,000 mm 0,0 UV-I 0 W/m 10,6 C 10,9 C 8,0 km/h (2 Bft) 100,00 %
26.10.2016 05:11 10,9 C 98 % 1023,8 hPa 0,0 l/m 5,0 km/h (1 Bft) W 259 0 min 0,000 mm 0,0 UV-I 0 W/m 10,6 C 10,9 C 9,7 km/h (2 Bft) 100,00 %
26.10.2016 05:12 10,9 C 98 % 1023,8 hPa 0,0 l/m 5,7 km/h (1 Bft) W-SW 242 0 min 0,000 mm 0,0 UV-I 0 W/m 10,6 C 10,9 C 6,4 km/h (2 Bft) 100,00 %
26.10.2016 05:13 10,9 C 98 % 1023,8 hPa 0,0 l/m 4,3 km/h (1 Bft) W-SW 242 0 min 0,000 mm 0,0 UV-I 0 W/m 10,6 C 10,9 C 6,4 km/h (2 Bft) 100,00 %
26.10.2016 05:14 10,9 C 98 % 1023,8 hPa 0,0 l/m 3,6 km/h (1 Bft) W-SW 242 0 min 0,000 mm 0,0 UV-I 0 W/m 10,6 C 10,9 C 4,8 km/h (1 Bft) 100,00 %
26.10.2016 05:15 10,9 C 98 % 1023,8 hPa 0,0 l/m 5,1 km/h (1 Bft) W-SW 254 0 min 0,000 mm 0,0 UV-I 0 W/m 10,6 C 10,9 C 6,4 km/h (2 Bft) 100,00 %
26.10.2016 05:16 10,9 C 98 % 1023,8 hPa 0,0 l/m 4,4 km/h (1 Bft) W 261 0 min 0,000 mm 0,0 UV-I 0 W/m 10,6 C 10,9 C 6,4 km/h (2 Bft) 100,00 %
26.10.2016 05:17 10,9 C 98 % 1023,8 hPa 0,0 l/m 6,6 km/h (2 Bft) W-SW 247 0 min 0,000 mm 0,0 UV-I 0 W/m 10,6 C 10,8 C 11,3 km/h (2 Bft) 100,00 %
26.10.2016 05:18 10,9 C 98 % 1023,8 hPa 0,0 l/m 4,3 km/h (1 Bft) W-SW 256 0 min 0,000 mm 0,0 UV-I 0 W/m 10,6 C 10,9 C 6,4 km/h (2 Bft) 100,00 %
26.10.2016 05:19 10,9 C 98 % 1023,8 hPa 0,0 l/m 5,7 km/h (1 Bft) W-SW 253 0 min 0,000 mm 0,0 UV-I 0 W/m 10,6 C 10,9 C 8,0 km/h (2 Bft) 100,00 %
26.10.2016 05:20 10,9 C 98 % 1023,8 hPa 0,0 l/m 4,2 km/h (1 Bft) W-SW 241 0 min 0,000 mm 0,0 UV-I 0 W/m 10,6 C 10,9 C 6,4 km/h (2 Bft) 100,00 %
26.10.2016 05:21 10,9 C 98 % 1023,8 hPa 0,0 l/m 4,2 km/h (1 Bft) W 267 0 min 0,000 mm 0,0 UV-I 0 W/m 10,6 C 10,9 C 4,8 km/h (1 Bft) 100,00 %
26.10.2016 05:22 10,9 C 98 % 1023,9 hPa 0,0 l/m 4,7 km/h (1 Bft) W-SW 254 0 min 0,000 mm 0,0 UV-I 0 W/m 10,6 C 10,9 C 6,4 km/h (2 Bft) 100,00 %
26.10.2016 05:23 10,8 C 98 % 1023,9 hPa 0,0 l/m 6,6 km/h (2 Bft) W-SW 240 0 min 0,000 mm 0,0 UV-I 0 W/m 10,5 C 10,7 C 9,7 km/h (2 Bft) 100,00 %
26.10.2016 05:24 10,9 C 98 % 1023,9 hPa 0,0 l/m 5,6 km/h (1 Bft) W-SW 257 0 min 0,000 mm 0,0 UV-I 0 W/m 10,6 C 10,9 C 6,4 km/h (2 Bft) 100,00 %
26.10.2016 05:25 10,9 C 98 % 1023,9 hPa 0,0 l/m 5,0 km/h (1 Bft) W-SW 250 0 min 0,000 mm 0,0 UV-I 0 W/m 10,6 C 10,9 C 6,4 km/h (2 Bft) 100,00 %
26.10.2016 05:26 10,8 C 98 % 1023,9 hPa 0,0 l/m 5,0 km/h (1 Bft) W-SW 250 0 min 0,000 mm 0,0 UV-I 0 W/m 10,5 C 10,8 C 6,4 km/h (2 Bft) 100,00 %
26.10.2016 05:27 10,8 C 98 % 1023,9 hPa 0,0 l/m 5,1 km/h (1 Bft) SW 236 0 min 0,000 mm 0,0 UV-I 0 W/m 10,5 C 10,8 C 6,4 km/h (2 Bft) 100,00 %
26.10.2016 05:28 10,8 C 98 % 1024,0 hPa 0,0 l/m 5,5 km/h (1 Bft) W-SW 240 0 min 0,000 mm 0,0 UV-I 0 W/m 10,5 C 10,8 C 6,4 km/h (2 Bft) 100,00 %
26.10.2016 05:29 10,8 C 98 % 1023,9 hPa 0,0 l/m 4,4 km/h (1 Bft) W-SW 240 0 min 0,000 mm 0,0 UV-I 0 W/m 10,5 C 10,8 C 6,4 km/h (2 Bft) 100,00 %
26.10.2016 05:30 10,8 C 98 % 1024,0 hPa 0,0 l/m 5,2 km/h (1 Bft) W-SW 257 0 min 0,000 mm 0,0 UV-I 0 W/m 10,5 C 10,8 C 9,7 km/h (2 Bft) 100,00 %
26.10.2016 05:31 10,8 C 98 % 1023,9 hPa 0,0 l/m 5,0 km/h (1 Bft) W-SW 246 0 min 0,000 mm 0,0 UV-I 0 W/m 10,5 C 10,8 C 6,4 km/h (2 Bft) 100,00 %
26.10.2016 05:32 10,8 C 98 % 1024,0 hPa 0,0 l/m 4,7 km/h (1 Bft) SW 227 0 min 0,000 mm 0,0 UV-I 0 W/m 10,5 C 10,8 C 6,4 km/h (2 Bft) 100,00 %
26.10.2016 05:33 10,8 C 98 % 1024,0 hPa 0,0 l/m 5,2 km/h (1 Bft) W-SW 241 0 min 0,000 mm 0,0 UV-I 0 W/m 10,5 C 10,8 C 9,7 km/h (2 Bft) 100,00 %
26.10.2016 05:34 10,8 C 98 % 1023,9 hPa 0,0 l/m 6,2 km/h (2 Bft) SW 231 0 min 0,000 mm 0,0 UV-I 0 W/m 10,5 C 10,8 C 8,0 km/h (2 Bft) 100,00 %
26.10.2016 05:35 10,8 C 98 % 1023,9 hPa 0,0 l/m 4,8 km/h (1 Bft) W-SW 238 0 min 0,000 mm 0,0 UV-I 0 W/m 10,5 C 10,8 C 6,4 km/h (2 Bft) 100,00 %
26.10.2016 05:36 10,8 C 98 % 1024,0 hPa 0,0 l/m 6,5 km/h (2 Bft) W-SW 250 0 min 0,000 mm 0,0 UV-I 0 W/m 10,5 C 10,8 C 11,3 km/h (2 Bft) 95,65 %
26.10.2016 05:37 10,8 C 98 % 1024,0 hPa 0,0 l/m 4,8 km/h (1 Bft) SW 234 0 min 0,000 mm 0,0 UV-I 0 W/m 10,5 C 10,8 C 6,4 km/h (2 Bft) 100,00 %
26.10.2016 05:38 10,8 C 98 % 1024,0 hPa 0,0 l/m 6,2 km/h (2 Bft) S-SW 209 0 min 0,000 mm 0,0 UV-I 0 W/m 10,5 C 10,8 C 9,7 km/h (2 Bft) 100,00 %
26.10.2016 05:39 10,7 C 98 % 1023,9 hPa 0,0 l/m 5,0 km/h (1 Bft) W-SW 251 0 min 0,000 mm 0,0 UV-I 0 W/m 10,4 C 10,7 C 8,0 km/h (2 Bft) 100,00 %
26.10.2016 05:40 10,7 C 98 % 1024,0 hPa 0,0 l/m 6,2 km/h (2 Bft) SW 227 0 min 0,000 mm 0,0 UV-I 0 W/m 10,4 C 10,7 C 8,0 km/h (2 Bft) 96,15 %
26.10.2016 05:41 10,7 C 98 % 1024,0 hPa 0,0 l/m 7,0 km/h (2 Bft) S-SW 211 0 min 0,000 mm 0,0 UV-I 0 W/m 10,4 C 10,3 C 9,7 km/h (2 Bft) 100,00 %
26.10.2016 05:42 10,7 C 98 % 1024,0 hPa 0,0 l/m 5,3 km/h (1 Bft) SW 235 0 min 0,000 mm 0,0 UV-I 0 W/m 10,4 C 10,7 C 8,0 km/h (2 Bft) 100,00 %
26.10.2016 05:43 10,7 C 98 % 1024,0 hPa 0,0 l/m 5,6 km/h (1 Bft) W-SW 242 0 min 0,000 mm 0,0 UV-I 0 W/m 10,4 C 10,7 C 9,7 km/h (2 Bft) 100,00 %
26.10.2016 05:44 10,7 C 98 % 1024,0 hPa 0,0 l/m 5,2 km/h (1 Bft) SW 216 0 min 0,000 mm 0,0 UV-I 0 W/m 10,4 C 10,7 C 8,0 km/h (2 Bft) 100,00 %
26.10.2016 05:45 10,7 C 98 % 1024,0 hPa 0,0 l/m 6,0 km/h (2 Bft) SW 231 0 min 0,000 mm 0,0 UV-I 0 W/m 10,4 C 10,7 C 8,0 km/h (2 Bft) 100,00 %
26.10.2016 05:46 10,6 C 98 % 1024,0 hPa 0,0 l/m 8,4 km/h (2 Bft) SW 221 0 min 0,000 mm 0,0 UV-I 0 W/m 10,3 C 9,2 C 11,3 km/h (2 Bft) 93,33 %
26.10.2016 05:47 10,6 C 98 % 1024,0 hPa 0,0 l/m 6,8 km/h (2 Bft) SW 219 0 min 0,000 mm 0,0 UV-I 0 W/m 10,3 C 10,3 C 8,0 km/h (2 Bft) 100,00 %
26.10.2016 05:48 10,6 C 98 % 1024,0 hPa 0,0 l/m 6,8 km/h (2 Bft) SW 229 0 min 0,000 mm 0,0 UV-I 0 W/m 10,3 C 10,3 C 11,3 km/h (2 Bft) 100,00 %
26.10.2016 05:49 10,6 C 98 % 1024,0 hPa 0,0 l/m 6,3 km/h (2 Bft) W-SW 250 0 min 0,000 mm 0,0 UV-I 0 W/m 10,3 C 10,6 C 8,0 km/h (2 Bft) 100,00 %
26.10.2016 05:50 10,6 C 98 % 1024,0 hPa 0,0 l/m 7,1 km/h (2 Bft) W-SW 240 0 min 0,000 mm 0,0 UV-I 0 W/m 10,3 C 10,1 C 9,7 km/h (2 Bft) 95,83 %
26.10.2016 05:51 10,6 C 98 % 1024,0 hPa 0,0 l/m 8,4 km/h (2 Bft) SW 217 0 min 0,000 mm 0,0 UV-I 0 W/m 10,3 C 9,2 C 11,3 km/h (2 Bft) 95,65 %
26.10.2016 05:52 10,6 C 98 % 1024,0 hPa 0,0 l/m 6,6 km/h (2 Bft) SW 236 0 min 0,000 mm 0,0 UV-I 0 W/m 10,3 C 10,5 C 11,3 km/h (2 Bft) 100,00 %
26.10.2016 05:53 10,6 C 98 % 1024,0 hPa 0,0 l/m 6,8 km/h (2 Bft) SW 217 0 min 0,000 mm 0,0 UV-I 0 W/m 10,3 C 10,3 C 12,9 km/h (3 Bft) 95,65 %
26.10.2016 05:54 10,6 C 98 % 1024,0 hPa 0,0 l/m 6,6 km/h (2 Bft) S-SW 192 0 min 0,000 mm 0,0 UV-I 0 W/m 10,3 C 10,5 C 8,0 km/h (2 Bft) 100,00 %
26.10.2016 05:55 10,6 C 98 % 1024,1 hPa 0,0 l/m 7,6 km/h (2 Bft) SW 236 0 min 0,000 mm 0,0 UV-I 0 W/m 10,3 C 9,8 C 12,9 km/h (3 Bft) 100,00 %
26.10.2016 05:56 10,6 C 98 % 1024,1 hPa 0,0 l/m 4,8 km/h (1 Bft) SW 225 0 min 0,000 mm 0,0 UV-I 0 W/m 10,3 C 10,6 C 6,4 km/h (2 Bft) 100,00 %
26.10.2016 05:57 10,6 C 98 % 1024,1 hPa 0,0 l/m 5,7 km/h (1 Bft) SW 229 0 min 0,000 mm 0,0 UV-I 0 W/m 10,3 C 10,6 C 8,0 km/h (2 Bft) 100,00 %
26.10.2016 05:58 10,5 C 98 % 1024,1 hPa 0,0 l/m 6,8 km/h (2 Bft) W-SW 246 0 min 0,000 mm 0,0 UV-I 0 W/m 10,2 C 10,2 C 11,3 km/h (2 Bft) 100,00 %
26.10.2016 05:59 10,5 C 98 % 1024,0 hPa 0,0 l/m 6,6 km/h (2 Bft) W-SW 238 0 min 0,000 mm 0,0 UV-I 0 W/m 10,2 C 10,4 C 9,7 km/h (2 Bft) 100,00 %
26.10.2016 06:00 10,5 C 98 % 1024,0 hPa 0,0 l/m 6,0 km/h (2 Bft) SW 235 0 min 0,000 mm 0,0 UV-I 0 W/m 10,2 C 10,5 C 8,0 km/h (2 Bft) 96,30 %
26.10.2016 06:01 10,5 C 98 % 1024,0 hPa 0,0 l/m 7,8 km/h (2 Bft) SW 229 0 min 0,000 mm 0,0 UV-I 0 W/m 10,2 C 9,5 C 11,3 km/h (2 Bft) 95,65 %
26.10.2016 06:02 10,5 C 98 % 1024,0 hPa 0,0 l/m 6,1 km/h (2 Bft) W-SW 245 0 min 0,000 mm 0,0 UV-I 0 W/m 10,2 C 10,5 C 11,3 km/h (2 Bft) 100,00 %
26.10.2016 06:03 10,5 C 98 % 1023,9 hPa 0,0 l/m 6,4 km/h (2 Bft) W-SW 251 0 min 0,000 mm 0,0 UV-I 0 W/m 10,2 C 10,5 C 9,7 km/h (2 Bft) 100,00 %
26.10.2016 06:04 10,5 C 98 % 1024,0 hPa 0,0 l/m 7,0 km/h (2 Bft) SW 215 0 min 0,000 mm 0,0 UV-I 0 W/m 10,2 C 10,1 C 11,3 km/h (2 Bft) 100,00 %
26.10.2016 06:05 10,5 C 98 % 1024,0 hPa 0,0 l/m 5,0 km/h (1 Bft) SW 231 0 min 0,000 mm 0,0 UV-I 0 W/m 10,2 C 10,5 C 6,4 km/h (2 Bft) 100,00 %
26.10.2016 06:06 10,5 C 98 % 1024,0 hPa 0,0 l/m 6,6 km/h (2 Bft) SW 231 0 min 0,000 mm 0,0 UV-I 0 W/m 10,2 C 10,4 C 8,0 km/h (2 Bft) 100,00 %
26.10.2016 06:07 10,5 C 98 % 1024,0 hPa 0,0 l/m 5,3 km/h (1 Bft) S-SW 205 0 min 0,000 mm 0,0 UV-I 0 W/m 10,2 C 10,5 C 8,0 km/h (2 Bft) 100,00 %
26.10.2016 06:08 10,4 C 98 % 1024,0 hPa 0,0 l/m 5,6 km/h (1 Bft) SW 225 0 min 0,000 mm 0,0 UV-I 0 W/m 10,1 C 10,4 C 9,7 km/h (2 Bft) 100,00 %
26.10.2016 06:09 10,4 C 98 % 1024,0 hPa 0,0 l/m 4,5 km/h (1 Bft) S-SW 209 0 min 0,000 mm 0,0 UV-I 0 W/m 10,1 C 10,4 C 6,4 km/h (2 Bft) 100,00 %
26.10.2016 06:10 10,4 C 98 % 1024,0 hPa 0,0 l/m 5,7 km/h (1 Bft) SW 221 0 min 0,000 mm 0,0 UV-I 0 W/m 10,1 C 10,4 C 8,0 km/h (2 Bft) 100,00 %
26.10.2016 06:11 10,4 C 98 % 1024,0 hPa 0,0 l/m 5,0 km/h (1 Bft) SW 236 0 min 0,000 mm 0,0 UV-I 0 W/m 10,1 C 10,4 C 6,4 km/h (2 Bft) 100,00 %
26.10.2016 06:12 10,4 C 98 % 1024,0 hPa 0,0 l/m 3,9 km/h (1 Bft) SW 229 0 min 0,000 mm 0,0 UV-I 0 W/m 10,1 C 10,4 C 4,8 km/h (1 Bft) 100,00 %
26.10.2016 06:13 10,4 C 98 % 1024,0 hPa 0,0 l/m 2,3 km/h (1 Bft) SW 229 0 min 0,000 mm 0,0 UV-I 0 W/m 10,1 C 10,4 C 4,8 km/h (1 Bft) 100,00 %
26.10.2016 06:14 10,4 C 98 % 1024,1 hPa 0,0 l/m 4,2 km/h (1 Bft) SW 229 0 min 0,000 mm 0,0 UV-I 0 W/m 10,1 C 10,4 C 4,8 km/h (1 Bft) 100,00 %
26.10.2016 06:15 10,4 C 97 % 1024,1 hPa 0,0 l/m 3,6 km/h (1 Bft) SW 234 0 min 0,000 mm 0,0 UV-I 0 W/m 9,9 C 10,4 C 4,8 km/h (1 Bft) 100,00 %
26.10.2016 06:16 10,4 C 97 % 1024,1 hPa 0,0 l/m 3,9 km/h (1 Bft) SW 234 0 min 0,000 mm 0,0 UV-I 0 W/m 9,9 C 10,4 C 4,8 km/h (1 Bft) 100,00 %
26.10.2016 06:17 10,4 C 97 % 1024,0 hPa 0,0 l/m 3,2 km/h (1 Bft) SW 219 0 min 0,000 mm 0,0 UV-I 0 W/m 9,9 C 10,4 C 6,4 km/h (2 Bft) 96,67 %
26.10.2016 06:18 10,4 C 97 % 1024,1 hPa 0,0 l/m 4,7 km/h (1 Bft) W-SW 246 0 min 0,000 mm 0,0 UV-I 0 W/m 9,9 C 10,4 C 6,4 km/h (2 Bft) 100,00 %
26.10.2016 06:19 10,4 C 97 % 1024,1 hPa 0,0 l/m 2,2 km/h (1 Bft) W-SW 246 0 min 0,000 mm 0,0 UV-I 0 W/m 9,9 C 10,4 C 3,2 km/h (1 Bft) 95,83 %
26.10.2016 06:20 10,4 C 97 % 1024,0 hPa 0,0 l/m 2,7 km/h (1 Bft) W-SW 246 0 min 0,000 mm 0,0 UV-I 0 W/m 9,9 C 10,4 C 3,2 km/h (1 Bft) 100,00 %
26.10.2016 06:21 10,4 C 97 % 1024,1 hPa 0,0 l/m 3,0 km/h (1 Bft) W-SW 248 0 min 0,000 mm 0,0 UV-I 0 W/m 9,9 C 10,4 C 3,2 km/h (1 Bft) 95,83 %
26.10.2016 06:22 10,4 C 97 % 1024,1 hPa 0,0 l/m 4,1 km/h (1 Bft) W-SW 247 0 min 0,000 mm 0,0 UV-I 0 W/m 9,9 C 10,4 C 6,4 km/h (2 Bft) 96,15 %
26.10.2016 06:23 10,4 C 97 % 1024,1 hPa 0,0 l/m 3,8 km/h (1 Bft) W-SW 250 0 min 0,000 mm 0,0 UV-I 0 W/m 9,9 C 10,4 C 4,8 km/h (1 Bft) 100,00 %
26.10.2016 06:24 10,4 C 97 % 1024,1 hPa 0,0 l/m 3,7 km/h (1 Bft) W-SW 254 0 min 0,000 mm 0,0 UV-I 0 W/m 9,9 C 10,4 C 4,8 km/h (1 Bft) 100,00 %
26.10.2016 06:25 10,4 C 97 % 1024,1 hPa 0,0 l/m 4,0 km/h (1 Bft) W-SW 254 0 min 0,000 mm 0,0 UV-I 0 W/m 9,9 C 10,4 C 4,8 km/h (1 Bft) 96,30 %
26.10.2016 06:26 10,4 C 97 % 1024,1 hPa 0,0 l/m 5,2 km/h (1 Bft) W-SW 256 0 min 0,000 mm 0,0 UV-I 0 W/m 9,9 C 10,4 C 8,0 km/h (2 Bft) 96,15 %
26.10.2016 06:27 10,4 C 97 % 1024,1 hPa 0,0 l/m 5,8 km/h (2 Bft) W-SW 256 0 min 0,000 mm 0,0 UV-I 0 W/m 9,9 C 10,4 C 8,0 km/h (2 Bft) 100,00 %
26.10.2016 06:28 10,4 C 97 % 1024,1 hPa 0,0 l/m 4,1 km/h (1 Bft) W-SW 256 0 min 0,000 mm 0,0 UV-I 0 W/m 9,9 C 10,4 C 4,8 km/h (1 Bft) 96,67 %
26.10.2016 06:29 10,4 C 97 % 1024,1 hPa 0,0 l/m 3,6 km/h (1 Bft) W 265 0 min 0,000 mm 0,0 UV-I 0 W/m 9,9 C 10,4 C 6,4 km/h (2 Bft) 100,00 %
26.10.2016 06:30 10,4 C 97 % 1024,2 hPa 0,0 l/m 3,5 km/h (1 Bft) W 261 0 min 0,000 mm 0,0 UV-I 0 W/m 9,9 C 10,4 C 6,4 km/h (2 Bft) 96,15 %
26.10.2016 06:31 10,4 C 97 % 1024,1 hPa 0,0 l/m 3,5 km/h (1 Bft) W 261 0 min 0,000 mm 0,0 UV-I 0 W/m 9,9 C 10,4 C 4,8 km/h (1 Bft) 95,83 %
26.10.2016 06:32 10,4 C 97 % 1024,1 hPa 0,0 l/m 3,8 km/h (1 Bft) W 260 0 min 0,000 mm 0,0 UV-I 0 W/m 9,9 C 10,4 C 6,4 km/h (2 Bft) 100,00 %
26.10.2016 06:33 10,4 C 97 % 1024,2 hPa 0,0 l/m 4,5 km/h (1 Bft) W-SW 258 0 min 0,000 mm 0,0 UV-I 0 W/m 9,9 C 10,4 C 6,4 km/h (2 Bft) 100,00 %
26.10.2016 06:34 10,4 C 97 % 1024,2 hPa 0,0 l/m 5,3 km/h (1 Bft) W-SW 254 0 min 0,000 mm 0,0 UV-I 0 W/m 9,9 C 10,4 C 6,4 km/h (2 Bft) 96,30 %
26.10.2016 06:35 10,4 C 97 % 1024,2 hPa 0,0 l/m 5,1 km/h (1 Bft) W-SW 244 0 min 0,000 mm 0,0 UV-I 0 W/m 9,9 C 10,4 C 6,4 km/h (2 Bft) 96,15 %
26.10.2016 06:36 10,4 C 97 % 1024,2 hPa 0,0 l/m 3,8 km/h (1 Bft) W-SW 250 0 min 0,000 mm 0,0 UV-I 0 W/m 9,9 C 10,4 C 4,8 km/h (1 Bft) 100,00 %
26.10.2016 06:37 10,4 C 97 % 1024,2 hPa 0,0 l/m 4,7 km/h (1 Bft) W-SW 257 0 min 0,000 mm 0,0 UV-I 0 W/m 9,9 C 10,4 C 6,4 km/h (2 Bft) 95,65 %
26.10.2016 06:38 10,4 C 97 % 1024,2 hPa 0,0 l/m 5,6 km/h (1 Bft) W 262 0 min 0,000 mm 0,0 UV-I 0 W/m 9,9 C 10,4 C 9,7 km/h (2 Bft) 96,30 %
26.10.2016 06:39 10,4 C 97 % 1024,2 hPa 0,0 l/m 4,6 km/h (1 Bft) W 262 0 min 0,000 mm 0,0 UV-I 0 W/m 9,9 C 10,4 C 6,4 km/h (2 Bft) 92,86 %
26.10.2016 06:40 10,4 C 97 % 1024,2 hPa 0,0 l/m 4,9 km/h (1 Bft) W-SW 251 0 min 0,000 mm 0,0 UV-I 0 W/m 9,9 C 10,4 C 8,0 km/h (2 Bft) 100,00 %
26.10.2016 06:41 10,4 C 97 % 1024,3 hPa 0,0 l/m 5,0 km/h (1 Bft) W 264 0 min 0,000 mm 0,0 UV-I 0 W/m 9,9 C 10,4 C 6,4 km/h (2 Bft) 96,55 %
26.10.2016 06:42 10,4 C 97 % 1024,3 hPa 0,0 l/m 4,5 km/h (1 Bft) W-SW 253 0 min 0,000 mm 0,0 UV-I 0 W/m 9,9 C 10,4 C 6,4 km/h (2 Bft) 93,33 %
26.10.2016 06:43 10,4 C 97 % 1024,3 hPa 0,0 l/m 5,3 km/h (1 Bft) W-SW 251 0 min 0,000 mm 0,0 UV-I 0 W/m 9,9 C 10,4 C 6,4 km/h (2 Bft) 100,00 %
26.10.2016 06:44 10,4 C 97 % 1024,3 hPa 0,0 l/m 4,5 km/h (1 Bft) W 272 0 min 0,000 mm 0,0 UV-I 0 W/m 9,9 C 10,4 C 4,8 km/h (1 Bft) 96,30 %
26.10.2016 06:45 10,4 C 97 % 1024,3 hPa 0,0 l/m 4,5 km/h (1 Bft) W 263 0 min 0,000 mm 0,0 UV-I 0 W/m 9,9 C 10,4 C 6,4 km/h (2 Bft) 100,00 %
26.10.2016 06:46 10,4 C 97 % 1024,3 hPa 0,0 l/m 4,6 km/h (1 Bft) W 262 0 min 0,000 mm 0,0 UV-I 0 W/m 9,9 C 10,4 C 6,4 km/h (2 Bft) 95,83 %
26.10.2016 06:47 10,4 C 97 % 1024,3 hPa 0,0 l/m 4,6 km/h (1 Bft) W 262 0 min 0,000 mm 0,0 UV-I 0 W/m 9,9 C 10,4 C 6,4 km/h (2 Bft) 91,67 %
26.10.2016 06:48 10,4 C 97 % 1024,3 hPa 0,0 l/m 4,5 km/h (1 Bft) W 263 0 min 0,000 mm 0,0 UV-I 0 W/m 9,9 C 10,4 C 4,8 km/h (1 Bft) 96,15 %
26.10.2016 06:49 10,4 C 97 % 1024,3 hPa 0,0 l/m 5,0 km/h (1 Bft) W 279 0 min 0,000 mm 0,0 UV-I 0 W/m 9,9 C 10,4 C 9,7 km/h (2 Bft) 100,00 %
26.10.2016 06:50 10,4 C 97 % 1024,4 hPa 0,0 l/m 4,1 km/h (1 Bft) W 279 0 min 0,000 mm 0,0 UV-I 0 W/m 9,9 C 10,4 C 6,4 km/h (2 Bft) 95,65 %
26.10.2016 06:51 10,4 C 97 % 1024,4 hPa 0,0 l/m 3,4 km/h (1 Bft) W 279 0 min 0,000 mm 0,0 UV-I 0 W/m 9,9 C 10,4 C 4,8 km/h (1 Bft) 100,00 %
26.10.2016 06:52 10,4 C 97 % 1024,4 hPa 0,0 l/m 1,5 km/h (1 Bft) W 279 0 min 0,000 mm 0,0 UV-I 0 W/m 9,9 C 10,4 C 3,2 km/h (1 Bft) 100,00 %
26.10.2016 06:53 10,4 C 97 % 1024,4 hPa 0,0 l/m 3,1 km/h (1 Bft) W 279 0 min 0,000 mm 0,0 UV-I 0 W/m 9,9 C 10,4 C 4,8 km/h (1 Bft) 100,00 %
26.10.2016 06:54 10,4 C 97 % 1024,4 hPa 0,0 l/m 1,8 km/h (1 Bft) W 279 0 min 0,000 mm 0,0 UV-I 0 W/m 9,9 C 10,4 C 3,2 km/h (1 Bft) 100,00 %
26.10.2016 06:55 10,4 C 97 % 1024,4 hPa 0,0 l/m 3,1 km/h (1 Bft) W 279 0 min 0,000 mm 0,0 UV-I 0 W/m 9,9 C 10,4 C 4,8 km/h (1 Bft) 96,30 %
26.10.2016 06:56 10,4 C 97 % 1024,4 hPa 0,0 l/m 2,9 km/h (1 Bft) W 279 0 min 0,000 mm 0,0 UV-I 0 W/m 9,9 C 10,4 C 4,8 km/h (1 Bft) 100,00 %
26.10.2016 06:57 10,4 C 97 % 1024,4 hPa 0,0 l/m 1,7 km/h (1 Bft) W 279 0 min 0,000 mm 0,0 UV-I 0 W/m 9,9 C 10,4 C 3,2 km/h (1 Bft) 100,00 %
26.10.2016 06:58 10,4 C 97 % 1024,4 hPa 0,0 l/m 2,4 km/h (1 Bft) W 279 0 min 0,000 mm 0,0 UV-I 0 W/m 9,9 C 10,4 C 4,8 km/h (1 Bft) 100,00 %
26.10.2016 06:59 10,4 C 97 % 1024,4 hPa 0,0 l/m 3,0 km/h (1 Bft) W 279 0 min 0,000 mm 0,0 UV-I 0 W/m 9,9 C 10,4 C 4,8 km/h (1 Bft) 100,00 %
26.10.2016 07:00 10,4 C 97 % 1024,4 hPa 0,0 l/m 5,7 km/h (1 Bft) W-SW 252 0 min 0,000 mm 0,0 UV-I 0 W/m 9,9 C 10,4 C 9,7 km/h (2 Bft) 100,00 %
26.10.2016 07:01 10,4 C 97 % 1024,4 hPa 0,0 l/m 3,6 km/h (1 Bft) W-SW 253 0 min 0,000 mm 0,0 UV-I 0 W/m 9,9 C 10,4 C 4,8 km/h (1 Bft) 100,00 %
26.10.2016 07:02 10,4 C 97 % 1024,4 hPa 0,0 l/m 3,6 km/h (1 Bft) W-SW 252 0 min 0,000 mm 0,0 UV-I 0 W/m 9,9 C 10,4 C 4,8 km/h (1 Bft) 100,00 %
26.10.2016 07:03 10,4 C 97 % 1024,4 hPa 0,0 l/m 2,9 km/h (1 Bft) W-SW 252 0 min 0,000 mm 0,0 UV-I 0 W/m 9,9 C 10,4 C 4,8 km/h (1 Bft) 100,00 %
26.10.2016 07:04 10,4 C 97 % 1024,4 hPa 0,0 l/m 3,7 km/h (1 Bft) W-SW 253 0 min 0,000 mm 0,0 UV-I 0 W/m 9,9 C 10,4 C 4,8 km/h (1 Bft) 96,15 %
26.10.2016 07:05 10,4 C 97 % 1024,4 hPa 0,0 l/m 2,9 km/h (1 Bft) W-SW 253 0 min 0,000 mm 0,0 UV-I 0 W/m 9,9 C 10,4 C 4,8 km/h (1 Bft) 100,00 %
26.10.2016 07:06 10,4 C 97 % 1024,4 hPa 0,0 l/m 2,7 km/h (1 Bft) W-SW 253 0 min 0,000 mm 0,0 UV-I 0 W/m 9,9 C 10,4 C 3,2 km/h (1 Bft) 100,00 %
26.10.2016 07:07 10,4 C 97 % 1024,5 hPa 0,0 l/m 4,3 km/h (1 Bft) W-SW 253 0 min 0,000 mm 0,0 UV-I 0 W/m 9,9 C 10,4 C 6,4 km/h (2 Bft) 100,00 %
26.10.2016 07:08 10,4 C 97 % 1024,5 hPa 0,0 l/m 4,1 km/h (1 Bft) W-SW 253 0 min 0,000 mm 0,0 UV-I 0 W/m 9,9 C 10,4 C 4,8 km/h (1 Bft) 100,00 %
26.10.2016 07:09 10,4 C 97 % 1024,5 hPa 0,0 l/m 3,6 km/h (1 Bft) W-SW 253 0 min 0,000 mm 0,0 UV-I 0 W/m 9,9 C 10,4 C 4,8 km/h (1 Bft) 100,00 %
26.10.2016 07:10 10,4 C 97 % 1024,5 hPa 0,0 l/m 2,3 km/h (1 Bft) W-SW 253 0 min 0,000 mm 0,0 UV-I 0 W/m 9,9 C 10,4 C 3,2 km/h (1 Bft) 100,00 %
26.10.2016 07:11 10,4 C 97 % 1024,5 hPa 0,0 l/m 1,6 km/h (1 Bft) W-SW 254 0 min 0,000 mm 0,0 UV-I 0 W/m 9,9 C 10,4 C 3,2 km/h (1 Bft) 95,65 %
26.10.2016 07:12 10,4 C 97 % 1024,5 hPa 0,0 l/m 2,0 km/h (1 Bft) W 269 0 min 0,000 mm 0,0 UV-I 0 W/m 9,9 C 10,4 C 4,8 km/h (1 Bft) 100,00 %
26.10.2016 07:13 10,4 C 97 % 1024,5 hPa 0,0 l/m 2,5 km/h (1 Bft) W 269 0 min 0,000 mm 0,0 UV-I 0 W/m 9,9 C 10,4 C 4,8 km/h (1 Bft) 100,00 %
26.10.2016 07:14 10,4 C 97 % 1024,5 hPa 0,0 l/m 2,2 km/h (1 Bft) W 269 0 min 0,000 mm 0,0 UV-I 0 W/m 9,9 C 10,4 C 3,2 km/h (1 Bft) 100,00 %
26.10.2016 07:15 10,4 C 97 % 1024,5 hPa 0,0 l/m 1,9 km/h (1 Bft) W 269 0 min 0,000 mm 0,0 UV-I 0 W/m 9,9 C 10,4 C 3,2 km/h (1 Bft) 100,00 %
26.10.2016 07:16 10,4 C 97 % 1024,6 hPa 0,0 l/m 1,7 km/h (1 Bft) W 269 0 min 0,000 mm 0,0 UV-I 0 W/m 9,9 C 10,4 C 3,2 km/h (1 Bft) 100,00 %
26.10.2016 07:17 10,4 C 97 % 1024,5 hPa 0,0 l/m 2,3 km/h (1 Bft) W 273 0 min 0,000 mm 0,0 UV-I 0 W/m 9,9 C 10,4 C 4,8 km/h (1 Bft) 95,65 %
26.10.2016 07:18 10,4 C 97 % 1024,5 hPa 0,0 l/m 0,1 km/h (0 Bft) W 273 0 min 0,000 mm 0,0 UV-I 0 W/m 9,9 C 10,4 C 1,6 km/h (1 Bft) 100,00 %
26.10.2016 07:19 10,4 C 97 % 1024,6 hPa 0,0 l/m 1,0 km/h (0 Bft) W 273 0 min 0,000 mm 0,0 UV-I 0 W/m 9,9 C 10,4 C 3,2 km/h (1 Bft) 100,00 %
26.10.2016 07:20 10,3 C 97 % 1024,6 hPa 0,0 l/m 0,1 km/h (0 Bft) W 273 0 min 0,000 mm 0,0 UV-I 0 W/m 9,8 C 10,3 C 1,6 km/h (1 Bft) 100,00 %
26.10.2016 07:21 10,3 C 97 % 1024,6 hPa 0,0 l/m 1,4 km/h (1 Bft) W 273 0 min 0,000 mm 0,0 UV-I 0 W/m 9,8 C 10,3 C 3,2 km/h (1 Bft) 100,00 %
26.10.2016 07:22 10,3 C 97 % 1024,6 hPa 0,0 l/m 0,7 km/h (0 Bft) W 273 0 min 0,000 mm 0,0 UV-I 0 W/m 9,8 C 10,3 C 1,6 km/h (1 Bft) 100,00 %
26.10.2016 07:23 10,3 C 97 % 1024,6 hPa 0,0 l/m 0,1 km/h (0 Bft) W 273 0 min 0,000 mm 0,0 UV-I 0 W/m 9,8 C 10,3 C 1,6 km/h (1 Bft) 95,65 %
26.10.2016 07:24 10,3 C 97 % 1024,6 hPa 0,0 l/m 1,1 km/h (1 Bft) W 273 0 min 0,000 mm 0,0 UV-I 0 W/m 9,8 C 10,3 C 3,2 km/h (1 Bft) 100,00 %
26.10.2016 07:25 10,3 C 97 % 1024,7 hPa 0,0 l/m 1,6 km/h (1 Bft) W-NW 284 0 min 0,000 mm 0,0 UV-I 0 W/m 9,8 C 10,3 C 4,8 km/h (1 Bft) 100,00 %
26.10.2016 07:26 10,3 C 97 % 1024,7 hPa 0,0 l/m 1,7 km/h (1 Bft) W 270 0 min 0,000 mm 0,0 UV-I 0 W/m 9,8 C 10,3 C 6,4 km/h (2 Bft) 100,00 %
26.10.2016 07:27 10,3 C 97 % 1024,7 hPa 0,0 l/m 2,7 km/h (1 Bft) W-SW 252 0 min 0,000 mm 0,0 UV-I 0 W/m 9,8 C 10,3 C 4,8 km/h (1 Bft) 100,00 %
26.10.2016 07:28 10,3 C 97 % 1024,7 hPa 0,0 l/m 2,0 km/h (1 Bft) W 277 0 min 0,000 mm 0,0 UV-I 0 W/m 9,8 C 10,3 C 4,8 km/h (1 Bft) 100,00 %
26.10.2016 07:29 10,3 C 97 % 1024,7 hPa 0,0 l/m 1,7 km/h (1 Bft) W 277 0 min 0,000 mm 0,0 UV-I 0 W/m 9,8 C 10,3 C 3,2 km/h (1 Bft) 98,62 %
26.10.2016 07:30 10,3 C 97 % 1024,7 hPa 0,0 l/m 1,6 km/h (1 Bft) W 277 0 min 0,000 mm 0,0 UV-I 0 W/m 9,8 C 10,3 C 3,2 km/h (1 Bft) 97,56 %
26.10.2016 07:31 10,3 C 97 % 1024,7 hPa 0,0 l/m 0,1 km/h (0 Bft) W 277 0 min 0,000 mm 0,0 UV-I 0 W/m 9,8 C 10,3 C 1,6 km/h (1 Bft) 100,00 %
26.10.2016 07:32 10,3 C 97 % 1024,7 hPa 0,0 l/m 1,8 km/h (1 Bft) W 277 0 min 0,000 mm 0,0 UV-I 0 W/m 9,8 C 10,3 C 4,8 km/h (1 Bft) 100,00 %
26.10.2016 07:33 10,3 C 98 % 1024,8 hPa 0,0 l/m 2,1 km/h (1 Bft) W 278 0 min 0,000 mm 0,0 UV-I 0 W/m 10,0 C 10,3 C 6,4 km/h (2 Bft) 100,00 %
26.10.2016 07:34 10,3 C 98 % 1024,8 hPa 0,0 l/m 3,4 km/h (1 Bft) W-NW 282 0 min 0,000 mm 0,0 UV-I 0 W/m 10,0 C 10,3 C 4,8 km/h (1 Bft) 100,00 %
26.10.2016 07:35 10,3 C 97 % 1024,8 hPa 0,0 l/m 1,1 km/h (1 Bft) W-NW 282 0 min 0,000 mm 0,0 UV-I 0 W/m 9,8 C 10,3 C 3,2 km/h (1 Bft) 100,00 %
26.10.2016 07:36 10,3 C 98 % 1024,8 hPa 0,0 l/m 2,7 km/h (1 Bft) NW 309 0 min 0,000 mm 0,0 UV-I 0 W/m 10,0 C 10,3 C 6,4 km/h (2 Bft) 100,00 %
26.10.2016 07:37 10,3 C 98 % 1024,8 hPa 0,0 l/m 2,7 km/h (1 Bft) W-NW 295 0 min 0,000 mm 0,0 UV-I 0 W/m 10,0 C 10,3 C 6,4 km/h (2 Bft) 100,00 %
26.10.2016 07:38 10,3 C 98 % 1024,8 hPa 0,0 l/m 0,3 km/h (0 Bft) W-NW 295 0 min 0,000 mm 0,0 UV-I 0 W/m 10,0 C 10,3 C 1,6 km/h (1 Bft) 100,00 %
26.10.2016 07:39 10,3 C 98 % 1024,8 hPa 0,0 l/m 3,6 km/h (1 Bft) W 267 0 min 0,000 mm 0,0 UV-I 0 W/m 10,0 C 10,3 C 9,7 km/h (2 Bft) 100,00 %
26.10.2016 07:40 10,3 C 98 % 1024,8 hPa 0,0 l/m 2,9 km/h (1 Bft) W-NW 302 0 min 0,000 mm 0,0 UV-I 0 W/m 10,0 C 10,3 C 4,8 km/h (1 Bft) 100,00 %
26.10.2016 07:41 10,3 C 98 % 1024,9 hPa 0,0 l/m 0,8 km/h (0 Bft) W-NW 302 0 min 0,000 mm 0,0 UV-I 0 W/m 10,0 C 10,3 C 1,6 km/h (1 Bft) 100,00 %
26.10.2016 07:42 10,3 C 98 % 1024,9 hPa 0,0 l/m 0,7 km/h (0 Bft) W-NW 302 0 min 0,000 mm 0,0 UV-I 0 W/m 10,0 C 10,3 C 1,6 km/h (1 Bft) 96,15 %
26.10.2016 07:43 10,3 C 98 % 1024,9 hPa 0,0 l/m 0,0 km/h (0 Bft) W-NW 302 0 min 0,000 mm 0,0 UV-I 0 W/m 10,0 C 10,3 C 0,0 km/h (0 Bft) 100,00 %
26.10.2016 07:44 10,3 C 98 % 1024,9 hPa 0,0 l/m 0,9 km/h (0 Bft) NW 311 0 min 0,000 mm 0,0 UV-I 0 W/m 10,0 C 10,3 C 4,8 km/h (1 Bft) 100,00 %
26.10.2016 07:45 10,3 C 98 % 1024,9 hPa 0,0 l/m 1,4 km/h (1 Bft) NW 311 0 min 0,000 mm 0,0 UV-I 0 W/m 10,0 C 10,3 C 3,2 km/h (1 Bft) 100,00 %
26.10.2016 07:46 10,3 C 98 % 1025,0 hPa 0,0 l/m 0,0 km/h (0 Bft) NW 311 0 min 0,000 mm 0,0 UV-I 0 W/m 10,0 C 10,3 C 0,0 km/h (0 Bft) 100,00 %
26.10.2016 07:47 10,3 C 98 % 1025,0 hPa 0,0 l/m 1,3 km/h (1 Bft) W 273 0 min 0,000 mm 0,0 UV-I 0 W/m 10,0 C 10,3 C 4,8 km/h (1 Bft) 95,65 %
26.10.2016 07:48 10,3 C 98 % 1025,0 hPa 0,0 l/m 2,1 km/h (1 Bft) W 275 0 min 0,000 mm 0,0 UV-I 0 W/m 10,0 C 10,3 C 3,2 km/h (1 Bft) 100,00 %
26.10.2016 07:49 10,2 C 98 % 1025,0 hPa 0,0 l/m 1,7 km/h (1 Bft) W-NW 285 0 min 0,000 mm 0,0 UV-I 0 W/m 9,9 C 10,2 C 3,2 km/h (1 Bft) 100,00 %
26.10.2016 07:50 10,2 C 98 % 1025,1 hPa 0,0 l/m 1,5 km/h (1 Bft) W-NW 285 0 min 0,000 mm 0,0 UV-I 0 W/m 9,9 C 10,2 C 3,2 km/h (1 Bft) 100,00 %
26.10.2016 07:51 10,2 C 98 % 1025,1 hPa 0,0 l/m 1,9 km/h (1 Bft) W-NW 285 0 min 0,000 mm 0,0 UV-I 0 W/m 9,9 C 10,2 C 3,2 km/h (1 Bft) 100,00 %
26.10.2016 07:52 10,2 C 98 % 1025,0 hPa 0,0 l/m 2,3 km/h (1 Bft) W-NW 285 0 min 0,000 mm 0,0 UV-I 0 W/m 9,9 C 10,2 C 3,2 km/h (1 Bft) 100,00 %
26.10.2016 07:53 10,2 C 98 % 1025,1 hPa 0,0 l/m 3,0 km/h (1 Bft) W 269 0 min 0,000 mm 0,0 UV-I 2 W/m 9,9 C 10,2 C 4,8 km/h (1 Bft) 92,86 %
26.10.2016 07:54 10,2 C 98 % 1025,1 hPa 0,0 l/m 1,8 km/h (1 Bft) W-SW 252 0 min 0,000 mm 0,0 UV-I 5 W/m 9,9 C 10,2 C 6,4 km/h (2 Bft) 100,00 %
26.10.2016 07:55 10,2 C 98 % 1025,1 hPa 0,0 l/m 2,5 km/h (1 Bft) W-SW 252 0 min 0,000 mm 0,0 UV-I 5 W/m 9,9 C 10,2 C 4,8 km/h (1 Bft) 100,00 %
26.10.2016 07:56 10,2 C 98 % 1025,1 hPa 0,0 l/m 2,8 km/h (1 Bft) W-SW 254 0 min 0,000 mm 0,0 UV-I 5 W/m 9,9 C 10,2 C 6,4 km/h (2 Bft) 100,00 %
26.10.2016 07:57 10,2 C 98 % 1025,1 hPa 0,0 l/m 3,1 km/h (1 Bft) W-SW 257 0 min 0,000 mm 0,0 UV-I 5 W/m 9,9 C 10,2 C 4,8 km/h (1 Bft) 100,00 %
26.10.2016 07:58 10,2 C 98 % 1025,1 hPa 0,0 l/m 2,2 km/h (1 Bft) W-SW 257 0 min 0,000 mm 0,0 UV-I 5 W/m 9,9 C 10,2 C 3,2 km/h (1 Bft) 100,00 %
26.10.2016 07:59 10,2 C 98 % 1025,1 hPa 0,0 l/m 0,8 km/h (0 Bft) W-SW 257 0 min 0,000 mm 0,0 UV-I 5 W/m 9,9 C 10,2 C 1,6 km/h (1 Bft) 96,15 %
26.10.2016 08:00 10,2 C 98 % 1025,2 hPa 0,0 l/m 1,5 km/h (1 Bft) W-SW 257 0 min 0,000 mm 0,0 UV-I 5 W/m 9,9 C 10,2 C 3,2 km/h (1 Bft) 100,00 %
26.10.2016 08:01 10,2 C 98 % 1025,2 hPa 0,0 l/m 1,9 km/h (1 Bft) W-SW 257 0 min 0,000 mm 0,0 UV-I 5 W/m 9,9 C 10,2 C 3,2 km/h (1 Bft) 100,00 %
26.10.2016 08:02 10,2 C 98 % 1025,2 hPa 0,0 l/m 2,7 km/h (1 Bft) W 269 0 min 0,000 mm 0,0 UV-I 5 W/m 9,9 C 10,2 C 4,8 km/h (1 Bft) 100,00 %
26.10.2016 08:03 10,2 C 98 % 1025,2 hPa 0,0 l/m 1,3 km/h (1 Bft) W 269 0 min 0,000 mm 0,0 UV-I 5 W/m 9,9 C 10,2 C 1,6 km/h (1 Bft) 100,00 %
26.10.2016 08:04 10,2 C 98 % 1025,2 hPa 0,0 l/m 1,8 km/h (1 Bft) W 269 0 min 0,000 mm 0,0 UV-I 5 W/m 9,9 C 10,2 C 3,2 km/h (1 Bft) 100,00 %
26.10.2016 08:05 10,2 C 98 % 1025,2 hPa 0,0 l/m 3,4 km/h (1 Bft) W 265 0 min 0,000 mm 0,0 UV-I 5 W/m 9,9 C 10,2 C 4,8 km/h (1 Bft) 100,00 %
26.10.2016 08:06 10,2 C 98 % 1025,2 hPa 0,0 l/m 3,4 km/h (1 Bft) W 265 0 min 0,000 mm 0,0 UV-I 5 W/m 9,9 C 10,2 C 4,8 km/h (1 Bft) 100,00 %
26.10.2016 08:07 10,2 C 98 % 1025,2 hPa 0,0 l/m 2,4 km/h (1 Bft) W 265 0 min 0,000 mm 0,0 UV-I 7 W/m 9,9 C 10,2 C 4,8 km/h (1 Bft) 100,00 %
26.10.2016 08:08 10,2 C 98 % 1025,2 hPa 0,0 l/m 2,7 km/h (1 Bft) W 265 0 min 0,000 mm 0,0 UV-I 7 W/m 9,9 C 10,2 C 4,8 km/h (1 Bft) 100,00 %
26.10.2016 08:09 10,2 C 98 % 1025,2 hPa 0,0 l/m 3,3 km/h (1 Bft) W 265 0 min 0,000 mm 0,0 UV-I 7 W/m 9,9 C 10,2 C 6,4 km/h (2 Bft) 95,83 %
26.10.2016 08:10 10,2 C 98 % 1025,2 hPa 0,0 l/m 5,1 km/h (1 Bft) W 265 0 min 0,000 mm 0,0 UV-I 7 W/m 9,9 C 10,2 C 6,4 km/h (2 Bft) 100,00 %
26.10.2016 08:11 10,2 C 98 % 1025,3 hPa 0,0 l/m 4,2 km/h (1 Bft) W 265 0 min 0,000 mm 0,0 UV-I 7 W/m 9,9 C 10,2 C 6,4 km/h (2 Bft) 100,00 %
26.10.2016 08:12 10,2 C 98 % 1025,3 hPa 0,0 l/m 2,9 km/h (1 Bft) W 265 0 min 0,000 mm 0,0 UV-I 7 W/m 9,9 C 10,2 C 4,8 km/h (1 Bft) 100,00 %
26.10.2016 08:13 10,2 C 98 % 1025,3 hPa 0,0 l/m 4,2 km/h (1 Bft) W 265 0 min 0,000 mm 0,0 UV-I 7 W/m 9,9 C 10,2 C 4,8 km/h (1 Bft) 100,00 %
26.10.2016 08:14 10,2 C 98 % 1025,4 hPa 0,0 l/m 2,5 km/h (1 Bft) W 265 0 min 0,000 mm 0,0 UV-I 7 W/m 9,9 C 10,2 C 3,2 km/h (1 Bft) 100,00 %
26.10.2016 08:15 10,2 C 98 % 1025,4 hPa 0,0 l/m 1,6 km/h (1 Bft) W 265 0 min 0,000 mm 0,0 UV-I 7 W/m 9,9 C 10,2 C 3,2 km/h (1 Bft) 100,00 %
26.10.2016 08:16 10,2 C 98 % 1025,4 hPa 0,0 l/m 1,9 km/h (1 Bft) W 265 0 min 0,000 mm 0,0 UV-I 7 W/m 9,9 C 10,2 C 3,2 km/h (1 Bft) 100,00 %
26.10.2016 08:17 10,2 C 98 % 1025,4 hPa 0,0 l/m 1,1 km/h (1 Bft) W 265 0 min 0,000 mm 0,0 UV-I 7 W/m 9,9 C 10,2 C 3,2 km/h (1 Bft) 100,00 %
26.10.2016 08:18 10,2 C 98 % 1025,4 hPa 0,0 l/m 2,1 km/h (1 Bft) W 265 0 min 0,000 mm 0,0 UV-I 7 W/m 9,9 C 10,2 C 3,2 km/h (1 Bft) 100,00 %
26.10.2016 08:19 10,2 C 98 % 1025,4 hPa 0,0 l/m 2,0 km/h (1 Bft) W 265 0 min 0,000 mm 0,0 UV-I 9 W/m 9,9 C 10,2 C 3,2 km/h (1 Bft) 91,67 %
26.10.2016 08:20 10,2 C 98 % 1025,4 hPa 0,0 l/m 2,1 km/h (1 Bft) W 265 0 min 0,000 mm 0,0 UV-I 9 W/m 9,9 C 10,2 C 4,8 km/h (1 Bft) 100,00 %
26.10.2016 08:21 10,2 C 98 % 1025,5 hPa 0,0 l/m 2,7 km/h (1 Bft) W 265 0 min 0,000 mm 0,0 UV-I 9 W/m 9,9 C 10,2 C 3,2 km/h (1 Bft) 96,30 %
26.10.2016 08:22 10,2 C 98 % 1025,5 hPa 0,0 l/m 1,6 km/h (1 Bft) W 265 0 min 0,000 mm 0,0 UV-I 9 W/m 9,9 C 10,2 C 3,2 km/h (1 Bft) 100,00 %
26.10.2016 08:23 10,2 C 98 % 1025,5 hPa 0,0 l/m 1,8 km/h (1 Bft) W 265 0 min 0,000 mm 0,0 UV-I 9 W/m 9,9 C 10,2 C 3,2 km/h (1 Bft) 91,67 %
26.10.2016 08:24 10,2 C 98 % 1025,5 hPa 0,0 l/m 0,4 km/h (0 Bft) W 265 0 min 0,000 mm 0,0 UV-I 11 W/m 9,9 C 10,2 C 1,6 km/h (1 Bft) 100,00 %
26.10.2016 08:25 10,2 C 98 % 1025,5 hPa 0,0 l/m 0,0 km/h (0 Bft) W 265 0 min 0,000 mm 0,0 UV-I 11 W/m 9,9 C 10,2 C 0,0 km/h (0 Bft) 96,15 %
26.10.2016 08:26 10,2 C 98 % 1025,6 hPa 0,0 l/m 0,1 km/h (0 Bft) W 265 0 min 0,000 mm 0,0 UV-I 11 W/m 9,9 C 10,2 C 1,6 km/h (1 Bft) 93,10 %
26.10.2016 08:27 10,2 C 98 % 1025,5 hPa 0,0 l/m 0,0 km/h (0 Bft) W 265 0 min 0,000 mm 0,0 UV-I 11 W/m 9,9 C 10,2 C 0,0 km/h (0 Bft) 100,00 %
26.10.2016 08:28 10,2 C 98 % 1025,6 hPa 0,0 l/m 0,0 km/h (0 Bft) W 265 0 min 0,000 mm 0,0 UV-I 12 W/m 9,9 C 10,2 C 0,0 km/h (0 Bft) 95,65 %
26.10.2016 08:29 10,2 C 97 % 1025,6 hPa 0,0 l/m 0,0 km/h (0 Bft) W 265 0 min 0,000 mm 0,0 UV-I 12 W/m 9,7 C 10,2 C 0,0 km/h (0 Bft) 100,00 %
26.10.2016 08:30 10,2 C 98 % 1025,6 hPa 0,0 l/m 0,7 km/h (0 Bft) W 265 0 min 0,000 mm 0,0 UV-I 15 W/m 9,9 C 10,2 C 3,2 km/h (1 Bft) 95,83 %
26.10.2016 08:31 10,2 C 97 % 1025,6 hPa 0,0 l/m 0,0 km/h (0 Bft) W 265 0 min 0,000 mm 0,0 UV-I 23 W/m 9,7 C 10,2 C 0,0 km/h (0 Bft) 100,00 %
26.10.2016 08:32 10,2 C 97 % 1025,6 hPa 0,0 l/m 0,1 km/h (0 Bft) W 265 0 min 0,000 mm 0,0 UV-I 26 W/m 9,7 C 10,2 C 1,6 km/h (1 Bft) 97,22 %
26.10.2016 08:33 10,2 C 97 % 1025,6 hPa 0,0 l/m 0,6 km/h (0 Bft) W 265 0 min 0,000 mm 0,0 UV-I 28 W/m 9,7 C 10,2 C 3,2 km/h (1 Bft) 100,00 %
26.10.2016 08:34 10,2 C 97 % 1025,6 hPa 0,0 l/m 1,6 km/h (1 Bft) W 265 0 min 0,000 mm 0,0 UV-I 28 W/m 9,7 C 10,2 C 3,2 km/h (1 Bft) 95,83 %
26.10.2016 08:35 10,2 C 98 % 1025,6 hPa 0,0 l/m 0,1 km/h (0 Bft) W 265 0 min 0,000 mm 0,0 UV-I 28 W/m 9,9 C 10,2 C 1,6 km/h (1 Bft) 96,15 %
26.10.2016 08:36 10,2 C 98 % 1025,7 hPa 0,0 l/m 0,0 km/h (0 Bft) W 265 0 min 0,000 mm 0,0 UV-I 26 W/m 9,9 C 10,2 C 0,0 km/h (0 Bft) 100,00 %
26.10.2016 08:37 10,2 C 98 % 1025,7 hPa 0,0 l/m 1,3 km/h (1 Bft) W 265 0 min 0,000 mm 0,0 UV-I 25 W/m 9,9 C 10,2 C 3,2 km/h (1 Bft) 95,65 %
26.10.2016 08:38 10,2 C 98 % 1025,7 hPa 0,0 l/m 0,1 km/h (0 Bft) W 265 0 min 0,000 mm 0,0 UV-I 25 W/m 9,9 C 10,2 C 1,6 km/h (1 Bft) 100,00 %
26.10.2016 08:39 10,2 C 98 % 1025,7 hPa 0,0 l/m 0,5 km/h (0 Bft) W 265 0 min 0,000 mm 0,0 UV-I 25 W/m 9,9 C 10,2 C 1,6 km/h (1 Bft) 91,67 %
26.10.2016 08:40 10,2 C 98 % 1025,7 hPa 0,0 l/m 0,1 km/h (0 Bft) W 265 0 min 0,000 mm 0,0 UV-I 26 W/m 9,9 C 10,2 C 1,6 km/h (1 Bft) 100,00 %
26.10.2016 08:41 10,2 C 98 % 1025,7 hPa 0,0 l/m 0,6 km/h (0 Bft) W 265 0 min 0,000 mm 0,0 UV-I 27 W/m 9,9 C 10,2 C 4,8 km/h (1 Bft) 95,83 %
26.10.2016 08:42 10,2 C 98 % 1025,7 hPa 0,0 l/m 2,8 km/h (1 Bft) W 266 0 min 0,000 mm 0,0 UV-I 30 W/m 9,9 C 10,2 C 4,8 km/h (1 Bft) 100,00 %
26.10.2016 08:43 10,2 C 98 % 1025,7 hPa 0,0 l/m 0,4 km/h (0 Bft) W 266 0 min 0,000 mm 0,0 UV-I 33 W/m 9,9 C 10,2 C 1,6 km/h (1 Bft) 91,67 %
26.10.2016 08:44 10,2 C 98 % 1025,7 hPa 0,0 l/m 0,9 km/h (0 Bft) W 266 0 min 0,000 mm 0,0 UV-I 33 W/m 9,9 C 10,2 C 1,6 km/h (1 Bft) 97,56 %
26.10.2016 08:45 10,2 C 98 % 1025,7 hPa 0,0 l/m 2,2 km/h (1 Bft) W 266 0 min 0,000 mm 0,0 UV-I 31 W/m 9,9 C 10,2 C 3,2 km/h (1 Bft) 100,00 %
26.10.2016 08:46 10,2 C 98 % 1025,7 hPa 0,0 l/m 0,3 km/h (0 Bft) W 266 0 min 0,000 mm 0,0 UV-I 30 W/m 9,9 C 10,2 C 1,6 km/h (1 Bft) 95,83 %
26.10.2016 08:47 10,2 C 98 % 1025,7 hPa 0,0 l/m 1,1 km/h (1 Bft) W 266 0 min 0,000 mm 0,0 UV-I 29 W/m 9,9 C 10,2 C 3,2 km/h (1 Bft) 100,00 %
26.10.2016 08:48 10,2 C 98 % 1025,7 hPa 0,0 l/m 0,0 km/h (0 Bft) W 266 0 min 0,000 mm 0,0 UV-I 30 W/m 9,9 C 10,2 C 0,0 km/h (0 Bft) 95,65 %
26.10.2016 08:49 10,2 C 98 % 1025,7 hPa 0,0 l/m 0,9 km/h (0 Bft) W 266 0 min 0,000 mm 0,0 UV-I 30 W/m 9,9 C 10,2 C 3,2 km/h (1 Bft) 100,00 %
26.10.2016 08:50 10,2 C 98 % 1025,6 hPa 0,0 l/m 0,9 km/h (0 Bft) W 266 0 min 0,000 mm 0,0 UV-I 30 W/m 9,9 C 10,2 C 1,6 km/h (1 Bft) 96,15 %
26.10.2016 08:51 10,2 C 98 % 1025,6 hPa 0,0 l/m 1,4 km/h (1 Bft) W 266 0 min 0,000 mm 0,0 UV-I 31 W/m 9,9 C 10,2 C 1,6 km/h (1 Bft) 95,83 %
26.10.2016 08:52 10,2 C 98 % 1025,7 hPa 0,0 l/m 1,0 km/h (0 Bft) W 266 0 min 0,000 mm 0,0 UV-I 32 W/m 9,9 C 10,2 C 3,2 km/h (1 Bft) 100,00 %
26.10.2016 08:53 10,2 C 98 % 1025,7 hPa 0,0 l/m 1,1 km/h (1 Bft) W 266 0 min 0,000 mm 0,0 UV-I 32 W/m 9,9 C 10,2 C 1,6 km/h (1 Bft) 95,83 %
26.10.2016 08:54 10,2 C 98 % 1025,7 hPa 0,0 l/m 1,1 km/h (1 Bft) W 266 0 min 0,000 mm 0,0 UV-I 32 W/m 9,9 C 10,2 C 3,2 km/h (1 Bft) 95,65 %
26.10.2016 08:55 10,2 C 98 % 1025,7 hPa 0,0 l/m 2,1 km/h (1 Bft) W 266 0 min 0,000 mm 0,0 UV-I 32 W/m 9,9 C 10,2 C 3,2 km/h (1 Bft) 100,00 %
26.10.2016 08:56 10,2 C 98 % 1025,7 hPa 0,0 l/m 0,8 km/h (0 Bft) W 266 0 min 0,000 mm 0,0 UV-I 32 W/m 9,9 C 10,2 C 3,2 km/h (1 Bft) 100,00 %
26.10.2016 08:57 10,2 C 98 % 1025,7 hPa 0,0 l/m 0,9 km/h (0 Bft) W 266 0 min 0,000 mm 0,0 UV-I 32 W/m 9,9 C 10,2 C 3,2 km/h (1 Bft) 100,00 %
26.10.2016 08:58 10,3 C 98 % 1025,7 hPa 0,0 l/m 3,8 km/h (1 Bft) W 266 0 min 0,000 mm 0,0 UV-I 32 W/m 10,0 C 10,3 C 4,8 km/h (1 Bft) 100,00 %
26.10.2016 08:59 10,2 C 98 % 1025,7 hPa 0,0 l/m 1,5 km/h (1 Bft) W 266 0 min 0,000 mm 0,0 UV-I 33 W/m 9,9 C 10,2 C 3,2 km/h (1 Bft) 100,00 %
26.10.2016 09:00 10,3 C 98 % 1025,7 hPa 0,0 l/m 0,7 km/h (0 Bft) W 266 0 min 0,000 mm 0,0 UV-I 35 W/m 10,0 C 10,3 C 3,2 km/h (1 Bft) 100,00 %
26.10.2016 09:01 10,3 C 98 % 1025,7 hPa 0,0 l/m 3,6 km/h (1 Bft) W 266 0 min 0,000 mm 0,0 UV-I 37 W/m 10,0 C 10,3 C 4,8 km/h (1 Bft) 95,83 %
26.10.2016 09:02 10,3 C 98 % 1025,7 hPa 0,0 l/m 2,5 km/h (1 Bft) W 266 0 min 0,000 mm 0,0 UV-I 39 W/m 10,0 C 10,3 C 4,8 km/h (1 Bft) 100,00 %
26.10.2016 09:03 10,3 C 98 % 1025,7 hPa 0,0 l/m 1,1 km/h (1 Bft) W 266 0 min 0,000 mm 0,0 UV-I 40 W/m 10,0 C 10,3 C 3,2 km/h (1 Bft) 100,00 %
26.10.2016 09:04 10,3 C 98 % 1025,7 hPa 0,0 l/m 0,5 km/h (0 Bft) W 266 0 min 0,000 mm 0,0 UV-I 39 W/m 10,0 C 10,3 C 1,6 km/h (1 Bft) 100,00 %
26.10.2016 09:05 10,3 C 98 % 1025,7 hPa 0,0 l/m 0,0 km/h (0 Bft) W 266 0 min 0,000 mm 0,0 UV-I 39 W/m 10,0 C 10,3 C 0,0 km/h (0 Bft) 95,83 %
26.10.2016 09:06 10,3 C 98 % 1025,8 hPa 0,0 l/m 0,0 km/h (0 Bft) W 266 0 min 0,000 mm 0,0 UV-I 40 W/m 10,0 C 10,3 C 0,0 km/h (0 Bft) 95,65 %
26.10.2016 09:07 10,3 C 98 % 1025,7 hPa 0,0 l/m 0,7 km/h (0 Bft) W 266 0 min 0,000 mm 0,0 UV-I 42 W/m 10,0 C 10,3 C 3,2 km/h (1 Bft) 100,00 %
26.10.2016 09:08 10,3 C 98 % 1025,7 hPa 0,0 l/m 0,1 km/h (0 Bft) W 266 0 min 0,000 mm 0,0 UV-I 45 W/m 10,0 C 10,3 C 1,6 km/h (1 Bft) 100,00 %
26.10.2016 09:09 10,3 C 98 % 1025,7 hPa 0,0 l/m 2,8 km/h (1 Bft) W 264 0 min 0,000 mm 0,0 UV-I 48 W/m 10,0 C 10,3 C 4,8 km/h (1 Bft) 100,00 %
26.10.2016 09:10 10,3 C 98 % 1025,7 hPa 0,0 l/m 2,7 km/h (1 Bft) W 271 0 min 0,000 mm 0,0 UV-I 50 W/m 10,0 C 10,3 C 4,8 km/h (1 Bft) 100,00 %
26.10.2016 09:11 10,3 C 98 % 1025,7 hPa 0,0 l/m 2,4 km/h (1 Bft) W 271 0 min 0,000 mm 0,0 UV-I 52 W/m 10,0 C 10,3 C 3,2 km/h (1 Bft) 100,00 %
26.10.2016 09:12 10,3 C 98 % 1025,7 hPa 0,0 l/m 1,3 km/h (1 Bft) W 271 0 min 0,000 mm 0,0 UV-I 54 W/m 10,0 C 10,3 C 3,2 km/h (1 Bft) 100,00 %
26.10.2016 09:13 10,3 C 98 % 1025,7 hPa 0,0 l/m 0,3 km/h (0 Bft) W 271 0 min 0,000 mm 0,0 UV-I 57 W/m 10,0 C 10,3 C 1,6 km/h (1 Bft) 100,00 %
26.10.2016 09:14 10,3 C 98 % 1025,7 hPa 0,0 l/m 1,8 km/h (1 Bft) W 271 0 min 0,000 mm 0,0 UV-I 59 W/m 10,0 C 10,3 C 3,2 km/h (1 Bft) 95,83 %
26.10.2016 09:15 10,3 C 98 % 1025,7 hPa 0,0 l/m 1,9 km/h (1 Bft) W 271 0 min 0,000 mm 0,0 UV-I 61 W/m 10,0 C 10,3 C 3,2 km/h (1 Bft) 100,00 %
26.10.2016 09:16 10,3 C 98 % 1025,7 hPa 0,0 l/m 1,1 km/h (1 Bft) W 271 0 min 0,000 mm 0,0 UV-I 63 W/m 10,0 C 10,3 C 3,2 km/h (1 Bft) 100,00 %
26.10.2016 09:17 10,3 C 98 % 1025,8 hPa 0,0 l/m 2,4 km/h (1 Bft) W 271 0 min 0,000 mm 0,0 UV-I 65 W/m 10,0 C 10,3 C 3,2 km/h (1 Bft) 100,00 %
26.10.2016 09:18 10,3 C 98 % 1025,8 hPa 0,0 l/m 2,2 km/h (1 Bft) W 271 0 min 0,000 mm 0,0 UV-I 65 W/m 10,0 C 10,3 C 3,2 km/h (1 Bft) 100,00 %
26.10.2016 09:19 10,3 C 98 % 1025,8 hPa 0,0 l/m 1,2 km/h (1 Bft) W 271 0 min 0,000 mm 0,0 UV-I 65 W/m 10,0 C 10,3 C 3,2 km/h (1 Bft) 100,00 %
26.10.2016 09:20 10,3 C 98 % 1025,8 hPa 0,0 l/m 1,3 km/h (1 Bft) W 271 0 min 0,000 mm 0,0 UV-I 64 W/m 10,0 C 10,3 C 3,2 km/h (1 Bft) 100,00 %
26.10.2016 09:21 10,3 C 98 % 1025,8 hPa 0,0 l/m 0,5 km/h (0 Bft) W 271 0 min 0,000 mm 0,0 UV-I 60 W/m 10,0 C 10,3 C 1,6 km/h (1 Bft) 100,00 %
26.10.2016 09:22 10,4 C 97 % 1025,8 hPa 0,0 l/m 0,1 km/h (0 Bft) W 271 0 min 0,000 mm 0,0 UV-I 57 W/m 9,9 C 10,4 C 1,6 km/h (1 Bft) 100,00 %
26.10.2016 09:23 10,4 C 97 % 1025,8 hPa 0,0 l/m 0,2 km/h (0 Bft) W 271 0 min 0,000 mm 0,0 UV-I 56 W/m 9,9 C 10,4 C 1,6 km/h (1 Bft) 100,00 %
26.10.2016 09:24 10,4 C 97 % 1025,8 hPa 0,0 l/m 0,3 km/h (0 Bft) W 271 0 min 0,000 mm 0,0 UV-I 60 W/m 9,9 C 10,4 C 1,6 km/h (1 Bft) 100,00 %
26.10.2016 09:25 10,4 C 97 % 1025,8 hPa 0,0 l/m 1,1 km/h (1 Bft) W 271 0 min 0,000 mm 0,0 UV-I 64 W/m 9,9 C 10,4 C 1,6 km/h (1 Bft) 100,00 %
26.10.2016 09:26 10,4 C 97 % 1025,8 hPa 0,0 l/m 2,1 km/h (1 Bft) W 271 0 min 0,000 mm 0,0 UV-I 69 W/m 9,9 C 10,4 C 4,8 km/h (1 Bft) 100,00 %
26.10.2016 09:27 10,4 C 97 % 1025,8 hPa 0,0 l/m 1,0 km/h (0 Bft) W 271 0 min 0,000 mm 0,0 UV-I 76 W/m 9,9 C 10,4 C 3,2 km/h (1 Bft) 100,00 %
26.10.2016 09:28 10,4 C 97 % 1025,7 hPa 0,0 l/m 0,8 km/h (0 Bft) W 271 0 min 0,000 mm 0,0 UV-I 84 W/m 9,9 C 10,4 C 1,6 km/h (1 Bft) 100,00 %
26.10.2016 09:29 10,4 C 97 % 1025,7 hPa 0,0 l/m 2,3 km/h (1 Bft) W 271 0 min 0,000 mm 0,0 UV-I 89 W/m 9,9 C 10,4 C 3,2 km/h (1 Bft) 100,00 %
26.10.2016 09:30 10,4 C 97 % 1025,7 hPa 0,0 l/m 1,2 km/h (1 Bft) W 271 0 min 0,000 mm 0,0 UV-I 90 W/m 9,9 C 10,4 C 3,2 km/h (1 Bft) 100,00 %
26.10.2016 09:31 10,5 C 98 % 1025,7 hPa 0,0 l/m 0,0 km/h (0 Bft) W 271 0 min 0,000 mm 0,0 UV-I 90 W/m 10,2 C 10,5 C 0,0 km/h (0 Bft) 100,00 %
26.10.2016 09:32 10,5 C 98 % 1025,7 hPa 0,0 l/m 1,3 km/h (1 Bft) W 271 0 min 0,000 mm 0,0 UV-I 90 W/m 10,2 C 10,5 C 3,2 km/h (1 Bft) 100,00 %
26.10.2016 09:33 10,5 C 97 % 1025,7 hPa 0,0 l/m 2,7 km/h (1 Bft) W 273 0 min 0,000 mm 0,0 UV-I 90 W/m 10,0 C 10,5 C 4,8 km/h (1 Bft) 100,00 %
26.10.2016 09:34 10,5 C 97 % 1025,7 hPa 0,0 l/m 1,0 km/h (0 Bft) W 273 0 min 0,000 mm 0,0 UV-I 89 W/m 10,0 C 10,5 C 1,6 km/h (1 Bft) 100,00 %
26.10.2016 09:35 10,6 C 97 % 1025,7 hPa 0,0 l/m 0,0 km/h (0 Bft) W 273 0 min 0,000 mm 0,0 UV-I 86 W/m 10,1 C 10,6 C 0,0 km/h (0 Bft) 100,00 %
26.10.2016 09:36 10,6 C 97 % 1025,7 hPa 0,0 l/m 0,0 km/h (0 Bft) W 273 0 min 0,000 mm 0,0 UV-I 86 W/m 10,1 C 10,6 C 0,0 km/h (0 Bft) 100,00 %
26.10.2016 09:37 10,6 C 97 % 1025,7 hPa 0,0 l/m 0,3 km/h (0 Bft) W 273 0 min 0,000 mm 0,0 UV-I 86 W/m 10,1 C 10,6 C 1,6 km/h (1 Bft) 100,00 %
26.10.2016 09:38 10,6 C 98 % 1025,7 hPa 0,0 l/m 0,2 km/h (0 Bft) W 273 0 min 0,000 mm 0,0 UV-I 87 W/m 10,3 C 10,6 C 1,6 km/h (1 Bft) 100,00 %
26.10.2016 09:39 10,6 C 97 % 1025,7 hPa 0,0 l/m 0,2 km/h (0 Bft) W 273 0 min 0,000 mm 0,0 UV-I 90 W/m 10,1 C 10,6 C 1,6 km/h (1 Bft) 100,00 %
26.10.2016 09:40 10,6 C 97 % 1025,7 hPa 0,0 l/m 0,0 km/h (0 Bft) W 273 0 min 0,000 mm 0,0 UV-I 91 W/m 10,1 C 10,6 C 0,0 km/h (0 Bft) 95,83 %
26.10.2016 09:41 10,7 C 97 % 1025,8 hPa 0,0 l/m 0,0 km/h (0 Bft) W 273 0 min 0,000 mm 0,0 UV-I 90 W/m 10,2 C 10,7 C 0,0 km/h (0 Bft) 100,00 %
26.10.2016 09:42 10,7 C 97 % 1025,7 hPa 0,0 l/m 0,0 km/h (0 Bft) W 273 0 min 0,000 mm 0,0 UV-I 82 W/m 10,2 C 10,7 C 0,0 km/h (0 Bft) 100,00 %
26.10.2016 09:43 10,7 C 97 % 1025,8 hPa 0,0 l/m 0,6 km/h (0 Bft) W 273 0 min 0,000 mm 0,0 UV-I 75 W/m 10,2 C 10,7 C 1,6 km/h (1 Bft) 100,00 %
26.10.2016 09:44 10,7 C 97 % 1025,8 hPa 0,0 l/m 0,2 km/h (0 Bft) W 273 0 min 0,000 mm 0,0 UV-I 68 W/m 10,2 C 10,7 C 1,6 km/h (1 Bft) 100,00 %
26.10.2016 09:45 10,7 C 97 % 1025,8 hPa 0,0 l/m 0,3 km/h (0 Bft) W 273 0 min 0,000 mm 0,0 UV-I 67 W/m 10,2 C 10,7 C 1,6 km/h (1 Bft) 100,00 %
26.10.2016 09:46 10,7 C 97 % 1025,8 hPa 0,0 l/m 0,1 km/h (0 Bft) W 273 0 min 0,000 mm 0,0 UV-I 68 W/m 10,2 C 10,7 C 1,6 km/h (1 Bft) 100,00 %
26.10.2016 09:47 10,6 C 97 % 1025,8 hPa 0,0 l/m 1,0 km/h (0 Bft) W 273 0 min 0,000 mm 0,0 UV-I 72 W/m 10,1 C 10,6 C 3,2 km/h (1 Bft) 100,00 %
26.10.2016 09:48 10,7 C 97 % 1025,8 hPa 0,0 l/m 1,3 km/h (1 Bft) W 273 0 min 0,000 mm 0,0 UV-I 81 W/m 10,2 C 10,7 C 3,2 km/h (1 Bft) 100,00 %
26.10.2016 09:49 10,6 C 97 % 1025,9 hPa 0,0 l/m 2,3 km/h (1 Bft) W 273 0 min 0,000 mm 0,0 UV-I 87 W/m 10,1 C 10,6 C 3,2 km/h (1 Bft) 100,00 %
26.10.2016 09:50 10,6 C 97 % 1025,8 hPa 0,0 l/m 1,9 km/h (1 Bft) W 273 0 min 0,000 mm 0,0 UV-I 90 W/m 10,1 C 10,6 C 3,2 km/h (1 Bft) 100,00 %
26.10.2016 09:51 10,6 C 97 % 1025,8 hPa 0,0 l/m 1,0 km/h (0 Bft) W 273 0 min 0,000 mm 0,0 UV-I 90 W/m 10,1 C 10,6 C 1,6 km/h (1 Bft) 100,00 %
26.10.2016 09:52 10,6 C 97 % 1025,8 hPa 0,0 l/m 0,6 km/h (0 Bft) W 273 0 min 0,000 mm 0,0 UV-I 90 W/m 10,1 C 10,6 C 1,6 km/h (1 Bft) 100,00 %
26.10.2016 09:53 10,6 C 97 % 1025,8 hPa 0,0 l/m 0,6 km/h (0 Bft) W 273 0 min 0,000 mm 0,0 UV-I 88 W/m 10,1 C 10,6 C 1,6 km/h (1 Bft) 100,00 %
26.10.2016 09:54 10,6 C 97 % 1025,9 hPa 0,0 l/m 0,2 km/h (0 Bft) W 273 0 min 0,000 mm 0,0 UV-I 88 W/m 10,1 C 10,6 C 1,6 km/h (1 Bft) 100,00 %
26.10.2016 09:55 10,6 C 97 % 1025,9 hPa 0,0 l/m 0,0 km/h (0 Bft) W 273 0 min 0,000 mm 0,0 UV-I 85 W/m 10,1 C 10,6 C 0,0 km/h (0 Bft) 100,00 %
26.10.2016 09:56 10,6 C 97 % 1025,8 hPa 0,0 l/m 0,0 km/h (0 Bft) W 273 0 min 0,000 mm 0,0 UV-I 82 W/m 10,1 C 10,6 C 0,0 km/h (0 Bft) 100,00 %
26.10.2016 09:57 10,6 C 97 % 1025,8 hPa 0,0 l/m 0,0 km/h (0 Bft) W 273 0 min 0,000 mm 0,0 UV-I 79 W/m 10,1 C 10,6 C 0,0 km/h (0 Bft) 100,00 %
26.10.2016 09:58 10,6 C 96 % 1025,8 hPa 0,0 l/m 0,0 km/h (0 Bft) W 273 0 min 0,000 mm 0,0 UV-I 76 W/m 10,0 C 10,6 C 0,0 km/h (0 Bft) 96,30 %
26.10.2016 09:59 10,6 C 96 % 1025,8 hPa 0,0 l/m 0,2 km/h (0 Bft) W 273 0 min 0,000 mm 0,0 UV-I 74 W/m 10,0 C 10,6 C 1,6 km/h (1 Bft) 100,00 %
26.10.2016 10:00 10,7 C 97 % 1025,8 hPa 0,0 l/m 0,0 km/h (0 Bft) W 273 0 min 0,025 mm 0,0 UV-I 72 W/m 10,2 C 10,7 C 0,0 km/h (0 Bft) 100,00 %
26.10.2016 10:01 10,7 C 97 % 1025,8 hPa 0,0 l/m 1,9 km/h (1 Bft) W 273 0 min 0,000 mm 0,0 UV-I 70 W/m 10,2 C 10,7 C 3,2 km/h (1 Bft) 100,00 %
26.10.2016 10:02 10,7 C 97 % 1025,8 hPa 0,0 l/m 1,2 km/h (1 Bft) W 273 0 min 0,000 mm 0,0 UV-I 68 W/m 10,2 C 10,7 C 1,6 km/h (1 Bft) 100,00 %
26.10.2016 10:03 10,7 C 97 % 1025,8 hPa 0,0 l/m 1,1 km/h (1 Bft) W 273 0 min 0,000 mm 0,0 UV-I 66 W/m 10,2 C 10,7 C 1,6 km/h (1 Bft) 100,00 %
26.10.2016 10:04 10,7 C 97 % 1025,8 hPa 0,0 l/m 0,8 km/h (0 Bft) W 273 0 min 0,000 mm 0,0 UV-I 63 W/m 10,2 C 10,7 C 1,6 km/h (1 Bft) 100,00 %
26.10.2016 10:05 10,7 C 97 % 1025,8 hPa 0,0 l/m 1,6 km/h (1 Bft) W 273 0 min 0,000 mm 0,0 UV-I 62 W/m 10,2 C 10,7 C 3,2 km/h (1 Bft) 100,00 %
26.10.2016 10:06 10,7 C 97 % 1025,8 hPa 0,0 l/m 2,4 km/h (1 Bft) W 273 0 min 0,000 mm 0,0 UV-I 62 W/m 10,2 C 10,7 C 3,2 km/h (1 Bft) 100,00 %
26.10.2016 10:07 10,7 C 97 % 1025,8 hPa 0,0 l/m 0,9 km/h (0 Bft) W 273 0 min 0,000 mm 0,0 UV-I 65 W/m 10,2 C 10,7 C 3,2 km/h (1 Bft) 100,00 %
26.10.2016 10:08 10,7 C 96 % 1025,8 hPa 0,0 l/m 0,0 km/h (0 Bft) W 273 0 min 0,000 mm 0,0 UV-I 70 W/m 10,1 C 10,7 C 0,0 km/h (0 Bft) 100,00 %
26.10.2016 10:09 10,7 C 97 % 1025,8 hPa 0,0 l/m 0,0 km/h (0 Bft) W 273 0 min 0,000 mm 0,0 UV-I 75 W/m 10,2 C 10,7 C 0,0 km/h (0 Bft) 100,00 %
26.10.2016 10:10 10,7 C 97 % 1025,8 hPa 0,0 l/m 0,0 km/h (0 Bft) W 273 0 min 0,000 mm 0,0 UV-I 79 W/m 10,2 C 10,7 C 0,0 km/h (0 Bft) 100,00 %
26.10.2016 10:11 10,7 C 96 % 1025,8 hPa 0,0 l/m 0,0 km/h (0 Bft) W 273 0 min 0,000 mm 0,0 UV-I 83 W/m 10,1 C 10,7 C 0,0 km/h (0 Bft) 100,00 %
26.10.2016 10:12 10,7 C 96 % 1025,8 hPa 0,0 l/m 0,0 km/h (0 Bft) W 273 0 min 0,000 mm 0,0 UV-I 83 W/m 10,1 C 10,7 C 0,0 km/h (0 Bft) 100,00 %
26.10.2016 10:13 10,7 C 96 % 1025,8 hPa 0,0 l/m 0,0 km/h (0 Bft) W 273 0 min 0,000 mm 0,0 UV-I 84 W/m 10,1 C 10,7 C 0,0 km/h (0 Bft) 100,00 %
26.10.2016 10:14 10,7 C 96 % 1025,7 hPa 0,0 l/m 0,0 km/h (0 Bft) W 273 0 min 0,000 mm 0,0 UV-I 85 W/m 10,1 C 10,7 C 0,0 km/h (0 Bft) 100,00 %
26.10.2016 10:15 10,7 C 96 % 1025,7 hPa 0,0 l/m 0,0 km/h (0 Bft) W 273 0 min 0,000 mm 0,0 UV-I 87 W/m 10,1 C 10,7 C 0,0 km/h (0 Bft) 100,00 %
26.10.2016 10:16 10,8 C 96 % 1025,7 hPa 0,0 l/m 0,2 km/h (0 Bft) W 273 0 min 0,000 mm 0,0 UV-I 91 W/m 10,2 C 10,8 C 1,6 km/h (1 Bft) 100,00 %
26.10.2016 10:17 10,8 C 96 % 1025,6 hPa 0,0 l/m 1,6 km/h (1 Bft) W 273 0 min 0,000 mm 0,0 UV-I 93 W/m 10,2 C 10,8 C 1,6 km/h (1 Bft) 100,00 %
26.10.2016 10:18 10,8 C 96 % 1025,7 hPa 0,0 l/m 0,9 km/h (0 Bft) W 273 0 min 0,000 mm 0,0 UV-I 92 W/m 10,2 C 10,8 C 1,6 km/h (1 Bft) 100,00 %
26.10.2016 10:19 10,8 C 96 % 1025,7 hPa 0,0 l/m 0,0 km/h (0 Bft) W 273 0 min 0,000 mm 0,0 UV-I 86 W/m 10,2 C 10,8 C 0,0 km/h (0 Bft) 100,00 %
26.10.2016 10:20 10,8 C 96 % 1025,6 hPa 0,0 l/m 0,0 km/h (0 Bft) W 273 0 min 0,000 mm 0,0 UV-I 79 W/m 10,2 C 10,8 C 0,0 km/h (0 Bft) 98,85 %
26.10.2016 10:21 10,8 C 96 % 1025,6 hPa 0,0 l/m 0,0 km/h (0 Bft) W 273 0 min 0,000 mm 0,0 UV-I 73 W/m 10,2 C 10,8 C 0,0 km/h (0 Bft) 100,00 %
26.10.2016 10:22 10,8 C 96 % 1025,6 hPa 0,0 l/m 0,0 km/h (0 Bft) W 273 0 min 0,000 mm 0,0 UV-I 70 W/m 10,2 C 10,8 C 0,0 km/h (0 Bft) 100,00 %
26.10.2016 10:23 10,8 C 96 % 1025,6 hPa 0,0 l/m 0,0 km/h (0 Bft) W 273 0 min 0,000 mm 0,0 UV-I 72 W/m 10,2 C 10,8 C 0,0 km/h (0 Bft) 91,67 %
26.10.2016 10:24 10,8 C 96 % 1025,6 hPa 0,0 l/m 0,0 km/h (0 Bft) W 273 0 min 0,000 mm 0,0 UV-I 73 W/m 10,2 C 10,8 C 0,0 km/h (0 Bft) 100,00 %
26.10.2016 10:25 10,8 C 96 % 1025,6 hPa 0,0 l/m 0,0 km/h (0 Bft) W 273 0 min 0,000 mm 0,0 UV-I 75 W/m 10,2 C 10,8 C 0,0 km/h (0 Bft) 95,83 %
26.10.2016 10:26 10,8 C 96 % 1025,6 hPa 0,0 l/m 0,0 km/h (0 Bft) W 273 0 min 0,000 mm 0,0 UV-I 80 W/m 10,2 C 10,8 C 0,0 km/h (0 Bft) 95,83 %
26.10.2016 10:27 10,8 C 96 % 1025,5 hPa 0,0 l/m 0,0 km/h (0 Bft) W 273 0 min 0,000 mm 0,0 UV-I 86 W/m 10,2 C 10,8 C 0,0 km/h (0 Bft) 100,00 %
26.10.2016 10:28 10,9 C 96 % 1025,6 hPa 0,0 l/m 0,6 km/h (0 Bft) W 273 0 min 0,000 mm 0,0 UV-I 95 W/m 10,3 C 10,9 C 1,6 km/h (1 Bft) 95,83 %
26.10.2016 10:29 10,9 C 96 % 1025,5 hPa 0,0 l/m 0,0 km/h (0 Bft) W 273 0 min 0,000 mm 0,0 UV-I 107 W/m 10,3 C 10,9 C 0,0 km/h (0 Bft) 100,00 %
26.10.2016 10:30 10,9 C 96 % 1025,5 hPa 0,0 l/m 0,0 km/h (0 Bft) W 273 0 min 0,000 mm 0,0 UV-I 120 W/m 10,3 C 10,9 C 0,0 km/h (0 Bft) 95,83 %
26.10.2016 10:31 10,9 C 96 % 1025,5 hPa 0,0 l/m 0,2 km/h (0 Bft) W 273 0 min 0,000 mm 0,0 UV-I 134 W/m 10,3 C 10,9 C 1,6 km/h (1 Bft) 100,00 %
26.10.2016 10:32 10,9 C 96 % 1025,5 hPa 0,0 l/m 0,3 km/h (0 Bft) W 273 0 min 0,000 mm 0,2 UV-I 147 W/m 10,3 C 10,9 C 1,6 km/h (1 Bft) 95,83 %
26.10.2016 10:33 11,0 C 96 % 1025,5 hPa 0,0 l/m 1,4 km/h (1 Bft) W 273 0 min 0,000 mm 0,5 UV-I 164 W/m 10,4 C 11,0 C 3,2 km/h (1 Bft) 96,15 %
26.10.2016 10:34 11,1 C 96 % 1025,6 hPa 0,0 l/m 0,0 km/h (0 Bft) W 273 0 min 0,000 mm 0,5 UV-I 180 W/m 10,5 C 11,1 C 0,0 km/h (0 Bft) 95,83 %
26.10.2016 10:35 11,1 C 96 % 1025,5 hPa 0,0 l/m 0,0 km/h (0 Bft) W 273 0 min 0,000 mm 0,5 UV-I 200 W/m 10,5 C 11,1 C 0,0 km/h (0 Bft) 100,00 %
26.10.2016 10:36 11,1 C 96 % 1025,6 hPa 0,0 l/m 0,2 km/h (0 Bft) W 273 0 min 0,000 mm 0,6 UV-I 202 W/m 10,5 C 11,1 C 1,6 km/h (1 Bft) 96,30 %
26.10.2016 10:37 11,2 C 96 % 1025,6 hPa 0,0 l/m 0,1 km/h (0 Bft) W 273 0 min 0,000 mm 0,5 UV-I 197 W/m 10,6 C 11,2 C 1,6 km/h (1 Bft) 95,65 %
26.10.2016 10:38 11,2 C 96 % 1025,6 hPa 0,0 l/m 0,0 km/h (0 Bft) W 273 0 min 0,000 mm 0,5 UV-I 172 W/m 10,6 C 11,2 C 0,0 km/h (0 Bft) 100,00 %
26.10.2016 10:39 11,2 C 96 % 1025,5 hPa 0,0 l/m 0,0 km/h (0 Bft) W 273 0 min 0,000 mm 0,2 UV-I 129 W/m 10,6 C 11,2 C 0,0 km/h (0 Bft) 95,65 %
26.10.2016 10:40 11,2 C 95 % 1025,5 hPa 0,0 l/m 0,0 km/h (0 Bft) W 273 0 min 0,000 mm 0,0 UV-I 105 W/m 10,4 C 11,2 C 0,0 km/h (0 Bft) 95,83 %
26.10.2016 10:41 11,2 C 96 % 1025,5 hPa 0,0 l/m 0,4 km/h (0 Bft) W 273 0 min 0,000 mm 0,0 UV-I 97 W/m 10,6 C 11,2 C 1,6 km/h (1 Bft) 93,33 %
26.10.2016 10:42 11,2 C 96 % 1025,5 hPa 0,0 l/m 0,8 km/h (0 Bft) W 273 0 min 0,000 mm 0,0 UV-I 94 W/m 10,6 C 11,2 C 3,2 km/h (1 Bft) 100,00 %
26.10.2016 10:43 11,2 C 95 % 1025,5 hPa 0,0 l/m 0,0 km/h (0 Bft) W 273 0 min 0,000 mm 0,0 UV-I 99 W/m 10,4 C 11,2 C 0,0 km/h (0 Bft) 95,83 %
26.10.2016 10:44 11,2 C 96 % 1025,5 hPa 0,0 l/m 0,0 km/h (0 Bft) W 273 0 min 0,000 mm 0,0 UV-I 110 W/m 10,6 C 11,2 C 0,0 km/h (0 Bft) 100,00 %
26.10.2016 10:45 11,2 C 95 % 1025,6 hPa 0,0 l/m 0,0 km/h (0 Bft) W 273 0 min 0,000 mm 0,0 UV-I 116 W/m 10,4 C 11,2 C 0,0 km/h (0 Bft) 95,83 %
26.10.2016 10:46 11,2 C 96 % 1025,6 hPa 0,0 l/m 0,0 km/h (0 Bft) W 273 0 min 0,000 mm 0,0 UV-I 109 W/m 10,6 C 11,2 C 0,0 km/h (0 Bft) 95,65 %
26.10.2016 10:47 11,3 C 96 % 1025,6 hPa 0,0 l/m 0,0 km/h (0 Bft) W 273 0 min 0,000 mm 0,0 UV-I 99 W/m 10,7 C 11,3 C 0,0 km/h (0 Bft) 100,00 %
26.10.2016 10:48 11,3 C 96 % 1025,6 hPa 0,0 l/m 0,0 km/h (0 Bft) W 273 0 min 0,000 mm 0,0 UV-I 95 W/m 10,7 C 11,3 C 0,0 km/h (0 Bft) 91,30 %
26.10.2016 10:49 11,2 C 95 % 1025,6 hPa 0,0 l/m 0,0 km/h (0 Bft) W 273 0 min 0,000 mm 0,0 UV-I 88 W/m 10,4 C 11,2 C 0,0 km/h (0 Bft) 100,00 %
26.10.2016 10:50 11,2 C 95 % 1025,6 hPa 0,0 l/m 0,1 km/h (0 Bft) W 273 0 min 0,000 mm 0,0 UV-I 78 W/m 10,4 C 11,2 C 1,6 km/h (1 Bft) 95,65 %
26.10.2016 10:51 11,2 C 95 % 1025,6 hPa 0,0 l/m 0,3 km/h (0 Bft) W 273 0 min 0,000 mm 0,0 UV-I 70 W/m 10,4 C 11,2 C 1,6 km/h (1 Bft) 95,83 %
26.10.2016 10:52 11,2 C 95 % 1025,6 hPa 0,0 l/m 0,0 km/h (0 Bft) W 273 0 min 0,000 mm 0,0 UV-I 55 W/m 10,4 C 11,2 C 0,0 km/h (0 Bft) 100,00 %
26.10.2016 10:53 11,2 C 95 % 1025,6 hPa 0,0 l/m 0,5 km/h (0 Bft) W 273 0 min 0,000 mm 0,0 UV-I 50 W/m 10,4 C 11,2 C 1,6 km/h (1 Bft) 100,00 %
26.10.2016 10:54 11,2 C 95 % 1025,6 hPa 0,0 l/m 0,5 km/h (0 Bft) W 273 0 min 0,000 mm 0,0 UV-I 50 W/m 10,4 C 11,2 C 1,6 km/h (1 Bft) 96,15 %
26.10.2016 10:55 11,2 C 95 % 1025,6 hPa 0,0 l/m 0,7 km/h (0 Bft) W 273 0 min 0,000 mm 0,0 UV-I 51 W/m 10,4 C 11,2 C 3,2 km/h (1 Bft) 95,83 %
26.10.2016 10:56 11,2 C 95 % 1025,7 hPa 0,0 l/m 1,9 km/h (1 Bft) W 273 0 min 0,000 mm 0,0 UV-I 64 W/m 10,4 C 11,2 C 3,2 km/h (1 Bft) 95,65 %
26.10.2016 10:57 11,1 C 95 % 1025,6 hPa 0,0 l/m 0,1 km/h (0 Bft) W 273 0 min 0,000 mm 0,0 UV-I 76 W/m 10,3 C 11,1 C 1,6 km/h (1 Bft) 95,83 %
26.10.2016 10:58 11,1 C 95 % 1025,6 hPa 0,0 l/m 0,0 km/h (0 Bft) W 273 0 min 0,000 mm 0,0 UV-I 85 W/m 10,3 C 11,1 C 0,0 km/h (0 Bft) 100,00 %
26.10.2016 10:59 11,2 C 95 % 1025,7 hPa 0,0 l/m 0,5 km/h (0 Bft) W 273 0 min 0,000 mm 0,0 UV-I 90 W/m 10,4 C 11,2 C 3,2 km/h (1 Bft) 95,83 %
26.10.2016 11:00 11,1 C 95 % 1025,6 hPa 0,0 l/m 2,0 km/h (1 Bft) W 273 0 min 0,051 mm 0,0 UV-I 89 W/m 10,3 C 11,1 C 3,2 km/h (1 Bft) 100,00 %
26.10.2016 11:01 11,2 C 95 % 1025,6 hPa 0,0 l/m 0,3 km/h (0 Bft) W 273 0 min 0,000 mm 0,0 UV-I 86 W/m 10,4 C 11,2 C 1,6 km/h (1 Bft) 100,00 %
26.10.2016 11:02 11,2 C 95 % 1025,6 hPa 0,0 l/m 0,8 km/h (0 Bft) W 273 0 min 0,000 mm 0,0 UV-I 79 W/m 10,4 C 11,2 C 1,6 km/h (1 Bft) 95,65 %
26.10.2016 11:03 11,2 C 95 % 1025,6 hPa 0,0 l/m 1,1 km/h (1 Bft) W 273 0 min 0,000 mm 0,0 UV-I 68 W/m 10,4 C 11,2 C 1,6 km/h (1 Bft) 98,69 %
26.10.2016 11:04 11,1 C 95 % 1025,6 hPa 0,0 l/m 0,4 km/h (0 Bft) W 274 0 min 0,000 mm 0,0 UV-I 62 W/m 10,3 C 11,1 C 1,6 km/h (1 Bft) 100,00 %
26.10.2016 11:05 11,1 C 95 % 1025,6 hPa 0,0 l/m 1,2 km/h (1 Bft) W 274 0 min 0,000 mm 0,0 UV-I 59 W/m 10,3 C 11,1 C 3,2 km/h (1 Bft) 100,00 %
26.10.2016 11:06 11,1 C 95 % 1025,6 hPa 0,0 l/m 1,2 km/h (1 Bft) N-NW 332 0 min 0,000 mm 0,0 UV-I 56 W/m 10,3 C 11,1 C 3,2 km/h (1 Bft) 91,67 %
26.10.2016 11:07 11,1 C 95 % 1025,6 hPa 0,0 l/m 1,0 km/h (0 Bft) N-NW 333 0 min 0,000 mm 0,0 UV-I 54 W/m 10,3 C 11,1 C 4,8 km/h (1 Bft) 100,00 %
26.10.2016 11:08 11,1 C 95 % 1025,6 hPa 0,0 l/m 0,1 km/h (0 Bft) N-NW 333 0 min 0,000 mm 0,0 UV-I 60 W/m 10,3 C 11,1 C 1,6 km/h (1 Bft) 100,00 %
26.10.2016 11:09 11,1 C 95 % 1025,7 hPa 0,0 l/m 0,0 km/h (0 Bft) N-NW 333 0 min 0,000 mm 0,0 UV-I 65 W/m 10,3 C 11,1 C 0,0 km/h (0 Bft) 100,00 %
26.10.2016 11:10 11,1 C 95 % 1025,6 hPa 0,0 l/m 0,0 km/h (0 Bft) N-NW 333 0 min 0,000 mm 0,0 UV-I 62 W/m 10,3 C 11,1 C 0,0 km/h (0 Bft) 100,00 %
26.10.2016 11:11 11,1 C 95 % 1025,6 hPa 0,0 l/m 0,0 km/h (0 Bft) N-NW 333 0 min 0,000 mm 0,0 UV-I 58 W/m 10,3 C 11,1 C 0,0 km/h (0 Bft) 100,00 %
26.10.2016 11:12 11,1 C 95 % 1025,6 hPa 0,0 l/m 0,4 km/h (0 Bft) N-NW 333 0 min 0,000 mm 0,0 UV-I 56 W/m 10,3 C 11,1 C 3,2 km/h (1 Bft) 100,00 %
26.10.2016 11:13 11,1 C 96 % 1025,6 hPa 0,0 l/m 1,6 km/h (1 Bft) NW 319 0 min 0,000 mm 0,0 UV-I 56 W/m 10,5 C 11,1 C 3,2 km/h (1 Bft) 100,00 %
26.10.2016 11:14 11,1 C 95 % 1025,6 hPa 0,0 l/m 2,6 km/h (1 Bft) N-NW 333 0 min 0,000 mm 0,0 UV-I 58 W/m 10,3 C 11,1 C 4,8 km/h (1 Bft) 100,00 %
26.10.2016 11:15 11,1 C 95 % 1025,6 hPa 0,0 l/m 1,6 km/h (1 Bft) NW 315 0 min 0,000 mm 0,0 UV-I 58 W/m 10,3 C 11,1 C 4,8 km/h (1 Bft) 97,37 %
26.10.2016 11:20 11,1 C 96 % 1025,7 hPa 0,0 l/m 1,6 km/h (1 Bft) N-NW 337 0 min 0,000 mm 0,0 UV-I 67 W/m 10,5 C 11,1 C 4,8 km/h (1 Bft) 95,61 %
26.10.2016 11:24 11,1 C 96 % 1025,7 hPa 0,0 l/m 2,2 km/h (1 Bft) N-NW 342 0 min 0,000 mm 0,0 UV-I 61 W/m 10,5 C 11,1 C 3,2 km/h (1 Bft) 99,13 %
26.10.2016 11:25 11,1 C 96 % 1025,7 hPa 0,0 l/m 0,5 km/h (0 Bft) N-NW 342 0 min 0,000 mm 0,0 UV-I 62 W/m 10,5 C 11,1 C 1,6 km/h (1 Bft) 100,00 %
26.10.2016 11:26 11,0 C 96 % 1025,8 hPa 0,0 l/m 1,5 km/h (1 Bft) N-NO 13 0 min 0,000 mm 0,0 UV-I 62 W/m 10,4 C 11,0 C 3,2 km/h (1 Bft) 100,00 %
26.10.2016 11:27 11,0 C 96 % 1025,7 hPa 0,0 l/m 0,1 km/h (0 Bft) N-NO 13 0 min 0,000 mm 0,0 UV-I 63 W/m 10,4 C 11,0 C 1,6 km/h (1 Bft) 100,00 %
26.10.2016 11:28 11,0 C 96 % 1025,8 hPa 0,0 l/m 0,5 km/h (0 Bft) N-NO 13 0 min 0,000 mm 0,0 UV-I 63 W/m 10,4 C 11,0 C 1,6 km/h (1 Bft) 95,65 %
26.10.2016 11:29 10,9 C 96 % 1025,8 hPa 0,0 l/m 0,6 km/h (0 Bft) N-NO 13 0 min 0,000 mm 0,0 UV-I 64 W/m 10,3 C 10,9 C 1,6 km/h (1 Bft) 100,00 %
26.10.2016 11:30 10,9 C 96 % 1025,7 hPa 0,0 l/m 0,9 km/h (0 Bft) N-NO 13 0 min 0,000 mm 0,0 UV-I 68 W/m 10,3 C 10,9 C 1,6 km/h (1 Bft) 100,00 %
26.10.2016 11:31 11,0 C 96 % 1025,7 hPa 0,0 l/m 0,0 km/h (0 Bft) N-NO 13 0 min 0,000 mm 0,0 UV-I 71 W/m 10,4 C 11,0 C 0,0 km/h (0 Bft) 100,00 %
26.10.2016 11:32 11,0 C 96 % 1025,7 hPa 0,0 l/m 0,3 km/h (0 Bft) N-NO 13 0 min 0,000 mm 0,0 UV-I 76 W/m 10,4 C 11,0 C 1,6 km/h (1 Bft) 100,00 %
26.10.2016 11:33 11,0 C 96 % 1025,7 hPa 0,0 l/m 1,1 km/h (1 Bft) N-NO 13 0 min 0,000 mm 0,0 UV-I 79 W/m 10,4 C 11,0 C 1,6 km/h (1 Bft) 95,83 %
26.10.2016 11:34 11,0 C 96 % 1025,8 hPa 0,0 l/m 0,0 km/h (0 Bft) N-NO 13 0 min 0,000 mm 0,0 UV-I 83 W/m 10,4 C 11,0 C 0,0 km/h (0 Bft) 96,15 %
26.10.2016 11:35 11,0 C 96 % 1025,8 hPa 0,0 l/m 0,4 km/h (0 Bft) N-NO 13 0 min 0,000 mm 0,0 UV-I 83 W/m 10,4 C 11,0 C 1,6 km/h (1 Bft) 96,30 %
26.10.2016 11:36 11,0 C 96 % 1025,8 hPa 0,0 l/m 1,3 km/h (1 Bft) N 5 0 min 0,000 mm 0,0 UV-I 83 W/m 10,4 C 11,0 C 3,2 km/h (1 Bft) 100,00 %
26.10.2016 11:37 11,0 C 96 % 1025,8 hPa 0,0 l/m 0,0 km/h (0 Bft) N 5 0 min 0,000 mm 0,0 UV-I 83 W/m 10,4 C 11,0 C 0,0 km/h (0 Bft) 100,00 %
26.10.2016 11:38 11,1 C 96 % 1025,8 hPa 0,0 l/m 0,0 km/h (0 Bft) N 5 0 min 0,000 mm 0,0 UV-I 81 W/m 10,5 C 11,1 C 0,0 km/h (0 Bft) 100,00 %
26.10.2016 11:39 11,0 C 96 % 1025,8 hPa 0,0 l/m 0,6 km/h (0 Bft) N 5 0 min 0,000 mm 0,0 UV-I 81 W/m 10,4 C 11,0 C 1,6 km/h (1 Bft) 100,00 %
26.10.2016 11:40 11,0 C 96 % 1025,8 hPa 0,0 l/m 0,0 km/h (0 Bft) N 5 0 min 0,000 mm 0,0 UV-I 81 W/m 10,4 C 11,0 C 0,0 km/h (0 Bft) 96,15 %
26.10.2016 11:41 11,0 C 96 % 1025,8 hPa 0,0 l/m 0,0 km/h (0 Bft) N 5 0 min 0,000 mm 0,0 UV-I 81 W/m 10,4 C 11,0 C 0,0 km/h (0 Bft) 100,00 %
26.10.2016 11:42 11,1 C 96 % 1025,8 hPa 0,0 l/m 0,6 km/h (0 Bft) N 5 0 min 0,000 mm 0,0 UV-I 81 W/m 10,5 C 11,1 C 1,6 km/h (1 Bft) 91,67 %
26.10.2016 11:43 11,1 C 96 % 1025,8 hPa 0,0 l/m 0,9 km/h (0 Bft) N 5 0 min 0,000 mm 0,0 UV-I 81 W/m 10,5 C 11,1 C 3,2 km/h (1 Bft) 100,00 %
26.10.2016 11:44 11,1 C 96 % 1025,8 hPa 0,0 l/m 0,1 km/h (0 Bft) N 5 0 min 0,000 mm 0,0 UV-I 79 W/m 10,5 C 11,1 C 1,6 km/h (1 Bft) 100,00 %
26.10.2016 11:45 11,1 C 96 % 1025,8 hPa 0,0 l/m 0,0 km/h (0 Bft) N 5 0 min 0,000 mm 0,0 UV-I 77 W/m 10,5 C 11,1 C 0,0 km/h (0 Bft) 100,00 %
26.10.2016 11:46 11,1 C 96 % 1025,8 hPa 0,0 l/m 0,0 km/h (0 Bft) N 5 0 min 0,000 mm 0,0 UV-I 76 W/m 10,5 C 11,1 C 0,0 km/h (0 Bft) 100,00 %
26.10.2016 11:47 11,1 C 96 % 1025,8 hPa 0,0 l/m 0,0 km/h (0 Bft) N 5 0 min 0,000 mm 0,0 UV-I 76 W/m 10,5 C 11,1 C 0,0 km/h (0 Bft) 96,15 %
26.10.2016 11:48 11,1 C 96 % 1025,8 hPa 0,0 l/m 0,1 km/h (0 Bft) N 5 0 min 0,000 mm 0,0 UV-I 76 W/m 10,5 C 11,1 C 1,6 km/h (1 Bft) 100,00 %
26.10.2016 11:49 11,2 C 96 % 1025,8 hPa 0,0 l/m 0,2 km/h (0 Bft) N 5 0 min 0,000 mm 0,0 UV-I 77 W/m 10,6 C 11,2 C 1,6 km/h (1 Bft) 100,00 %
26.10.2016 11:50 11,2 C 96 % 1025,8 hPa 0,0 l/m 1,1 km/h (1 Bft) N 5 0 min 0,000 mm 0,0 UV-I 79 W/m 10,6 C 11,2 C 1,6 km/h (1 Bft) 100,00 %
26.10.2016 11:51 11,2 C 96 % 1025,8 hPa 0,0 l/m 0,0 km/h (0 Bft) N 5 0 min 0,000 mm 0,0 UV-I 79 W/m 10,6 C 11,2 C 0,0 km/h (0 Bft) 95,65 %
26.10.2016 11:52 11,2 C 96 % 1025,8 hPa 0,0 l/m 0,0 km/h (0 Bft) N 5 0 min 0,000 mm 0,0 UV-I 81 W/m 10,6 C 11,2 C 0,0 km/h (0 Bft) 95,83 %
26.10.2016 11:53 11,2 C 96 % 1025,8 hPa 0,0 l/m 0,2 km/h (0 Bft) N 5 0 min 0,000 mm 0,0 UV-I 86 W/m 10,6 C 11,2 C 1,6 km/h (1 Bft) 96,15 %
26.10.2016 11:54 11,2 C 96 % 1025,8 hPa 0,0 l/m 0,1 km/h (0 Bft) N 5 0 min 0,000 mm 0,0 UV-I 88 W/m 10,6 C 11,2 C 1,6 km/h (1 Bft) 100,00 %
26.10.2016 11:55 11,2 C 96 % 1025,8 hPa 0,0 l/m 0,0 km/h (0 Bft) N 5 0 min 0,000 mm 0,0 UV-I 88 W/m 10,6 C 11,2 C 0,0 km/h (0 Bft) 100,00 %
26.10.2016 11:56 11,2 C 96 % 1025,8 hPa 0,0 l/m 0,0 km/h (0 Bft) N 5 0 min 0,000 mm 0,0 UV-I 88 W/m 10,6 C 11,2 C 0,0 km/h (0 Bft) 100,00 %
26.10.2016 11:57 11,2 C 95 % 1025,8 hPa 0,0 l/m 0,0 km/h (0 Bft) N 5 0 min 0,000 mm 0,0 UV-I 88 W/m 10,4 C 11,2 C 0,0 km/h (0 Bft) 100,00 %
26.10.2016 11:58 11,2 C 96 % 1025,8 hPa 0,0 l/m 0,0 km/h (0 Bft) N 5 0 min 0,000 mm 0,0 UV-I 88 W/m 10,6 C 11,2 C 0,0 km/h (0 Bft) 95,65 %
26.10.2016 11:59 11,2 C 95 % 1025,8 hPa 0,0 l/m 0,0 km/h (0 Bft) N 5 0 min 0,000 mm 0,0 UV-I 88 W/m 10,4 C 11,2 C 0,0 km/h (0 Bft) 100,00 %
26.10.2016 12:00 11,2 C 96 % 1025,8 hPa 0,0 l/m 0,0 km/h (0 Bft) N 5 0 min 0,000 mm 0,0 UV-I 88 W/m 10,6 C 11,2 C 0,0 km/h (0 Bft) 95,65 %
26.10.2016 12:01 11,2 C 96 % 1025,8 hPa 0,0 l/m 0,2 km/h (0 Bft) N 5 0 min 0,026 mm 0,0 UV-I 88 W/m 10,6 C 11,2 C 1,6 km/h (1 Bft) 100,00 %
26.10.2016 12:02 11,2 C 96 % 1025,8 hPa 0,0 l/m 0,3 km/h (0 Bft) N 5 0 min 0,000 mm 0,0 UV-I 90 W/m 10,6 C 11,2 C 1,6 km/h (1 Bft) 100,00 %
26.10.2016 12:03 11,2 C 96 % 1025,8 hPa 0,0 l/m 0,0 km/h (0 Bft) N 5 0 min 0,000 mm 0,0 UV-I 92 W/m 10,6 C 11,2 C 0,0 km/h (0 Bft) 95,83 %
26.10.2016 12:04 11,2 C 95 % 1025,8 hPa 0,0 l/m 0,1 km/h (0 Bft) N 5 0 min 0,000 mm 0,0 UV-I 94 W/m 10,4 C 11,2 C 1,6 km/h (1 Bft) 95,65 %
26.10.2016 12:05 11,2 C 95 % 1025,8 hPa 0,0 l/m 0,7 km/h (0 Bft) N 5 0 min 0,000 mm 0,0 UV-I 96 W/m 10,4 C 11,2 C 1,6 km/h (1 Bft) 100,00 %
26.10.2016 12:06 11,2 C 95 % 1025,8 hPa 0,0 l/m 0,6 km/h (0 Bft) N 5 0 min 0,000 mm 0,0 UV-I 98 W/m 10,4 C 11,2 C 1,6 km/h (1 Bft) 95,65 %
26.10.2016 12:07 11,2 C 95 % 1025,7 hPa 0,0 l/m 0,0 km/h (0 Bft) N 5 0 min 0,000 mm 0,0 UV-I 100 W/m 10,4 C 11,2 C 0,0 km/h (0 Bft) 100,00 %
26.10.2016 12:08 11,2 C 95 % 1025,8 hPa 0,0 l/m 0,6 km/h (0 Bft) N 5 0 min 0,000 mm 0,0 UV-I 102 W/m 10,4 C 11,2 C 1,6 km/h (1 Bft) 100,00 %
26.10.2016 12:09 11,3 C 95 % 1025,8 hPa 0,0 l/m 0,6 km/h (0 Bft) N 5 0 min 0,000 mm 0,0 UV-I 104 W/m 10,5 C 11,3 C 1,6 km/h (1 Bft) 100,00 %
26.10.2016 12:10 11,3 C 95 % 1025,8 hPa 0,0 l/m 0,0 km/h (0 Bft) N 5 0 min 0,000 mm 0,0 UV-I 105 W/m 10,5 C 11,3 C 0,0 km/h (0 Bft) 100,00 %
26.10.2016 12:11 11,3 C 95 % 1025,8 hPa 0,0 l/m 0,0 km/h (0 Bft) N 5 0 min 0,000 mm 0,0 UV-I 104 W/m 10,5 C 11,3 C 0,0 km/h (0 Bft) 100,00 %
26.10.2016 12:12 11,3 C 95 % 1025,8 hPa 0,0 l/m 0,0 km/h (0 Bft) N 5 0 min 0,000 mm 0,0 UV-I 103 W/m 10,5 C 11,3 C 0,0 km/h (0 Bft) 100,00 %
26.10.2016 12:13 11,3 C 95 % 1025,8 hPa 0,0 l/m 0,0 km/h (0 Bft) N 5 0 min 0,000 mm 0,0 UV-I 100 W/m 10,5 C 11,3 C 0,0 km/h (0 Bft) 100,00 %
26.10.2016 12:14 11,4 C 95 % 1025,8 hPa 0,0 l/m 0,1 km/h (0 Bft) N 5 0 min 0,000 mm 0,0 UV-I 102 W/m 10,6 C 11,4 C 1,6 km/h (1 Bft) 100,00 %
26.10.2016 12:15 11,4 C 95 % 1025,7 hPa 0,0 l/m 0,3 km/h (0 Bft) N 5 0 min 0,000 mm 0,1 UV-I 105 W/m 10,6 C 11,4 C 1,6 km/h (1 Bft) 100,00 %
26.10.2016 12:16 11,4 C 95 % 1025,8 hPa 0,0 l/m 0,0 km/h (0 Bft) N 5 0 min 0,000 mm 0,5 UV-I 108 W/m 10,6 C 11,4 C 0,0 km/h (0 Bft) 95,65 %
26.10.2016 12:17 11,4 C 95 % 1025,8 hPa 0,0 l/m 0,8 km/h (0 Bft) N 5 0 min 0,000 mm 0,5 UV-I 109 W/m 10,6 C 11,4 C 1,6 km/h (1 Bft) 96,15 %
26.10.2016 12:18 11,4 C 95 % 1025,7 hPa 0,0 l/m 0,1 km/h (0 Bft) N 5 0 min 0,000 mm 0,5 UV-I 108 W/m 10,6 C 11,4 C 1,6 km/h (1 Bft) 100,00 %
26.10.2016 12:19 11,4 C 95 % 1025,7 hPa 0,0 l/m 0,0 km/h (0 Bft) N 5 0 min 0,000 mm 0,5 UV-I 105 W/m 10,6 C 11,4 C 0,0 km/h (0 Bft) 100,00 %
26.10.2016 12:20 11,4 C 95 % 1025,7 hPa 0,0 l/m 0,0 km/h (0 Bft) N 5 0 min 0,000 mm 0,5 UV-I 105 W/m 10,6 C 11,4 C 0,0 km/h (0 Bft) 100,00 %
26.10.2016 12:21 11,4 C 95 % 1025,7 hPa 0,0 l/m 0,0 km/h (0 Bft) N 5 0 min 0,000 mm 0,5 UV-I 113 W/m 10,6 C 11,4 C 0,0 km/h (0 Bft) 100,00 %
26.10.2016 12:22 11,5 C 95 % 1025,7 hPa 0,0 l/m 1,3 km/h (1 Bft) N 5 0 min 0,000 mm 0,6 UV-I 119 W/m 10,7 C 11,5 C 3,2 km/h (1 Bft) 100,00 %
26.10.2016 12:23 11,4 C 94 % 1025,7 hPa 0,0 l/m 1,3 km/h (1 Bft) N 5 0 min 0,000 mm 0,6 UV-I 122 W/m 10,5 C 11,4 C 1,6 km/h (1 Bft) 100,00 %
26.10.2016 12:24 11,4 C 93 % 1025,7 hPa 0,0 l/m 0,2 km/h (0 Bft) N 5 0 min 0,000 mm 0,6 UV-I 135 W/m 10,3 C 11,4 C 1,6 km/h (1 Bft) 100,00 %
26.10.2016 12:25 11,5 C 93 % 1025,7 hPa 0,0 l/m 1,8 km/h (1 Bft) N 5 0 min 0,000 mm 0,6 UV-I 139 W/m 10,4 C 11,5 C 3,2 km/h (1 Bft) 100,00 %
26.10.2016 12:26 11,5 C 93 % 1025,6 hPa 0,0 l/m 1,2 km/h (1 Bft) N 349 0 min 0,000 mm 0,5 UV-I 137 W/m 10,4 C 11,5 C 3,2 km/h (1 Bft) 100,00 %
26.10.2016 12:27 11,6 C 93 % 1025,6 hPa 0,0 l/m 1,3 km/h (1 Bft) N-NW 331 0 min 0,000 mm 0,5 UV-I 137 W/m 10,5 C 11,6 C 1,6 km/h (1 Bft) 100,00 %
26.10.2016 12:28 11,6 C 93 % 1025,6 hPa 0,0 l/m 1,7 km/h (1 Bft) NW 322 0 min 0,000 mm 0,5 UV-I 137 W/m 10,5 C 11,6 C 3,2 km/h (1 Bft) 100,00 %
26.10.2016 12:29 11,6 C 93 % 1025,6 hPa 0,0 l/m 2,0 km/h (1 Bft) NW 322 0 min 0,000 mm 0,5 UV-I 137 W/m 10,5 C 11,6 C 3,2 km/h (1 Bft) 100,00 %
26.10.2016 12:30 11,6 C 93 % 1025,6 hPa 0,0 l/m 1,2 km/h (1 Bft) NW 322 0 min 0,000 mm 0,5 UV-I 126 W/m 10,5 C 11,6 C 1,6 km/h (1 Bft) 95,83 %
26.10.2016 12:31 11,6 C 93 % 1025,6 hPa 0,0 l/m 0,1 km/h (0 Bft) NW 322 0 min 0,000 mm 0,1 UV-I 115 W/m 10,5 C 11,6 C 1,6 km/h (1 Bft) 100,00 %
26.10.2016 12:32 11,6 C 93 % 1025,6 hPa 0,0 l/m 0,4 km/h (0 Bft) NW 322 0 min 0,000 mm 0,0 UV-I 110 W/m 10,5 C 11,6 C 1,6 km/h (1 Bft) 96,55 %
26.10.2016 12:33 11,7 C 93 % 1025,5 hPa 0,0 l/m 0,6 km/h (0 Bft) NW 322 0 min 0,000 mm 0,0 UV-I 102 W/m 10,6 C 11,7 C 1,6 km/h (1 Bft) 100,00 %
26.10.2016 12:34 11,7 C 93 % 1025,5 hPa 0,0 l/m 2,8 km/h (1 Bft) W-NW 292 0 min 0,000 mm 0,0 UV-I 97 W/m 10,6 C 11,7 C 4,8 km/h (1 Bft) 91,67 %
26.10.2016 12:35 11,6 C 93 % 1025,5 hPa 0,0 l/m 3,1 km/h (1 Bft) W-NW 290 0 min 0,000 mm 0,0 UV-I 100 W/m 10,5 C 11,6 C 4,8 km/h (1 Bft) 97,37 %
26.10.2016 12:36 11,7 C 93 % 1025,6 hPa 0,0 l/m 2,7 km/h (1 Bft) W-NW 290 0 min 0,000 mm 0,0 UV-I 105 W/m 10,6 C 11,7 C 3,2 km/h (1 Bft) 100,00 %
26.10.2016 12:37 11,6 C 93 % 1025,5 hPa 0,0 l/m 2,5 km/h (1 Bft) W-NW 290 0 min 0,000 mm 0,0 UV-I 109 W/m 10,5 C 11,6 C 3,2 km/h (1 Bft) 100,00 %
26.10.2016 12:38 11,6 C 93 % 1025,5 hPa 0,0 l/m 2,5 km/h (1 Bft) W-NW 290 0 min 0,000 mm 0,0 UV-I 109 W/m 10,5 C 11,6 C 3,2 km/h (1 Bft) 97,56 %
26.10.2016 12:39 11,6 C 94 % 1025,5 hPa 0,0 l/m 1,5 km/h (1 Bft) W-NW 290 0 min 0,000 mm 0,0 UV-I 110 W/m 10,7 C 11,6 C 3,2 km/h (1 Bft) 95,83 %
26.10.2016 12:40 11,6 C 94 % 1025,6 hPa 0,0 l/m 0,7 km/h (0 Bft) W-NW 290 0 min 0,000 mm 0,0 UV-I 109 W/m 10,7 C 11,6 C 1,6 km/h (1 Bft) 100,00 %
26.10.2016 12:41 11,6 C 94 % 1025,5 hPa 0,0 l/m 1,3 km/h (1 Bft) W-NW 290 0 min 0,000 mm 0,0 UV-I 109 W/m 10,7 C 11,6 C 3,2 km/h (1 Bft) 95,83 %
26.10.2016 12:42 11,6 C 94 % 1025,6 hPa 0,0 l/m 1,9 km/h (1 Bft) W-NW 290 0 min 0,000 mm 0,0 UV-I 109 W/m 10,7 C 11,6 C 3,2 km/h (1 Bft) 100,00 %
26.10.2016 12:43 11,6 C 94 % 1025,5 hPa 0,0 l/m 0,5 km/h (0 Bft) W-NW 290 0 min 0,000 mm 0,0 UV-I 109 W/m 10,7 C 11,6 C 1,6 km/h (1 Bft) 95,83 %
26.10.2016 12:44 11,6 C 94 % 1025,6 hPa 0,0 l/m 1,4 km/h (1 Bft) W-NW 290 0 min 0,000 mm 0,0 UV-I 110 W/m 10,7 C 11,6 C 3,2 km/h (1 Bft) 96,15 %
26.10.2016 12:45 11,6 C 94 % 1025,6 hPa 0,0 l/m 1,8 km/h (1 Bft) W-NW 290 0 min 0,000 mm 0,0 UV-I 111 W/m 10,7 C 11,6 C 3,2 km/h (1 Bft) 95,83 %
26.10.2016 12:46 11,6 C 94 % 1025,6 hPa 0,0 l/m 0,7 km/h (0 Bft) W-NW 290 0 min 0,000 mm 0,0 UV-I 112 W/m 10,7 C 11,6 C 1,6 km/h (1 Bft) 95,65 %
26.10.2016 12:47 11,6 C 93 % 1025,6 hPa 0,0 l/m 1,9 km/h (1 Bft) W-NW 290 0 min 0,000 mm 0,0 UV-I 113 W/m 10,5 C 11,6 C 3,2 km/h (1 Bft) 100,00 %
26.10.2016 12:48 11,6 C 94 % 1025,6 hPa 0,0 l/m 0,9 km/h (0 Bft) W-NW 290 0 min 0,000 mm 0,0 UV-I 114 W/m 10,7 C 11,6 C 1,6 km/h (1 Bft) 91,30 %
26.10.2016 12:49 11,6 C 93 % 1025,6 hPa 0,0 l/m 0,6 km/h (0 Bft) W-NW 290 0 min 0,000 mm 0,0 UV-I 114 W/m 10,5 C 11,6 C 1,6 km/h (1 Bft) 100,00 %
26.10.2016 12:50 11,6 C 93 % 1025,6 hPa 0,0 l/m 0,6 km/h (0 Bft) W-NW 290 0 min 0,000 mm 0,4 UV-I 114 W/m 10,5 C 11,6 C 1,6 km/h (1 Bft) 88,24 %
26.10.2016 12:51 11,6 C 93 % 1025,6 hPa 0,0 l/m 0,1 km/h (0 Bft) W-NW 290 0 min 0,000 mm 0,1 UV-I 114 W/m 10,5 C 11,6 C 1,6 km/h (1 Bft) 100,00 %
26.10.2016 12:52 11,6 C 93 % 1025,6 hPa 0,0 l/m 0,0 km/h (0 Bft) W-NW 290 0 min 0,000 mm 0,3 UV-I 108 W/m 10,5 C 11,6 C 0,0 km/h (0 Bft) 95,65 %
26.10.2016 12:53 11,6 C 93 % 1025,6 hPa 0,0 l/m 0,0 km/h (0 Bft) W-NW 290 0 min 0,000 mm 0,2 UV-I 109 W/m 10,5 C 11,6 C 0,0 km/h (0 Bft) 100,00 %
26.10.2016 12:54 11,6 C 94 % 1025,6 hPa 0,0 l/m 0,0 km/h (0 Bft) W-NW 290 0 min 0,000 mm 0,5 UV-I 113 W/m 10,7 C 11,6 C 0,0 km/h (0 Bft) 94,44 %
26.10.2016 12:55 11,6 C 94 % 1025,6 hPa 0,0 l/m 0,0 km/h (0 Bft) W-NW 290 0 min 0,000 mm 0,5 UV-I 118 W/m 10,7 C 11,6 C 0,0 km/h (0 Bft) 95,65 %
26.10.2016 12:56 11,7 C 94 % 1025,6 hPa 0,0 l/m 0,0 km/h (0 Bft) W-NW 290 0 min 0,000 mm 0,5 UV-I 118 W/m 10,8 C 11,7 C 0,0 km/h (0 Bft) 95,83 %
26.10.2016 12:57 11,7 C 94 % 1025,6 hPa 0,0 l/m 0,0 km/h (0 Bft) W-NW 290 0 min 0,000 mm 0,4 UV-I 117 W/m 10,8 C 11,7 C 0,0 km/h (0 Bft) 96,15 %
26.10.2016 12:58 11,7 C 94 % 1025,6 hPa 0,0 l/m 0,0 km/h (0 Bft) W-NW 290 0 min 0,000 mm 0,0 UV-I 114 W/m 10,8 C 11,7 C 0,0 km/h (0 Bft) 100,00 %
26.10.2016 12:59 11,7 C 93 % 1025,6 hPa 0,0 l/m 0,0 km/h (0 Bft) W-NW 290 0 min 0,000 mm 0,0 UV-I 110 W/m 10,6 C 11,7 C 0,0 km/h (0 Bft) 95,65 %
26.10.2016 13:00 11,7 C 93 % 1025,6 hPa 0,0 l/m 0,0 km/h (0 Bft) W-NW 290 0 min 0,000 mm 0,0 UV-I 107 W/m 10,6 C 11,7 C 0,0 km/h (0 Bft) 100,00 %
26.10.2016 13:01 11,8 C 93 % 1025,6 hPa 0,0 l/m 0,1 km/h (0 Bft) W-NW 290 0 min 0,050 mm 0,0 UV-I 105 W/m 10,7 C 11,8 C 1,6 km/h (1 Bft) 95,65 %
26.10.2016 13:02 11,8 C 93 % 1025,6 hPa 0,0 l/m 1,9 km/h (1 Bft) W-NW 290 0 min 0,000 mm 0,0 UV-I 105 W/m 10,7 C 11,8 C 3,2 km/h (1 Bft) 95,83 %
26.10.2016 13:03 11,7 C 93 % 1025,6 hPa 0,0 l/m 1,3 km/h (1 Bft) W-NW 290 0 min 0,000 mm 0,0 UV-I 107 W/m 10,6 C 11,7 C 1,6 km/h (1 Bft) 96,55 %
26.10.2016 13:04 11,7 C 93 % 1025,6 hPa 0,0 l/m 0,1 km/h (0 Bft) W-NW 290 0 min 0,000 mm 0,0 UV-I 108 W/m 10,6 C 11,7 C 1,6 km/h (1 Bft) 95,83 %
26.10.2016 13:05 11,8 C 93 % 1025,5 hPa 0,0 l/m 0,0 km/h (0 Bft) W-NW 290 0 min 0,000 mm 0,0 UV-I 110 W/m 10,7 C 11,8 C 0,0 km/h (0 Bft) 95,65 %
26.10.2016 13:06 11,8 C 93 % 1025,6 hPa 0,0 l/m 0,0 km/h (0 Bft) W-NW 290 0 min 0,000 mm 0,0 UV-I 111 W/m 10,7 C 11,8 C 0,0 km/h (0 Bft) 100,00 %
26.10.2016 13:07 11,7 C 93 % 1025,5 hPa 0,0 l/m 0,0 km/h (0 Bft) W-NW 290 0 min 0,000 mm 0,0 UV-I 111 W/m 10,6 C 11,7 C 0,0 km/h (0 Bft) 100,00 %
26.10.2016 13:08 11,7 C 93 % 1025,6 hPa 0,0 l/m 0,3 km/h (0 Bft) W-NW 290 0 min 0,000 mm 0,0 UV-I 113 W/m 10,6 C 11,7 C 1,6 km/h (1 Bft) 100,00 %
26.10.2016 13:09 11,7 C 93 % 1025,6 hPa 0,0 l/m 0,3 km/h (0 Bft) W-NW 290 0 min 0,000 mm 0,0 UV-I 113 W/m 10,6 C 11,7 C 1,6 km/h (1 Bft) 100,00 %
26.10.2016 13:10 11,7 C 93 % 1025,6 hPa 0,0 l/m 0,1 km/h (0 Bft) W-NW 290 0 min 0,000 mm 0,0 UV-I 116 W/m 10,6 C 11,7 C 1,6 km/h (1 Bft) 100,00 %
26.10.2016 13:11 11,7 C 93 % 1025,6 hPa 0,0 l/m 0,4 km/h (0 Bft) W-NW 290 0 min 0,000 mm 0,0 UV-I 119 W/m 10,6 C 11,7 C 1,6 km/h (1 Bft) 100,00 %
26.10.2016 13:12 11,8 C 93 % 1025,6 hPa 0,0 l/m 0,8 km/h (0 Bft) W-NW 290 0 min 0,000 mm 0,0 UV-I 125 W/m 10,7 C 11,8 C 1,6 km/h (1 Bft) 92,59 %
26.10.2016 13:13 11,8 C 93 % 1025,6 hPa 0,0 l/m 1,0 km/h (0 Bft) W-NW 290 0 min 0,000 mm 0,4 UV-I 133 W/m 10,7 C 11,8 C 1,6 km/h (1 Bft) 95,65 %
26.10.2016 13:14 11,7 C 93 % 1025,6 hPa 0,0 l/m 0,7 km/h (0 Bft) W-NW 290 0 min 0,000 mm 0,5 UV-I 139 W/m 10,6 C 11,7 C 1,6 km/h (1 Bft) 100,00 %
26.10.2016 13:15 11,7 C 93 % 1025,6 hPa 0,0 l/m 0,2 km/h (0 Bft) W-NW 290 0 min 0,000 mm 0,5 UV-I 144 W/m 10,6 C 11,7 C 1,6 km/h (1 Bft) 100,00 %
26.10.2016 13:16 11,8 C 93 % 1025,6 hPa 0,0 l/m 0,0 km/h (0 Bft) W-NW 290 0 min 0,000 mm 0,5 UV-I 149 W/m 10,7 C 11,8 C 0,0 km/h (0 Bft) 100,00 %
26.10.2016 13:17 11,8 C 93 % 1025,6 hPa 0,0 l/m 0,0 km/h (0 Bft) W-NW 290 0 min 0,000 mm 0,5 UV-I 158 W/m 10,7 C 11,8 C 0,0 km/h (0 Bft) 95,65 %
26.10.2016 13:18 11,8 C 92 % 1025,6 hPa 0,0 l/m 0,0 km/h (0 Bft) W-NW 290 0 min 0,000 mm 0,6 UV-I 171 W/m 10,5 C 11,8 C 0,0 km/h (0 Bft) 100,00 %
26.10.2016 13:19 11,8 C 93 % 1025,6 hPa 0,0 l/m 0,4 km/h (0 Bft) W-NW 290 0 min 0,000 mm 0,6 UV-I 180 W/m 10,7 C 11,8 C 1,6 km/h (1 Bft) 100,00 %
26.10.2016 13:20 11,8 C 93 % 1025,6 hPa 0,0 l/m 0,3 km/h (0 Bft) W-NW 290 0 min 0,000 mm 0,6 UV-I 187 W/m 10,7 C 11,8 C 1,6 km/h (1 Bft) 100,00 %
26.10.2016 13:21 11,9 C 93 % 1025,6 hPa 0,0 l/m 0,0 km/h (0 Bft) W-NW 290 0 min 0,000 mm 0,6 UV-I 193 W/m 10,8 C 11,9 C 0,0 km/h (0 Bft) 96,30 %
26.10.2016 13:22 11,8 C 92 % 1025,6 hPa 0,0 l/m 0,0 km/h (0 Bft) W-NW 290 0 min 0,000 mm 0,6 UV-I 199 W/m 10,5 C 11,8 C 0,0 km/h (0 Bft) 100,00 %
26.10.2016 13:23 11,9 C 92 % 1025,6 hPa 0,0 l/m 0,0 km/h (0 Bft) W-NW 290 0 min 0,000 mm 0,6 UV-I 205 W/m 10,6 C 11,9 C 0,0 km/h (0 Bft) 100,00 %
26.10.2016 13:24 11,9 C 93 % 1025,6 hPa 0,0 l/m 0,3 km/h (0 Bft) W-NW 290 0 min 0,000 mm 0,6 UV-I 214 W/m 10,8 C 11,9 C 1,6 km/h (1 Bft) 100,00 %
26.10.2016 13:25 11,9 C 93 % 1025,6 hPa 0,0 l/m 0,5 km/h (0 Bft) W-NW 290 0 min 0,000 mm 0,7 UV-I 225 W/m 10,8 C 11,9 C 1,6 km/h (1 Bft) 100,00 %
26.10.2016 13:26 12,0 C 93 % 1025,6 hPa 0,0 l/m 1,1 km/h (1 Bft) W-NW 290 0 min 0,000 mm 0,7 UV-I 233 W/m 10,9 C 12,0 C 3,2 km/h (1 Bft) 100,00 %
26.10.2016 13:27 12,0 C 92 % 1025,7 hPa 0,0 l/m 1,9 km/h (1 Bft) W-NW 290 0 min 0,000 mm 0,7 UV-I 242 W/m 10,7 C 12,0 C 3,2 km/h (1 Bft) 95,83 %
26.10.2016 13:28 12,1 C 93 % 1025,7 hPa 0,0 l/m 2,7 km/h (1 Bft) W-NW 290 0 min 0,000 mm 0,7 UV-I 245 W/m 11,0 C 12,1 C 3,2 km/h (1 Bft) 100,00 %
26.10.2016 13:29 12,1 C 92 % 1025,7 hPa 0,0 l/m 1,3 km/h (1 Bft) W-NW 290 0 min 0,000 mm 0,7 UV-I 250 W/m 10,8 C 12,1 C 3,2 km/h (1 Bft) 100,00 %
26.10.2016 13:30 12,1 C 93 % 1025,7 hPa 0,0 l/m 3,1 km/h (1 Bft) W-NW 298 0 min 0,000 mm 0,7 UV-I 250 W/m 11,0 C 12,1 C 4,8 km/h (1 Bft) 100,00 %
26.10.2016 13:31 12,1 C 92 % 1025,7 hPa 0,0 l/m 2,8 km/h (1 Bft) W-NW 298 0 min 0,000 mm 0,7 UV-I 247 W/m 10,8 C 12,1 C 4,8 km/h (1 Bft) 100,00 %
26.10.2016 13:32 12,1 C 92 % 1025,7 hPa 0,0 l/m 2,6 km/h (1 Bft) W-NW 298 0 min 0,000 mm 0,7 UV-I 242 W/m 10,8 C 12,1 C 3,2 km/h (1 Bft) 100,00 %
26.10.2016 13:33 12,1 C 92 % 1025,7 hPa 0,0 l/m 1,0 km/h (0 Bft) W-NW 298 0 min 0,000 mm 0,7 UV-I 237 W/m 10,8 C 12,1 C 3,2 km/h (1 Bft) 100,00 %
26.10.2016 13:34 12,2 C 92 % 1025,6 hPa 0,0 l/m 0,3 km/h (0 Bft) W-NW 298 0 min 0,000 mm 0,7 UV-I 228 W/m 10,9 C 12,2 C 3,2 km/h (1 Bft) 100,00 %
26.10.2016 13:35 12,2 C 92 % 1025,6 hPa 0,0 l/m 1,6 km/h (1 Bft) W-NW 298 0 min 0,000 mm 0,6 UV-I 213 W/m 10,9 C 12,2 C 3,2 km/h (1 Bft) 100,00 %
26.10.2016 13:36 12,2 C 92 % 1025,6 hPa 0,0 l/m 3,3 km/h (1 Bft) W-NW 296 0 min 0,000 mm 0,6 UV-I 198 W/m 10,9 C 12,2 C 4,8 km/h (1 Bft) 100,00 %
26.10.2016 13:37 12,2 C 91 % 1025,6 hPa 0,0 l/m 0,6 km/h (0 Bft) W-NW 296 0 min 0,000 mm 0,6 UV-I 190 W/m 10,8 C 12,2 C 1,6 km/h (1 Bft) 100,00 %
26.10.2016 13:38 12,2 C 92 % 1025,6 hPa 0,0 l/m 0,1 km/h (0 Bft) W-NW 296 0 min 0,000 mm 0,6 UV-I 182 W/m 10,9 C 12,2 C 1,6 km/h (1 Bft) 100,00 %
26.10.2016 13:39 12,2 C 92 % 1025,6 hPa 0,0 l/m 0,9 km/h (0 Bft) W-NW 296 0 min 0,000 mm 0,6 UV-I 170 W/m 10,9 C 12,2 C 3,2 km/h (1 Bft) 100,00 %
26.10.2016 13:40 12,2 C 92 % 1025,6 hPa 0,0 l/m 0,3 km/h (0 Bft) W-NW 296 0 min 0,000 mm 0,6 UV-I 163 W/m 10,9 C 12,2 C 1,6 km/h (1 Bft) 100,00 %
26.10.2016 13:41 12,2 C 92 % 1025,6 hPa 0,0 l/m 0,5 km/h (0 Bft) W-NW 296 0 min 0,000 mm 0,6 UV-I 159 W/m 10,9 C 12,2 C 1,6 km/h (1 Bft) 95,65 %
26.10.2016 13:42 12,2 C 92 % 1025,6 hPa 0,0 l/m 0,0 km/h (0 Bft) W-NW 296 0 min 0,000 mm 0,6 UV-I 156 W/m 10,9 C 12,2 C 0,0 km/h (0 Bft) 100,00 %
26.10.2016 13:43 12,2 C 92 % 1025,5 hPa 0,0 l/m 0,9 km/h (0 Bft) W-NW 296 0 min 0,000 mm 0,6 UV-I 156 W/m 10,9 C 12,2 C 1,6 km/h (1 Bft) 100,00 %
26.10.2016 13:44 12,2 C 93 % 1025,6 hPa 0,0 l/m 0,1 km/h (0 Bft) W-NW 296 0 min 0,000 mm 0,6 UV-I 159 W/m 11,1 C 12,2 C 1,6 km/h (1 Bft) 91,67 %
26.10.2016 13:45 12,2 C 93 % 1025,6 hPa 0,0 l/m 1,0 km/h (0 Bft) W-NW 296 0 min 0,000 mm 0,6 UV-I 162 W/m 11,1 C 12,2 C 3,2 km/h (1 Bft) 98,65 %
26.10.2016 13:46 12,2 C 92 % 1025,5 hPa 0,0 l/m 1,3 km/h (1 Bft) W-NW 296 0 min 0,000 mm 0,6 UV-I 166 W/m 10,9 C 12,2 C 1,6 km/h (1 Bft) 100,00 %
26.10.2016 13:47 12,2 C 93 % 1025,5 hPa 0,0 l/m 2,2 km/h (1 Bft) W-NW 296 0 min 0,000 mm 0,6 UV-I 172 W/m 11,1 C 12,2 C 3,2 km/h (1 Bft) 100,00 %
26.10.2016 13:48 12,2 C 93 % 1025,5 hPa 0,0 l/m 0,7 km/h (0 Bft) W-NW 296 0 min 0,000 mm 0,6 UV-I 175 W/m 11,1 C 12,2 C 1,6 km/h (1 Bft) 96,30 %
26.10.2016 13:49 12,2 C 93 % 1025,5 hPa 0,0 l/m 0,1 km/h (0 Bft) W-NW 296 0 min 0,000 mm 0,6 UV-I 180 W/m 11,1 C 12,2 C 1,6 km/h (1 Bft) 100,00 %
26.10.2016 13:50 12,2 C 93 % 1025,5 hPa 0,0 l/m 0,8 km/h (0 Bft) W-NW 296 0 min 0,000 mm 0,6 UV-I 191 W/m 11,1 C 12,2 C 3,2 km/h (1 Bft) 93,33 %
26.10.2016 13:51 12,2 C 92 % 1025,4 hPa 0,0 l/m 0,1 km/h (0 Bft) W-NW 296 0 min 0,000 mm 0,6 UV-I 207 W/m 10,9 C 12,2 C 1,6 km/h (1 Bft) 100,00 %
26.10.2016 13:52 12,2 C 93 % 1025,4 hPa 0,0 l/m 0,4 km/h (0 Bft) NW 307 0 min 0,000 mm 0,7 UV-I 225 W/m 11,1 C 12,2 C 1,6 km/h (1 Bft) 100,00 %
26.10.2016 13:53 12,2 C 93 % 1025,4 hPa 0,0 l/m 0,9 km/h (0 Bft) NW 309 0 min 0,000 mm 0,7 UV-I 243 W/m 11,1 C 12,2 C 1,6 km/h (1 Bft) 100,00 %
26.10.2016 13:54 12,3 C 93 % 1025,4 hPa 0,0 l/m 1,5 km/h (1 Bft) N 5 1 min 0,000 mm 0,8 UV-I 270 W/m 11,2 C 12,3 C 3,2 km/h (1 Bft) 100,00 %
26.10.2016 13:55 12,3 C 93 % 1025,4 hPa 0,0 l/m 1,1 km/h (1 Bft) N 5 1 min 0,000 mm 0,8 UV-I 290 W/m 11,2 C 12,3 C 1,6 km/h (1 Bft) 100,00 %
26.10.2016 13:56 12,3 C 93 % 1025,4 hPa 0,0 l/m 1,2 km/h (1 Bft) N 9 1 min 0,000 mm 0,8 UV-I 331 W/m 11,2 C 12,3 C 3,2 km/h (1 Bft) 100,00 %
26.10.2016 13:57 12,4 C 93 % 1025,4 hPa 0,0 l/m 0,6 km/h (0 Bft) N 5 1 min 0,000 mm 0,9 UV-I 372 W/m 11,3 C 12,4 C 3,2 km/h (1 Bft) 100,00 %
26.10.2016 13:58 12,4 C 93 % 1025,4 hPa 0,0 l/m 0,0 km/h (0 Bft) N 5 1 min 0,000 mm 0,9 UV-I 370 W/m 11,3 C 12,4 C 0,0 km/h (0 Bft) 100,00 %
26.10.2016 13:59 12,5 C 93 % 1025,4 hPa 0,0 l/m 1,2 km/h (1 Bft) N-NW 346 1 min 0,000 mm 0,9 UV-I 353 W/m 11,4 C 12,5 C 3,2 km/h (1 Bft) 100,00 %
26.10.2016 14:00 12,5 C 93 % 1025,3 hPa 0,0 l/m 3,4 km/h (1 Bft) NW 312 1 min 0,102 mm 0,9 UV-I 363 W/m 11,4 C 12,5 C 6,4 km/h (2 Bft) 100,00 %
26.10.2016 14:01 12,5 C 91 % 1025,4 hPa 0,0 l/m 2,7 km/h (1 Bft) W-NW 297 1 min 0,000 mm 1,0 UV-I 388 W/m 11,1 C 12,5 C 4,8 km/h (1 Bft) 100,00 %
26.10.2016 14:02 12,6 C 91 % 1025,3 hPa 0,0 l/m 1,7 km/h (1 Bft) W-NW 297 1 min 0,000 mm 1,0 UV-I 388 W/m 11,2 C 12,6 C 3,2 km/h (1 Bft) 100,00 %
26.10.2016 14:03 12,6 C 91 % 1025,3 hPa 0,0 l/m 0,6 km/h (0 Bft) W-NW 297 1 min 0,000 mm 0,9 UV-I 336 W/m 11,2 C 12,6 C 1,6 km/h (1 Bft) 100,00 %
26.10.2016 14:04 12,6 C 91 % 1025,3 hPa 0,0 l/m 1,2 km/h (1 Bft) W-NW 297 1 min 0,000 mm 0,9 UV-I 307 W/m 11,2 C 12,6 C 3,2 km/h (1 Bft) 100,00 %
26.10.2016 14:05 12,6 C 91 % 1025,3 hPa 0,0 l/m 1,9 km/h (1 Bft) W-NW 297 1 min 0,000 mm 0,9 UV-I 294 W/m 11,2 C 12,6 C 3,2 km/h (1 Bft) 100,00 %
26.10.2016 14:06 12,6 C 90 % 1025,3 hPa 0,0 l/m 1,3 km/h (1 Bft) W-NW 297 1 min 0,000 mm 0,9 UV-I 286 W/m 11,0 C 12,6 C 3,2 km/h (1 Bft) 100,00 %
26.10.2016 14:07 12,6 C 90 % 1025,3 hPa 0,0 l/m 0,8 km/h (0 Bft) W-NW 297 1 min 0,000 mm 0,9 UV-I 280 W/m 11,0 C 12,6 C 1,6 km/h (1 Bft) 100,00 %
26.10.2016 14:08 12,6 C 91 % 1025,3 hPa 0,0 l/m 0,5 km/h (0 Bft) W-NW 297 1 min 0,000 mm 0,9 UV-I 272 W/m 11,2 C 12,6 C 1,6 km/h (1 Bft) 100,00 %
26.10.2016 14:09 12,6 C 91 % 1025,2 hPa 0,0 l/m 0,9 km/h (0 Bft) W-NW 297 1 min 0,000 mm 0,9 UV-I 268 W/m 11,2 C 12,6 C 1,6 km/h (1 Bft) 100,00 %
26.10.2016 14:10 12,7 C 91 % 1025,2 hPa 0,0 l/m 2,5 km/h (1 Bft) NW 314 1 min 0,000 mm 0,9 UV-I 266 W/m 11,3 C 12,7 C 4,8 km/h (1 Bft) 100,00 %
26.10.2016 14:11 12,6 C 90 % 1025,2 hPa 0,0 l/m 1,9 km/h (1 Bft) NW 319 1 min 0,000 mm 0,9 UV-I 280 W/m 11,0 C 12,6 C 4,8 km/h (1 Bft) 100,00 %
26.10.2016 14:12 12,6 C 90 % 1025,2 hPa 0,0 l/m 3,3 km/h (1 Bft) NW 317 1 min 0,000 mm 1,0 UV-I 318 W/m 11,0 C 12,6 C 4,8 km/h (1 Bft) 100,00 %
26.10.2016 14:13 12,6 C 90 % 1025,2 hPa 0,0 l/m 0,7 km/h (0 Bft) NW 318 1 min 0,000 mm 1,0 UV-I 313 W/m 11,0 C 12,6 C 3,2 km/h (1 Bft) 100,00 %
26.10.2016 14:14 12,6 C 90 % 1025,2 hPa 0,0 l/m 0,3 km/h (0 Bft) NW 318 1 min 0,000 mm 1,0 UV-I 312 W/m 11,0 C 12,6 C 1,6 km/h (1 Bft) 100,00 %
26.10.2016 14:15 12,6 C 90 % 1025,2 hPa 0,0 l/m 1,2 km/h (1 Bft) NW 318 1 min 0,000 mm 0,9 UV-I 307 W/m 11,0 C 12,6 C 3,2 km/h (1 Bft) 100,00 %
26.10.2016 14:16 12,6 C 90 % 1025,2 hPa 0,0 l/m 2,0 km/h (1 Bft) W-NW 300 1 min 0,000 mm 0,9 UV-I 290 W/m 11,0 C 12,6 C 4,8 km/h (1 Bft) 100,00 %
26.10.2016 14:17 12,6 C 89 % 1025,3 hPa 0,0 l/m 4,1 km/h (1 Bft) NW 304 1 min 0,000 mm 0,9 UV-I 291 W/m 10,8 C 12,6 C 6,4 km/h (2 Bft) 100,00 %
26.10.2016 14:18 12,6 C 89 % 1025,3 hPa 0,0 l/m 3,3 km/h (1 Bft) NW 304 0 min 0,000 mm 0,9 UV-I 232 W/m 10,8 C 12,6 C 6,4 km/h (2 Bft) 100,00 %
26.10.2016 14:19 12,6 C 89 % 1025,2 hPa 0,0 l/m 2,2 km/h (1 Bft) NW 312 0 min 0,000 mm 0,9 UV-I 218 W/m 10,8 C 12,6 C 3,2 km/h (1 Bft) 100,00 %
26.10.2016 14:20 12,6 C 89 % 1025,3 hPa 0,0 l/m 1,6 km/h (1 Bft) NW 310 0 min 0,000 mm 0,9 UV-I 208 W/m 10,8 C 12,6 C 3,2 km/h (1 Bft) 100,00 %
26.10.2016 14:21 12,5 C 89 % 1025,2 hPa 0,0 l/m 2,2 km/h (1 Bft) NW 315 0 min 0,000 mm 0,9 UV-I 194 W/m 10,7 C 12,5 C 4,8 km/h (1 Bft) 100,00 %
26.10.2016 14:22 12,5 C 90 % 1025,2 hPa 0,0 l/m 2,4 km/h (1 Bft) N-NW 336 0 min 0,000 mm 0,9 UV-I 169 W/m 10,9 C 12,5 C 3,2 km/h (1 Bft) 100,00 %
26.10.2016 14:23 12,4 C 90 % 1025,2 hPa 0,0 l/m 1,5 km/h (1 Bft) N-NW 336 0 min 0,000 mm 0,9 UV-I 147 W/m 10,8 C 12,4 C 3,2 km/h (1 Bft) 100,00 %
26.10.2016 14:24 12,4 C 90 % 1025,2 hPa 0,0 l/m 0,8 km/h (0 Bft) N-NW 336 0 min 0,000 mm 0,9 UV-I 137 W/m 10,8 C 12,4 C 1,6 km/h (1 Bft) 100,00 %
26.10.2016 14:25 12,5 C 91 % 1025,2 hPa 0,0 l/m 0,5 km/h (0 Bft) N-NW 336 0 min 0,000 mm 0,9 UV-I 136 W/m 11,1 C 12,5 C 1,6 km/h (1 Bft) 95,65 %
26.10.2016 14:26 12,4 C 90 % 1025,1 hPa 0,0 l/m 1,6 km/h (1 Bft) N-NW 331 0 min 0,000 mm 0,9 UV-I 139 W/m 10,8 C 12,4 C 4,8 km/h (1 Bft) 100,00 %
26.10.2016 14:27 12,4 C 89 % 1025,2 hPa 0,0 l/m 0,9 km/h (0 Bft) N-NW 332 0 min 0,000 mm 0,9 UV-I 147 W/m 10,6 C 12,4 C 3,2 km/h (1 Bft) 100,00 %
26.10.2016 14:28 12,3 C 89 % 1025,1 hPa 0,0 l/m 0,4 km/h (0 Bft) N-NW 332 0 min 0,000 mm 0,9 UV-I 155 W/m 10,5 C 12,3 C 1,6 km/h (1 Bft) 100,00 %
26.10.2016 14:29 12,3 C 90 % 1025,1 hPa 0,0 l/m 0,9 km/h (0 Bft) N-NW 332 0 min 0,000 mm 0,9 UV-I 178 W/m 10,7 C 12,3 C 3,2 km/h (1 Bft) 100,00 %
26.10.2016 14:30 12,3 C 90 % 1025,1 hPa 0,0 l/m 2,6 km/h (1 Bft) NW 319 0 min 0,000 mm 0,8 UV-I 159 W/m 10,7 C 12,3 C 4,8 km/h (1 Bft) 100,00 %
26.10.2016 14:31 12,3 C 90 % 1025,1 hPa 0,0 l/m 1,4 km/h (1 Bft) NW 323 0 min 0,000 mm 0,8 UV-I 158 W/m 10,7 C 12,3 C 3,2 km/h (1 Bft) 100,00 %
26.10.2016 14:32 12,3 C 90 % 1025,1 hPa 0,0 l/m 0,7 km/h (0 Bft) N-NW 327 0 min 0,000 mm 0,8 UV-I 154 W/m 10,7 C 12,3 C 1,6 km/h (1 Bft) 100,00 %
26.10.2016 14:33 12,3 C 91 % 1025,1 hPa 0,0 l/m 1,1 km/h (1 Bft) N-NW 327 0 min 0,000 mm 0,8 UV-I 153 W/m 10,9 C 12,3 C 3,2 km/h (1 Bft) 100,00 %
26.10.2016 14:34 12,3 C 91 % 1025,1 hPa 0,0 l/m 3,6 km/h (1 Bft) NW 304 0 min 0,000 mm 0,8 UV-I 155 W/m 10,9 C 12,3 C 6,4 km/h (2 Bft) 100,00 %
26.10.2016 14:35 12,3 C 90 % 1025,1 hPa 0,0 l/m 0,7 km/h (0 Bft) NW 304 0 min 0,000 mm 0,8 UV-I 158 W/m 10,7 C 12,3 C 1,6 km/h (1 Bft) 100,00 %
26.10.2016 14:36 12,3 C 90 % 1025,1 hPa 0,0 l/m 1,0 km/h (0 Bft) NW 304 0 min 0,000 mm 0,8 UV-I 160 W/m 10,7 C 12,3 C 3,2 km/h (1 Bft) 100,00 %
26.10.2016 14:37 12,3 C 90 % 1025,1 hPa 0,0 l/m 0,5 km/h (0 Bft) NW 304 0 min 0,000 mm 0,8 UV-I 159 W/m 10,7 C 12,3 C 1,6 km/h (1 Bft) 96,15 %
26.10.2016 14:38 12,3 C 90 % 1025,1 hPa 0,0 l/m 0,8 km/h (0 Bft) NW 304 0 min 0,000 mm 0,8 UV-I 155 W/m 10,7 C 12,3 C 1,6 km/h (1 Bft) 95,83 %
26.10.2016 14:39 12,3 C 90 % 1025,1 hPa 0,0 l/m 1,9 km/h (1 Bft) NW 315 0 min 0,000 mm 0,8 UV-I 149 W/m 10,7 C 12,3 C 4,8 km/h (1 Bft) 95,83 %
26.10.2016 14:40 12,3 C 90 % 1025,0 hPa 0,0 l/m 1,5 km/h (1 Bft) NW 315 0 min 0,000 mm 0,7 UV-I 142 W/m 10,7 C 12,3 C 3,2 km/h (1 Bft) 100,00 %
26.10.2016 14:41 12,3 C 90 % 1025,0 hPa 0,0 l/m 1,0 km/h (0 Bft) NW 315 0 min 0,000 mm 0,7 UV-I 136 W/m 10,7 C 12,3 C 3,2 km/h (1 Bft) 95,83 %
26.10.2016 14:42 12,3 C 90 % 1025,0 hPa 0,0 l/m 0,5 km/h (0 Bft) NW 315 0 min 0,000 mm 0,7 UV-I 132 W/m 10,7 C 12,3 C 3,2 km/h (1 Bft) 100,00 %
26.10.2016 14:43 12,3 C 90 % 1025,0 hPa 0,0 l/m 2,2 km/h (1 Bft) NW 315 0 min 0,000 mm 0,7 UV-I 128 W/m 10,7 C 12,3 C 3,2 km/h (1 Bft) 95,83 %
26.10.2016 14:44 12,3 C 90 % 1025,0 hPa 0,0 l/m 0,3 km/h (0 Bft) NW 315 0 min 0,000 mm 0,7 UV-I 128 W/m 10,7 C 12,3 C 1,6 km/h (1 Bft) 100,00 %
26.10.2016 14:45 12,3 C 89 % 1025,0 hPa 0,0 l/m 0,0 km/h (0 Bft) NW 315 0 min 0,000 mm 0,7 UV-I 133 W/m 10,5 C 12,3 C 0,0 km/h (0 Bft) 95,83 %
26.10.2016 14:46 12,3 C 89 % 1025,0 hPa 0,0 l/m 0,1 km/h (0 Bft) NW 315 0 min 0,000 mm 0,7 UV-I 141 W/m 10,5 C 12,3 C 1,6 km/h (1 Bft) 100,00 %
26.10.2016 14:47 12,3 C 89 % 1025,0 hPa 0,0 l/m 2,5 km/h (1 Bft) NW 315 0 min 0,000 mm 0,7 UV-I 150 W/m 10,5 C 12,3 C 4,8 km/h (1 Bft) 95,83 %
26.10.2016 14:48 12,3 C 89 % 1025,0 hPa 0,0 l/m 0,2 km/h (0 Bft) NW 315 0 min 0,000 mm 0,6 UV-I 159 W/m 10,5 C 12,3 C 1,6 km/h (1 Bft) 95,65 %
26.10.2016 14:49 12,3 C 89 % 1025,0 hPa 0,0 l/m 0,5 km/h (0 Bft) NW 315 0 min 0,000 mm 0,6 UV-I 172 W/m 10,5 C 12,3 C 1,6 km/h (1 Bft) 100,00 %
26.10.2016 14:50 12,3 C 89 % 1025,0 hPa 0,0 l/m 0,1 km/h (0 Bft) NW 315 0 min 0,000 mm 0,6 UV-I 178 W/m 10,5 C 12,3 C 1,6 km/h (1 Bft) 95,83 %
26.10.2016 14:51 12,4 C 89 % 1025,0 hPa 0,0 l/m 0,0 km/h (0 Bft) NW 315 0 min 0,000 mm 0,6 UV-I 199 W/m 10,6 C 12,4 C 0,0 km/h (0 Bft) 100,00 %
26.10.2016 14:52 12,4 C 90 % 1025,0 hPa 0,0 l/m 0,2 km/h (0 Bft) NW 315 0 min 0,000 mm 0,7 UV-I 212 W/m 10,8 C 12,4 C 1,6 km/h (1 Bft) 96,30 %
26.10.2016 14:53 12,5 C 90 % 1025,0 hPa 0,0 l/m 0,1 km/h (0 Bft) NW 315 1 min 0,000 mm 0,7 UV-I 221 W/m 10,9 C 12,5 C 1,6 km/h (1 Bft) 100,00 %
26.10.2016 14:54 12,5 C 89 % 1025,0 hPa 0,0 l/m 4,4 km/h (1 Bft) W 261 1 min 0,000 mm 0,7 UV-I 249 W/m 10,7 C 12,5 C 6,4 km/h (2 Bft) 95,83 %
26.10.2016 14:55 12,6 C 89 % 1025,0 hPa 0,0 l/m 1,7 km/h (1 Bft) W 261 1 min 0,000 mm 0,7 UV-I 286 W/m 10,8 C 12,6 C 4,8 km/h (1 Bft) 95,65 %
26.10.2016 14:56 12,6 C 89 % 1024,9 hPa 0,0 l/m 1,8 km/h (1 Bft) W-SW 257 1 min 0,000 mm 0,8 UV-I 295 W/m 10,8 C 12,6 C 3,2 km/h (1 Bft) 95,83 %
26.10.2016 14:57 12,6 C 89 % 1024,9 hPa 0,0 l/m 3,2 km/h (1 Bft) W 267 1 min 0,000 mm 0,8 UV-I 295 W/m 10,8 C 12,6 C 4,8 km/h (1 Bft) 95,65 %
26.10.2016 14:58 12,7 C 89 % 1024,9 hPa 0,0 l/m 2,9 km/h (1 Bft) W 267 1 min 0,000 mm 0,8 UV-I 466 W/m 10,9 C 12,7 C 4,8 km/h (1 Bft) 100,00 %
26.10.2016 14:59 12,8 C 88 % 1024,9 hPa 0,0 l/m 2,4 km/h (1 Bft) W 278 1 min 0,000 mm 0,8 UV-I 441 W/m 10,9 C 12,8 C 6,4 km/h (2 Bft) 95,65 %
26.10.2016 15:00 12,8 C 88 % 1024,9 hPa 0,0 l/m 3,7 km/h (1 Bft) W 273 1 min 0,000 mm 0,8 UV-I 434 W/m 10,9 C 12,8 C 6,4 km/h (2 Bft) 100,00 %
26.10.2016 15:01 12,8 C 86 % 1024,9 hPa 0,0 l/m 3,2 km/h (1 Bft) W-NW 292 1 min 0,102 mm 0,8 UV-I 362 W/m 10,5 C 12,8 C 6,4 km/h (2 Bft) 95,65 %
26.10.2016 15:02 12,8 C 86 % 1024,9 hPa 0,0 l/m 2,7 km/h (1 Bft) W 272 1 min 0,000 mm 0,8 UV-I 302 W/m 10,5 C 12,8 C 6,4 km/h (2 Bft) 100,00 %
26.10.2016 15:03 12,8 C 86 % 1024,9 hPa 0,0 l/m 2,1 km/h (1 Bft) W 272 1 min 0,000 mm 0,8 UV-I 350 W/m 10,5 C 12,8 C 3,2 km/h (1 Bft) 95,65 %
26.10.2016 15:04 12,8 C 85 % 1024,9 hPa 0,0 l/m 1,0 km/h (0 Bft) W 279 1 min 0,000 mm 0,7 UV-I 339 W/m 10,3 C 12,8 C 3,2 km/h (1 Bft) 87,50 %
26.10.2016 15:05 12,8 C 86 % 1024,9 hPa 0,0 l/m 2,1 km/h (1 Bft) W-NW 288 1 min 0,000 mm 0,7 UV-I 209 W/m 10,5 C 12,8 C 4,8 km/h (1 Bft) 96,15 %
26.10.2016 15:06 12,9 C 85 % 1024,9 hPa 0,0 l/m 0,3 km/h (0 Bft) W-NW 288 0 min 0,000 mm 0,7 UV-I 181 W/m 10,4 C 12,9 C 1,6 km/h (1 Bft) 95,83 %
26.10.2016 15:07 12,9 C 86 % 1024,9 hPa 0,0 l/m 0,4 km/h (0 Bft) W-NW 288 0 min 0,000 mm 0,7 UV-I 166 W/m 10,6 C 12,9 C 1,6 km/h (1 Bft) 100,00 %
26.10.2016 15:08 12,8 C 85 % 1024,9 hPa 0,0 l/m 2,6 km/h (1 Bft) W-NW 296 0 min 0,000 mm 0,7 UV-I 162 W/m 10,3 C 12,8 C 8,0 km/h (2 Bft) 95,83 %
26.10.2016 15:09 12,8 C 84 % 1024,9 hPa 0,0 l/m 0,9 km/h (0 Bft) W-NW 296 1 min 0,000 mm 0,7 UV-I 211 W/m 10,2 C 12,8 C 1,6 km/h (1 Bft) 92,31 %
26.10.2016 15:10 12,7 C 85 % 1024,9 hPa 0,0 l/m 3,6 km/h (1 Bft) W 264 1 min 0,000 mm 0,7 UV-I 271 W/m 10,2 C 12,7 C 6,4 km/h (2 Bft) 95,83 %
26.10.2016 15:11 12,7 C 85 % 1024,9 hPa 0,0 l/m 5,5 km/h (1 Bft) W 265 1 min 0,000 mm 0,8 UV-I 348 W/m 10,2 C 12,7 C 9,7 km/h (2 Bft) 95,65 %
26.10.2016 15:12 12,6 C 86 % 1024,9 hPa 0,0 l/m 5,0 km/h (1 Bft) SW 227 1 min 0,000 mm 0,8 UV-I 337 W/m 10,3 C 12,6 C 6,4 km/h (2 Bft) 95,83 %
26.10.2016 15:13 12,6 C 86 % 1024,9 hPa 0,0 l/m 3,1 km/h (1 Bft) W-NW 287 1 min 0,000 mm 0,8 UV-I 333 W/m 10,3 C 12,6 C 6,4 km/h (2 Bft) 95,83 %
26.10.2016 15:14 12,6 C 86 % 1024,9 hPa 0,0 l/m 2,7 km/h (1 Bft) W-SW 257 1 min 0,000 mm 0,8 UV-I 353 W/m 10,3 C 12,6 C 4,8 km/h (1 Bft) 100,00 %
26.10.2016 15:15 12,6 C 85 % 1024,9 hPa 0,0 l/m 5,2 km/h (1 Bft) W-SW 253 1 min 0,000 mm 0,8 UV-I 361 W/m 10,1 C 12,6 C 8,0 km/h (2 Bft) 100,00 %
26.10.2016 15:16 12,6 C 84 % 1024,9 hPa 0,0 l/m 1,6 km/h (1 Bft) W-SW 253 1 min 0,000 mm 0,8 UV-I 354 W/m 10,0 C 12,6 C 4,8 km/h (1 Bft) 100,00 %
26.10.2016 15:17 12,6 C 86 % 1025,0 hPa 0,0 l/m 2,9 km/h (1 Bft) W-SW 253 1 min 0,000 mm 0,8 UV-I 348 W/m 10,3 C 12,6 C 4,8 km/h (1 Bft) 95,83 %
26.10.2016 15:18 12,7 C 86 % 1024,9 hPa 0,0 l/m 3,5 km/h (1 Bft) W-SW 253 1 min 0,000 mm 0,7 UV-I 340 W/m 10,4 C 12,7 C 6,4 km/h (2 Bft) 100,00 %
26.10.2016 15:19 12,7 C 86 % 1024,9 hPa 0,0 l/m 0,7 km/h (0 Bft) W-SW 253 1 min 0,000 mm 0,7 UV-I 336 W/m 10,4 C 12,7 C 3,2 km/h (1 Bft) 100,00 %
26.10.2016 15:20 12,7 C 85 % 1024,9 hPa 0,0 l/m 3,0 km/h (1 Bft) W-SW 254 1 min 0,000 mm 0,7 UV-I 330 W/m 10,2 C 12,7 C 4,8 km/h (1 Bft) 100,00 %
26.10.2016 15:21 12,7 C 85 % 1024,9 hPa 0,0 l/m 1,6 km/h (1 Bft) W 271 1 min 0,000 mm 0,7 UV-I 327 W/m 10,2 C 12,7 C 4,8 km/h (1 Bft) 100,00 %
26.10.2016 15:22 12,7 C 86 % 1024,9 hPa 0,0 l/m 3,9 km/h (1 Bft) W 277 1 min 0,000 mm 0,7 UV-I 327 W/m 10,4 C 12,7 C 4,8 km/h (1 Bft) 100,00 %
26.10.2016 15:23 12,7 C 86 % 1024,9 hPa 0,0 l/m 5,3 km/h (1 Bft) W 271 1 min 0,000 mm 0,7 UV-I 324 W/m 10,4 C 12,7 C 9,7 km/h (2 Bft) 100,00 %
26.10.2016 15:24 12,7 C 85 % 1024,9 hPa 0,0 l/m 2,1 km/h (1 Bft) W 277 1 min 0,000 mm 0,7 UV-I 325 W/m 10,2 C 12,7 C 4,8 km/h (1 Bft) 100,00 %
26.10.2016 15:25 12,7 C 84 % 1024,9 hPa 0,0 l/m 3,8 km/h (1 Bft) W-NW 296 1 min 0,000 mm 0,7 UV-I 326 W/m 10,1 C 12,7 C 6,4 km/h (2 Bft) 100,00 %
26.10.2016 15:26 12,7 C 84 % 1024,9 hPa 0,0 l/m 2,7 km/h (1 Bft) NW 309 1 min 0,000 mm 0,7 UV-I 318 W/m 10,1 C 12,7 C 4,8 km/h (1 Bft) 100,00 %
26.10.2016 15:27 12,7 C 84 % 1024,9 hPa 0,0 l/m 3,8 km/h (1 Bft) W-NW 302 1 min 0,000 mm 0,7 UV-I 320 W/m 10,1 C 12,7 C 6,4 km/h (2 Bft) 100,00 %
26.10.2016 15:28 12,7 C 84 % 1024,9 hPa 0,0 l/m 2,0 km/h (1 Bft) W-NW 303 1 min 0,000 mm 0,7 UV-I 322 W/m 10,1 C 12,7 C 3,2 km/h (1 Bft) 100,00 %
26.10.2016 15:29 12,7 C 84 % 1024,9 hPa 0,0 l/m 1,7 km/h (1 Bft) W-NW 298 1 min 0,000 mm 0,7 UV-I 319 W/m 10,1 C 12,7 C 3,2 km/h (1 Bft) 100,00 %
26.10.2016 15:30 12,7 C 85 % 1025,0 hPa 0,0 l/m 4,6 km/h (1 Bft) W-SW 252 1 min 0,000 mm 0,7 UV-I 319 W/m 10,2 C 12,7 C 6,4 km/h (2 Bft) 100,00 %
26.10.2016 15:31 12,7 C 84 % 1025,0 hPa 0,0 l/m 3,3 km/h (1 Bft) W-SW 252 1 min 0,000 mm 0,6 UV-I 321 W/m 10,1 C 12,7 C 4,8 km/h (1 Bft) 100,00 %
26.10.2016 15:32 12,6 C 84 % 1025,0 hPa 0,0 l/m 1,5 km/h (1 Bft) W-SW 252 1 min 0,000 mm 0,6 UV-I 322 W/m 10,0 C 12,6 C 4,8 km/h (1 Bft) 100,00 %
26.10.2016 15:33 12,6 C 84 % 1024,9 hPa 0,0 l/m 0,6 km/h (0 Bft) W-SW 252 1 min 0,000 mm 0,6 UV-I 322 W/m 10,0 C 12,6 C 1,6 km/h (1 Bft) 100,00 %
26.10.2016 15:34 12,6 C 84 % 1024,9 hPa 0,0 l/m 0,1 km/h (0 Bft) W-SW 252 1 min 0,000 mm 0,6 UV-I 317 W/m 10,0 C 12,6 C 1,6 km/h (1 Bft) 100,00 %
26.10.2016 15:35 12,6 C 84 % 1025,0 hPa 0,0 l/m 1,0 km/h (0 Bft) W-SW 252 1 min 0,000 mm 0,6 UV-I 312 W/m 10,0 C 12,6 C 3,2 km/h (1 Bft) 100,00 %
26.10.2016 15:36 12,6 C 85 % 1025,0 hPa 0,0 l/m 3,5 km/h (1 Bft) W 265 1 min 0,000 mm 0,6 UV-I 311 W/m 10,1 C 12,6 C 4,8 km/h (1 Bft) 100,00 %
26.10.2016 15:37 12,6 C 85 % 1025,0 hPa 0,0 l/m 2,4 km/h (1 Bft) W 265 1 min 0,000 mm 0,6 UV-I 310 W/m 10,1 C 12,6 C 4,8 km/h (1 Bft) 100,00 %
26.10.2016 15:38 12,6 C 85 % 1025,0 hPa 0,0 l/m 3,4 km/h (1 Bft) W-NW 292 1 min 0,000 mm 0,6 UV-I 308 W/m 10,1 C 12,6 C 6,4 km/h (2 Bft) 100,00 %
26.10.2016 15:39 12,6 C 85 % 1024,9 hPa 0,0 l/m 3,6 km/h (1 Bft) W-NW 292 1 min 0,000 mm 0,6 UV-I 302 W/m 10,1 C 12,6 C 6,4 km/h (2 Bft) 100,00 %
26.10.2016 15:40 12,6 C 85 % 1024,9 hPa 0,0 l/m 1,7 km/h (1 Bft) W-NW 292 1 min 0,000 mm 0,6 UV-I 302 W/m 10,1 C 12,6 C 3,2 km/h (1 Bft) 100,00 %
26.10.2016 15:41 12,6 C 85 % 1025,0 hPa 0,0 l/m 3,6 km/h (1 Bft) W-SW 247 1 min 0,000 mm 0,6 UV-I 301 W/m 10,1 C 12,6 C 6,4 km/h (2 Bft) 100,00 %
26.10.2016 15:42 12,7 C 85 % 1024,9 hPa 0,0 l/m 2,4 km/h (1 Bft) W-SW 247 1 min 0,000 mm 0,6 UV-I 298 W/m 10,2 C 12,7 C 3,2 km/h (1 Bft) 100,00 %
26.10.2016 15:43 12,7 C 85 % 1024,9 hPa 0,0 l/m 5,7 km/h (1 Bft) SW 227 1 min 0,000 mm 0,5 UV-I 295 W/m 10,2 C 12,7 C 9,7 km/h (2 Bft) 100,00 %
26.10.2016 15:44 12,6 C 85 % 1024,9 hPa 0,0 l/m 7,3 km/h (2 Bft) W-SW 238 1 min 0,000 mm 0,5 UV-I 292 W/m 10,1 C 12,0 C 8,0 km/h (2 Bft) 100,00 %
26.10.2016 15:45 12,7 C 85 % 1024,9 hPa 0,0 l/m 5,0 km/h (1 Bft) W-SW 255 1 min 0,000 mm 0,5 UV-I 290 W/m 10,2 C 12,7 C 6,4 km/h (2 Bft) 95,65 %
26.10.2016 15:46 12,7 C 86 % 1024,9 hPa 0,0 l/m 6,6 km/h (2 Bft) W-SW 240 1 min 0,000 mm 0,5 UV-I 285 W/m 10,4 C 12,6 C 8,0 km/h (2 Bft) 100,00 %
26.10.2016 15:47 12,7 C 85 % 1024,9 hPa 0,0 l/m 4,6 km/h (1 Bft) SW 228 1 min 0,000 mm 0,5 UV-I 280 W/m 10,2 C 12,7 C 6,4 km/h (2 Bft) 96,15 %
26.10.2016 15:48 12,7 C 85 % 1024,9 hPa 0,0 l/m 4,6 km/h (1 Bft) SW 221 1 min 0,000 mm 0,5 UV-I 278 W/m 10,2 C 12,7 C 6,4 km/h (2 Bft) 95,83 %
26.10.2016 15:49 12,7 C 86 % 1024,9 hPa 0,0 l/m 4,6 km/h (1 Bft) W-SW 248 1 min 0,000 mm 0,5 UV-I 278 W/m 10,4 C 12,7 C 6,4 km/h (2 Bft) 100,00 %
26.10.2016 15:50 12,7 C 86 % 1024,9 hPa 0,0 l/m 3,0 km/h (1 Bft) S-SW 211 1 min 0,000 mm 0,5 UV-I 279 W/m 10,4 C 12,7 C 3,2 km/h (1 Bft) 100,00 %
26.10.2016 15:51 12,7 C 86 % 1024,9 hPa 0,0 l/m 3,0 km/h (1 Bft) S-SW 211 1 min 0,000 mm 0,5 UV-I 279 W/m 10,4 C 12,7 C 4,8 km/h (1 Bft) 100,00 %
26.10.2016 15:52 12,8 C 85 % 1024,9 hPa 0,0 l/m 2,2 km/h (1 Bft) S-SW 211 1 min 0,000 mm 0,5 UV-I 279 W/m 10,3 C 12,8 C 4,8 km/h (1 Bft) 100,00 %
26.10.2016 15:53 12,7 C 85 % 1025,0 hPa 0,0 l/m 4,2 km/h (1 Bft) W 273 1 min 0,000 mm 0,5 UV-I 274 W/m 10,2 C 12,7 C 4,8 km/h (1 Bft) 100,00 %
26.10.2016 15:54 12,7 C 85 % 1025,0 hPa 0,0 l/m 4,3 km/h (1 Bft) W 273 1 min 0,000 mm 0,3 UV-I 232 W/m 10,2 C 12,7 C 4,8 km/h (1 Bft) 100,00 %
26.10.2016 15:55 12,7 C 85 % 1025,0 hPa 0,0 l/m 4,0 km/h (1 Bft) W 271 1 min 0,000 mm 0,0 UV-I 158 W/m 10,2 C 12,7 C 4,8 km/h (1 Bft) 100,00 %
26.10.2016 15:56 12,7 C 85 % 1025,0 hPa 0,0 l/m 0,7 km/h (0 Bft) W 271 0 min 0,000 mm 0,0 UV-I 142 W/m 10,2 C 12,7 C 3,2 km/h (1 Bft) 100,00 %
26.10.2016 15:57 12,7 C 86 % 1025,1 hPa 0,0 l/m 0,1 km/h (0 Bft) W 271 1 min 0,000 mm 0,0 UV-I 155 W/m 10,4 C 12,7 C 1,6 km/h (1 Bft) 100,00 %
26.10.2016 15:58 12,7 C 86 % 1025,0 hPa 0,0 l/m 1,3 km/h (1 Bft) W 277 1 min 0,000 mm 0,0 UV-I 188 W/m 10,4 C 12,7 C 3,2 km/h (1 Bft) 100,00 %
26.10.2016 15:59 12,7 C 87 % 1025,1 hPa 0,0 l/m 0,1 km/h (0 Bft) W 277 1 min 0,000 mm 0,0 UV-I 168 W/m 10,6 C 12,7 C 1,6 km/h (1 Bft) 100,00 %
26.10.2016 16:00 12,7 C 86 % 1025,1 hPa 0,0 l/m 0,3 km/h (0 Bft) W 277 1 min 0,152 mm 0,0 UV-I 176 W/m 10,4 C 12,7 C 1,6 km/h (1 Bft) 100,00 %
26.10.2016 16:01 12,7 C 85 % 1025,1 hPa 0,0 l/m 0,2 km/h (0 Bft) W 277 1 min 0,000 mm 0,0 UV-I 168 W/m 10,2 C 12,7 C 1,6 km/h (1 Bft) 100,00 %
26.10.2016 16:02 12,7 C 85 % 1025,1 hPa 0,0 l/m 0,4 km/h (0 Bft) W 277 0 min 0,000 mm 0,0 UV-I 106 W/m 10,2 C 12,7 C 1,6 km/h (1 Bft) 100,00 %
26.10.2016 16:03 12,6 C 86 % 1025,1 hPa 0,0 l/m 1,2 km/h (1 Bft) W 278 0 min 0,000 mm 0,0 UV-I 87 W/m 10,3 C 12,6 C 3,2 km/h (1 Bft) 100,00 %
26.10.2016 16:04 12,6 C 85 % 1025,1 hPa 0,0 l/m 0,8 km/h (0 Bft) W 278 0 min 0,000 mm 0,0 UV-I 83 W/m 10,1 C 12,6 C 3,2 km/h (1 Bft) 100,00 %
26.10.2016 16:05 12,6 C 85 % 1025,2 hPa 0,0 l/m 0,8 km/h (0 Bft) W 278 0 min 0,000 mm 0,0 UV-I 84 W/m 10,1 C 12,6 C 3,2 km/h (1 Bft) 100,00 %
26.10.2016 16:06 12,6 C 85 % 1025,2 hPa 0,0 l/m 1,9 km/h (1 Bft) W 281 0 min 0,000 mm 0,0 UV-I 85 W/m 10,1 C 12,6 C 4,8 km/h (1 Bft) 100,00 %
26.10.2016 16:07 12,6 C 85 % 1025,2 hPa 0,0 l/m 1,2 km/h (1 Bft) W 281 0 min 0,000 mm 0,0 UV-I 86 W/m 10,1 C 12,6 C 1,6 km/h (1 Bft) 100,00 %
26.10.2016 16:08 12,5 C 86 % 1025,2 hPa 0,0 l/m 0,8 km/h (0 Bft) W 281 0 min 0,000 mm 0,0 UV-I 81 W/m 10,2 C 12,5 C 1,6 km/h (1 Bft) 95,65 %
26.10.2016 16:09 12,5 C 85 % 1025,2 hPa 0,0 l/m 1,5 km/h (1 Bft) W 281 0 min 0,000 mm 0,0 UV-I 79 W/m 10,0 C 12,5 C 3,2 km/h (1 Bft) 100,00 %
26.10.2016 16:10 12,5 C 85 % 1025,3 hPa 0,0 l/m 1,2 km/h (1 Bft) W 281 0 min 0,000 mm 0,0 UV-I 77 W/m 10,0 C 12,5 C 1,6 km/h (1 Bft) 96,15 %
26.10.2016 16:11 12,4 C 85 % 1025,3 hPa 0,0 l/m 1,5 km/h (1 Bft) W 281 0 min 0,000 mm 0,0 UV-I 76 W/m 9,9 C 12,4 C 3,2 km/h (1 Bft) 100,00 %
26.10.2016 16:12 12,4 C 86 % 1025,3 hPa 0,0 l/m 0,3 km/h (0 Bft) W 281 0 min 0,000 mm 0,0 UV-I 76 W/m 10,1 C 12,4 C 1,6 km/h (1 Bft) 100,00 %
26.10.2016 16:13 12,4 C 86 % 1025,3 hPa 0,0 l/m 0,3 km/h (0 Bft) W 281 0 min 0,000 mm 0,0 UV-I 77 W/m 10,1 C 12,4 C 1,6 km/h (1 Bft) 95,65 %
26.10.2016 16:14 12,4 C 87 % 1025,3 hPa 0,0 l/m 0,1 km/h (0 Bft) W 281 0 min 0,000 mm 0,0 UV-I 79 W/m 10,3 C 12,4 C 1,6 km/h (1 Bft) 100,00 %
26.10.2016 16:15 12,3 C 87 % 1025,3 hPa 0,0 l/m 0,4 km/h (0 Bft) W 281 0 min 0,000 mm 0,0 UV-I 78 W/m 10,2 C 12,3 C 1,6 km/h (1 Bft) 95,65 %
26.10.2016 16:16 12,3 C 87 % 1025,3 hPa 0,0 l/m 0,0 km/h (0 Bft) W 281 0 min 0,000 mm 0,0 UV-I 78 W/m 10,2 C 12,3 C 0,0 km/h (0 Bft) 100,00 %
26.10.2016 16:17 12,3 C 87 % 1025,3 hPa 0,0 l/m 0,9 km/h (0 Bft) W 281 0 min 0,000 mm 0,0 UV-I 79 W/m 10,2 C 12,3 C 1,6 km/h (1 Bft) 100,00 %
26.10.2016 16:18 12,3 C 87 % 1025,3 hPa 0,0 l/m 0,9 km/h (0 Bft) W 281 0 min 0,000 mm 0,0 UV-I 80 W/m 10,2 C 12,3 C 1,6 km/h (1 Bft) 100,00 %
26.10.2016 16:19 12,3 C 87 % 1025,3 hPa 0,0 l/m 0,4 km/h (0 Bft) W 281 0 min 0,000 mm 0,0 UV-I 83 W/m 10,2 C 12,3 C 1,6 km/h (1 Bft) 100,00 %
26.10.2016 16:20 12,3 C 88 % 1025,3 hPa 0,0 l/m 0,0 km/h (0 Bft) W 281 0 min 0,000 mm 0,0 UV-I 89 W/m 10,4 C 12,3 C 0,0 km/h (0 Bft) 95,83 %
26.10.2016 16:21 12,2 C 88 % 1025,3 hPa 0,0 l/m 0,0 km/h (0 Bft) W 281 0 min 0,000 mm 0,0 UV-I 96 W/m 10,3 C 12,2 C 0,0 km/h (0 Bft) 95,65 %
26.10.2016 16:22 12,2 C 88 % 1025,3 hPa 0,0 l/m 0,0 km/h (0 Bft) W 281 0 min 0,000 mm 0,0 UV-I 99 W/m 10,3 C 12,2 C 0,0 km/h (0 Bft) 100,00 %
26.10.2016 16:23 12,2 C 89 % 1025,3 hPa 0,0 l/m 0,5 km/h (0 Bft) W 281 0 min 0,000 mm 0,0 UV-I 100 W/m 10,4 C 12,2 C 3,2 km/h (1 Bft) 100,00 %
26.10.2016 16:24 12,2 C 89 % 1025,3 hPa 0,0 l/m 0,3 km/h (0 Bft) W 281 0 min 0,000 mm 0,0 UV-I 98 W/m 10,4 C 12,2 C 1,6 km/h (1 Bft) 100,00 %
26.10.2016 16:25 12,2 C 89 % 1025,3 hPa 0,0 l/m 0,2 km/h (0 Bft) W 281 0 min 0,000 mm 0,0 UV-I 94 W/m 10,4 C 12,2 C 1,6 km/h (1 Bft) 100,00 %
26.10.2016 16:26 12,2 C 89 % 1025,3 hPa 0,0 l/m 0,1 km/h (0 Bft) W 281 0 min 0,000 mm 0,0 UV-I 89 W/m 10,4 C 12,2 C 1,6 km/h (1 Bft) 100,00 %
26.10.2016 16:27 12,2 C 88 % 1025,3 hPa 0,0 l/m 1,9 km/h (1 Bft) W 281 0 min 0,000 mm 0,0 UV-I 85 W/m 10,3 C 12,2 C 4,8 km/h (1 Bft) 100,00 %
26.10.2016 16:28 12,2 C 88 % 1025,3 hPa 0,0 l/m 2,5 km/h (1 Bft) W 281 0 min 0,000 mm 0,0 UV-I 82 W/m 10,3 C 12,2 C 3,2 km/h (1 Bft) 100,00 %
26.10.2016 16:29 12,3 C 89 % 1025,3 hPa 0,0 l/m 3,1 km/h (1 Bft) W 281 0 min 0,000 mm 0,0 UV-I 81 W/m 10,5 C 12,3 C 4,8 km/h (1 Bft) 100,00 %
26.10.2016 16:30 12,3 C 89 % 1025,3 hPa 0,0 l/m 4,4 km/h (1 Bft) W 281 0 min 0,000 mm 0,0 UV-I 81 W/m 10,5 C 12,3 C 6,4 km/h (2 Bft) 100,00 %
26.10.2016 16:31 12,3 C 89 % 1025,3 hPa 0,0 l/m 3,4 km/h (1 Bft) W 281 0 min 0,000 mm 0,0 UV-I 81 W/m 10,5 C 12,3 C 4,8 km/h (1 Bft) 96,43 %
26.10.2016 16:32 12,3 C 89 % 1025,3 hPa 0,0 l/m 3,0 km/h (1 Bft) W 281 0 min 0,000 mm 0,0 UV-I 81 W/m 10,5 C 12,3 C 4,8 km/h (1 Bft) 100,00 %
26.10.2016 16:33 12,3 C 89 % 1025,3 hPa 0,0 l/m 3,2 km/h (1 Bft) W 281 0 min 0,000 mm 0,0 UV-I 82 W/m 10,5 C 12,3 C 4,8 km/h (1 Bft) 100,00 %
26.10.2016 16:34 12,3 C 88 % 1025,3 hPa 0,0 l/m 2,7 km/h (1 Bft) W 281 0 min 0,000 mm 0,0 UV-I 83 W/m 10,4 C 12,3 C 4,8 km/h (1 Bft) 100,00 %
26.10.2016 16:35 12,3 C 88 % 1025,2 hPa 0,0 l/m 2,8 km/h (1 Bft) W 281 0 min 0,000 mm 0,0 UV-I 84 W/m 10,4 C 12,3 C 4,8 km/h (1 Bft) 100,00 %
26.10.2016 16:36 12,3 C 89 % 1025,3 hPa 0,0 l/m 3,6 km/h (1 Bft) W 281 0 min 0,000 mm 0,0 UV-I 84 W/m 10,5 C 12,3 C 4,8 km/h (1 Bft) 100,00 %
26.10.2016 16:37 12,3 C 88 % 1025,2 hPa 0,0 l/m 3,0 km/h (1 Bft) W 281 0 min 0,000 mm 0,0 UV-I 84 W/m 10,4 C 12,3 C 3,2 km/h (1 Bft) 100,00 %
26.10.2016 16:38 12,3 C 89 % 1025,2 hPa 0,0 l/m 2,9 km/h (1 Bft) W 281 0 min 0,000 mm 0,0 UV-I 86 W/m 10,5 C 12,3 C 4,8 km/h (1 Bft) 100,00 %
26.10.2016 16:39 12,3 C 88 % 1025,2 hPa 0,0 l/m 2,7 km/h (1 Bft) W 281 0 min 0,000 mm 0,0 UV-I 84 W/m 10,4 C 12,3 C 4,8 km/h (1 Bft) 100,00 %
26.10.2016 16:40 12,2 C 89 % 1025,2 hPa 0,0 l/m 2,2 km/h (1 Bft) W 281 0 min 0,000 mm 0,0 UV-I 81 W/m 10,4 C 12,2 C 4,8 km/h (1 Bft) 100,00 %
26.10.2016 16:41 12,3 C 89 % 1025,2 hPa 0,0 l/m 3,4 km/h (1 Bft) W 280 0 min 0,000 mm 0,0 UV-I 77 W/m 10,5 C 12,3 C 4,8 km/h (1 Bft) 100,00 %
26.10.2016 16:42 12,2 C 89 % 1025,2 hPa 0,0 l/m 1,9 km/h (1 Bft) W 281 0 min 0,000 mm 0,0 UV-I 73 W/m 10,4 C 12,2 C 3,2 km/h (1 Bft) 100,00 %
26.10.2016 16:43 12,2 C 89 % 1025,3 hPa 0,0 l/m 3,5 km/h (1 Bft) W 281 0 min 0,000 mm 0,0 UV-I 70 W/m 10,4 C 12,2 C 4,8 km/h (1 Bft) 100,00 %
26.10.2016 16:44 12,2 C 89 % 1025,3 hPa 0,0 l/m 3,4 km/h (1 Bft) W 280 0 min 0,000 mm 0,0 UV-I 69 W/m 10,4 C 12,2 C 4,8 km/h (1 Bft) 95,65 %
26.10.2016 16:45 12,2 C 89 % 1025,3 hPa 0,0 l/m 4,2 km/h (1 Bft) W 280 0 min 0,000 mm 0,0 UV-I 67 W/m 10,4 C 12,2 C 6,4 km/h (2 Bft) 100,00 %
26.10.2016 16:46 12,2 C 89 % 1025,3 hPa 0,0 l/m 2,4 km/h (1 Bft) W 280 0 min 0,000 mm 0,0 UV-I 67 W/m 10,4 C 12,2 C 3,2 km/h (1 Bft) 95,65 %
26.10.2016 16:47 12,2 C 89 % 1025,3 hPa 0,0 l/m 3,4 km/h (1 Bft) W 280 0 min 0,000 mm 0,0 UV-I 66 W/m 10,4 C 12,2 C 4,8 km/h (1 Bft) 95,83 %
26.10.2016 16:48 12,2 C 89 % 1025,3 hPa 0,0 l/m 3,5 km/h (1 Bft) W 280 0 min 0,000 mm 0,0 UV-I 63 W/m 10,4 C 12,2 C 4,8 km/h (1 Bft) 100,00 %
26.10.2016 16:49 12,2 C 89 % 1025,3 hPa 0,0 l/m 3,2 km/h (1 Bft) W 280 0 min 0,000 mm 0,0 UV-I 63 W/m 10,4 C 12,2 C 4,8 km/h (1 Bft) 96,30 %
26.10.2016 16:50 12,2 C 89 % 1025,3 hPa 0,0 l/m 2,4 km/h (1 Bft) W 280 0 min 0,000 mm 0,0 UV-I 62 W/m 10,4 C 12,2 C 3,2 km/h (1 Bft) 95,65 %
26.10.2016 16:51 12,1 C 89 % 1025,3 hPa 0,0 l/m 3,0 km/h (1 Bft) W 280 0 min 0,000 mm 0,0 UV-I 60 W/m 10,3 C 12,1 C 3,2 km/h (1 Bft) 100,00 %
26.10.2016 16:52 12,1 C 89 % 1025,3 hPa 0,0 l/m 2,9 km/h (1 Bft) W 280 0 min 0,000 mm 0,0 UV-I 59 W/m 10,3 C 12,1 C 3,2 km/h (1 Bft) 91,67 %
26.10.2016 16:53 12,1 C 89 % 1025,3 hPa 0,0 l/m 2,7 km/h (1 Bft) W 280 0 min 0,000 mm 0,0 UV-I 58 W/m 10,3 C 12,1 C 4,8 km/h (1 Bft) 100,00 %
26.10.2016 16:54 12,1 C 89 % 1025,3 hPa 0,0 l/m 3,1 km/h (1 Bft) W 280 0 min 0,000 mm 0,0 UV-I 56 W/m 10,3 C 12,1 C 4,8 km/h (1 Bft) 95,83 %
26.10.2016 16:55 12,1 C 89 % 1025,3 hPa 0,0 l/m 2,4 km/h (1 Bft) W 280 0 min 0,000 mm 0,0 UV-I 54 W/m 10,3 C 12,1 C 3,2 km/h (1 Bft) 95,65 %
26.10.2016 16:56 12,1 C 89 % 1025,3 hPa 0,0 l/m 3,2 km/h (1 Bft) W 280 0 min 0,000 mm 0,0 UV-I 51 W/m 10,3 C 12,1 C 4,8 km/h (1 Bft) 91,67 %
26.10.2016 16:57 12,1 C 89 % 1025,4 hPa 0,0 l/m 1,5 km/h (1 Bft) W 280 0 min 0,000 mm 0,0 UV-I 48 W/m 10,3 C 12,1 C 3,2 km/h (1 Bft) 96,15 %
26.10.2016 16:58 12,1 C 89 % 1025,3 hPa 0,0 l/m 2,0 km/h (1 Bft) W 280 0 min 0,000 mm 0,0 UV-I 46 W/m 10,3 C 12,1 C 3,2 km/h (1 Bft) 100,00 %
26.10.2016 16:59 12,0 C 89 % 1025,4 hPa 0,0 l/m 5,1 km/h (1 Bft) W 263 0 min 0,000 mm 0,0 UV-I 45 W/m 10,2 C 12,0 C 6,4 km/h (2 Bft) 95,65 %
26.10.2016 17:00 11,9 C 89 % 1025,4 hPa 0,0 l/m 3,4 km/h (1 Bft) W 261 0 min 0,000 mm 0,0 UV-I 42 W/m 10,1 C 11,9 C 6,4 km/h (2 Bft) 100,00 %
26.10.2016 17:01 11,9 C 89 % 1025,3 hPa 0,0 l/m 2,3 km/h (1 Bft) W 261 0 min 0,051 mm 0,0 UV-I 40 W/m 10,1 C 11,9 C 4,8 km/h (1 Bft) 95,65 %
26.10.2016 17:02 11,9 C 89 % 1025,3 hPa 0,0 l/m 2,5 km/h (1 Bft) W 261 0 min 0,000 mm 0,0 UV-I 39 W/m 10,1 C 11,9 C 4,8 km/h (1 Bft) 100,00 %
26.10.2016 17:03 11,8 C 89 % 1025,3 hPa 0,0 l/m 2,7 km/h (1 Bft) W 261 0 min 0,000 mm 0,0 UV-I 36 W/m 10,0 C 11,8 C 4,8 km/h (1 Bft) 92,31 %
26.10.2016 17:04 11,8 C 90 % 1025,3 hPa 0,0 l/m 4,8 km/h (1 Bft) W 261 0 min 0,000 mm 0,0 UV-I 34 W/m 10,2 C 11,8 C 6,4 km/h (2 Bft) 100,00 %
26.10.2016 17:05 11,8 C 90 % 1025,3 hPa 0,0 l/m 3,5 km/h (1 Bft) W 264 0 min 0,000 mm 0,0 UV-I 32 W/m 10,2 C 11,8 C 4,8 km/h (1 Bft) 91,30 %
26.10.2016 17:06 11,8 C 90 % 1025,4 hPa 0,0 l/m 3,1 km/h (1 Bft) W-SW 257 0 min 0,000 mm 0,0 UV-I 32 W/m 10,2 C 11,8 C 6,4 km/h (2 Bft) 96,30 %
26.10.2016 17:07 11,7 C 90 % 1025,3 hPa 0,0 l/m 5,1 km/h (1 Bft) W-SW 254 0 min 0,000 mm 0,0 UV-I 30 W/m 10,1 C 11,7 C 6,4 km/h (2 Bft) 95,65 %
26.10.2016 17:08 11,7 C 90 % 1025,4 hPa 0,0 l/m 2,9 km/h (1 Bft) W-SW 254 0 min 0,000 mm 0,0 UV-I 30 W/m 10,1 C 11,7 C 4,8 km/h (1 Bft) 95,83 %
26.10.2016 17:09 11,7 C 90 % 1025,3 hPa 0,0 l/m 4,0 km/h (1 Bft) W-SW 254 0 min 0,000 mm 0,0 UV-I 30 W/m 10,1 C 11,7 C 6,4 km/h (2 Bft) 100,00 %
26.10.2016 17:10 11,6 C 90 % 1025,3 hPa 0,0 l/m 3,1 km/h (1 Bft) W-SW 254 0 min 0,000 mm 0,0 UV-I 29 W/m 10,0 C 11,6 C 4,8 km/h (1 Bft) 95,83 %
26.10.2016 17:11 11,6 C 90 % 1025,3 hPa 0,0 l/m 2,6 km/h (1 Bft) W-SW 254 0 min 0,000 mm 0,0 UV-I 27 W/m 10,0 C 11,6 C 3,2 km/h (1 Bft) 100,00 %
26.10.2016 17:12 11,6 C 90 % 1025,3 hPa 0,0 l/m 2,8 km/h (1 Bft) W-SW 254 0 min 0,000 mm 0,0 UV-I 25 W/m 10,0 C 11,6 C 3,2 km/h (1 Bft) 95,83 %
26.10.2016 17:13 11,5 C 90 % 1025,4 hPa 0,0 l/m 4,0 km/h (1 Bft) W-SW 254 0 min 0,000 mm 0,0 UV-I 25 W/m 9,9 C 11,5 C 4,8 km/h (1 Bft) 95,83 %
26.10.2016 17:14 11,5 C 90 % 1025,4 hPa 0,0 l/m 3,2 km/h (1 Bft) W-SW 254 0 min 0,000 mm 0,0 UV-I 23 W/m 9,9 C 11,5 C 4,8 km/h (1 Bft) 100,00 %
26.10.2016 17:15 11,4 C 91 % 1025,4 hPa 0,0 l/m 2,4 km/h (1 Bft) W-SW 254 0 min 0,000 mm 0,0 UV-I 22 W/m 10,0 C 11,4 C 3,2 km/h (1 Bft) 100,00 %
26.10.2016 17:16 11,4 C 91 % 1025,4 hPa 0,0 l/m 1,6 km/h (1 Bft) W-SW 254 0 min 0,000 mm 0,0 UV-I 21 W/m 10,0 C 11,4 C 3,2 km/h (1 Bft) 95,65 %
26.10.2016 17:18 11,3 C 91 % 1025,4 hPa 0,0 l/m 1,6 km/h (1 Bft) W-SW 254 0 min 0,000 mm 0,0 UV-I 21 W/m 9,9 C 11,3 C 3,2 km/h (1 Bft) 98,31 %
26.10.2016 17:19 11,3 C 91 % 1025,4 hPa 0,0 l/m 2,0 km/h (1 Bft) W-SW 254 0 min 0,000 mm 0,0 UV-I 19 W/m 9,9 C 11,3 C 3,2 km/h (1 Bft) 91,67 %
26.10.2016 17:20 11,2 C 91 % 1025,4 hPa 0,0 l/m 1,4 km/h (1 Bft) W-SW 254 0 min 0,000 mm 0,0 UV-I 19 W/m 9,8 C 11,2 C 3,2 km/h (1 Bft) 100,00 %
26.10.2016 17:21 11,2 C 91 % 1025,4 hPa 0,0 l/m 1,8 km/h (1 Bft) W-SW 254 0 min 0,000 mm 0,0 UV-I 19 W/m 9,8 C 11,2 C 3,2 km/h (1 Bft) 96,30 %
26.10.2016 17:22 11,2 C 91 % 1025,4 hPa 0,0 l/m 1,9 km/h (1 Bft) W-SW 254 0 min 0,000 mm 0,0 UV-I 19 W/m 9,8 C 11,2 C 3,2 km/h (1 Bft) 95,65 %
26.10.2016 17:23 11,1 C 92 % 1025,4 hPa 0,0 l/m 2,0 km/h (1 Bft) W-SW 254 0 min 0,000 mm 0,0 UV-I 19 W/m 9,8 C 11,1 C 3,2 km/h (1 Bft) 96,30 %
26.10.2016 17:24 11,1 C 92 % 1025,4 hPa 0,0 l/m 1,7 km/h (1 Bft) W-SW 254 0 min 0,000 mm 0,0 UV-I 18 W/m 9,8 C 11,1 C 3,2 km/h (1 Bft) 100,00 %
26.10.2016 17:25 11,1 C 92 % 1025,5 hPa 0,0 l/m 0,8 km/h (0 Bft) W-SW 254 0 min 0,000 mm 0,0 UV-I 18 W/m 9,8 C 11,1 C 1,6 km/h (1 Bft) 100,00 %
26.10.2016 17:26 11,0 C 92 % 1025,4 hPa 0,0 l/m 1,1 km/h (1 Bft) W-SW 254 0 min 0,000 mm 0,0 UV-I 18 W/m 9,8 C 11,0 C 3,2 km/h (1 Bft) 100,00 %
26.10.2016 17:27 11,0 C 92 % 1025,5 hPa 0,0 l/m 2,1 km/h (1 Bft) W-SW 254 0 min 0,000 mm 0,0 UV-I 18 W/m 9,8 C 11,0 C 3,2 km/h (1 Bft) 100,00 %
26.10.2016 17:28 11,0 C 92 % 1025,5 hPa 0,0 l/m 1,9 km/h (1 Bft) W-SW 254 0 min 0,000 mm 0,0 UV-I 18 W/m 9,8 C 11,0 C 3,2 km/h (1 Bft) 100,00 %
26.10.2016 17:29 11,0 C 92 % 1025,5 hPa 0,0 l/m 1,2 km/h (1 Bft) W-SW 254 0 min 0,000 mm 0,0 UV-I 18 W/m 9,8 C 11,0 C 1,6 km/h (1 Bft) 100,00 %
26.10.2016 17:30 10,9 C 92 % 1025,5 hPa 0,0 l/m 1,4 km/h (1 Bft) W-SW 254 0 min 0,000 mm 0,0 UV-I 18 W/m 9,7 C 10,9 C 3,2 km/h (1 Bft) 100,00 %
26.10.2016 17:31 10,9 C 92 % 1025,5 hPa 0,0 l/m 1,9 km/h (1 Bft) W-SW 254 0 min 0,000 mm 0,0 UV-I 18 W/m 9,7 C 10,9 C 3,2 km/h (1 Bft) 100,00 %
26.10.2016 17:32 10,9 C 92 % 1025,5 hPa 0,0 l/m 0,8 km/h (0 Bft) W-SW 254 0 min 0,000 mm 0,0 UV-I 16 W/m 9,7 C 10,9 C 1,6 km/h (1 Bft) 95,83 %
26.10.2016 17:33 10,9 C 92 % 1025,5 hPa 0,0 l/m 1,5 km/h (1 Bft) W-SW 254 0 min 0,000 mm 0,0 UV-I 16 W/m 9,7 C 10,9 C 3,2 km/h (1 Bft) 100,00 %
26.10.2016 17:34 10,9 C 92 % 1025,5 hPa 0,0 l/m 2,0 km/h (1 Bft) W-SW 254 0 min 0,000 mm 0,0 UV-I 16 W/m 9,7 C 10,9 C 3,2 km/h (1 Bft) 100,00 %
26.10.2016 17:35 10,8 C 92 % 1025,5 hPa 0,0 l/m 0,7 km/h (0 Bft) W-SW 254 0 min 0,000 mm 0,0 UV-I 16 W/m 9,6 C 10,8 C 1,6 km/h (1 Bft) 100,00 %
26.10.2016 17:36 10,8 C 92 % 1025,5 hPa 0,0 l/m 0,0 km/h (0 Bft) W-SW 254 0 min 0,000 mm 0,0 UV-I 16 W/m 9,6 C 10,8 C 0,0 km/h (0 Bft) 100,00 %
26.10.2016 17:37 10,8 C 92 % 1025,6 hPa 0,0 l/m 0,0 km/h (0 Bft) W-SW 254 0 min 0,000 mm 0,0 UV-I 16 W/m 9,6 C 10,8 C 0,0 km/h (0 Bft) 100,00 %
26.10.2016 17:38 10,8 C 92 % 1025,5 hPa 0,0 l/m 0,1 km/h (0 Bft) W-SW 254 0 min 0,000 mm 0,0 UV-I 14 W/m 9,6 C 10,8 C 1,6 km/h (1 Bft) 100,00 %
26.10.2016 17:39 10,8 C 92 % 1025,5 hPa 0,0 l/m 0,2 km/h (0 Bft) W-SW 254 0 min 0,000 mm 0,0 UV-I 14 W/m 9,6 C 10,8 C 1,6 km/h (1 Bft) 100,00 %
26.10.2016 17:40 10,7 C 92 % 1025,5 hPa 0,0 l/m 0,0 km/h (0 Bft) W-SW 254 1 min 0,000 mm 0,0 UV-I 14 W/m 9,5 C 10,7 C 0,0 km/h (0 Bft) 100,00 %
26.10.2016 17:41 10,7 C 93 % 1025,6 hPa 0,0 l/m 0,0 km/h (0 Bft) W-SW 254 1 min 0,000 mm 0,0 UV-I 14 W/m 9,6 C 10,7 C 0,0 km/h (0 Bft) 100,00 %
26.10.2016 17:42 10,7 C 93 % 1025,5 hPa 0,0 l/m 0,0 km/h (0 Bft) W-SW 254 1 min 0,000 mm 0,0 UV-I 12 W/m 9,6 C 10,7 C 0,0 km/h (0 Bft) 100,00 %
26.10.2016 17:43 10,7 C 93 % 1025,5 hPa 0,0 l/m 0,1 km/h (0 Bft) W-SW 254 1 min 0,000 mm 0,0 UV-I 12 W/m 9,6 C 10,7 C 1,6 km/h (1 Bft) 100,00 %
26.10.2016 17:44 10,6 C 93 % 1025,5 hPa 0,0 l/m 0,0 km/h (0 Bft) W-SW 254 0 min 0,000 mm 0,0 UV-I 12 W/m 9,5 C 10,6 C 0,0 km/h (0 Bft) 100,00 %
26.10.2016 17:45 10,6 C 93 % 1025,5 hPa 0,0 l/m 0,0 km/h (0 Bft) W-SW 254 0 min 0,000 mm 0,0 UV-I 12 W/m 9,5 C 10,6 C 0,0 km/h (0 Bft) 100,00 %
26.10.2016 17:46 10,6 C 93 % 1025,5 hPa 0,0 l/m 0,0 km/h (0 Bft) W-SW 254 0 min 0,000 mm 0,0 UV-I 12 W/m 9,5 C 10,6 C 0,0 km/h (0 Bft) 95,83 %
26.10.2016 17:47 10,6 C 93 % 1025,6 hPa 0,0 l/m 1,3 km/h (1 Bft) W-SW 254 0 min 0,000 mm 0,0 UV-I 11 W/m 9,5 C 10,6 C 1,6 km/h (1 Bft) 100,00 %
26.10.2016 17:48 10,5 C 93 % 1025,5 hPa 0,0 l/m 0,7 km/h (0 Bft) W-SW 254 0 min 0,000 mm 0,0 UV-I 11 W/m 9,4 C 10,5 C 1,6 km/h (1 Bft) 100,00 %
26.10.2016 17:49 10,5 C 93 % 1025,5 hPa 0,0 l/m 0,5 km/h (0 Bft) W-SW 254 0 min 0,000 mm 0,0 UV-I 11 W/m 9,4 C 10,5 C 3,2 km/h (1 Bft) 100,00 %
26.10.2016 17:50 10,5 C 93 % 1025,5 hPa 0,0 l/m 0,8 km/h (0 Bft) W-SW 254 0 min 0,000 mm 0,0 UV-I 11 W/m 9,4 C 10,5 C 1,6 km/h (1 Bft) 100,00 %
26.10.2016 17:51 10,4 C 93 % 1025,5 hPa 0,0 l/m 0,4 km/h (0 Bft) W-SW 254 0 min 0,000 mm 0,0 UV-I 10 W/m 9,3 C 10,4 C 1,6 km/h (1 Bft) 100,00 %
26.10.2016 17:52 10,4 C 93 % 1025,5 hPa 0,0 l/m 0,3 km/h (0 Bft) W-SW 254 0 min 0,000 mm 0,0 UV-I 9 W/m 9,3 C 10,4 C 1,6 km/h (1 Bft) 100,00 %
26.10.2016 17:53 10,4 C 93 % 1025,6 hPa 0,0 l/m 0,1 km/h (0 Bft) W-SW 254 0 min 0,000 mm 0,0 UV-I 9 W/m 9,3 C 10,4 C 1,6 km/h (1 Bft) 100,00 %
26.10.2016 17:54 10,3 C 93 % 1025,6 hPa 0,0 l/m 0,1 km/h (0 Bft) W-SW 254 0 min 0,000 mm 0,0 UV-I 9 W/m 9,2 C 10,3 C 1,6 km/h (1 Bft) 100,00 %
26.10.2016 17:55 10,3 C 93 % 1025,6 hPa 0,0 l/m 0,1 km/h (0 Bft) W-SW 254 0 min 0,000 mm 0,0 UV-I 9 W/m 9,2 C 10,3 C 1,6 km/h (1 Bft) 100,00 %
26.10.2016 17:56 10,3 C 93 % 1025,7 hPa 0,0 l/m 0,0 km/h (0 Bft) W-SW 254 0 min 0,000 mm 0,0 UV-I 8 W/m 9,2 C 10,3 C 0,0 km/h (0 Bft) 95,65 %
26.10.2016 17:57 10,2 C 93 % 1025,7 hPa 0,0 l/m 0,0 km/h (0 Bft) W-SW 254 0 min 0,000 mm 0,0 UV-I 7 W/m 9,1 C 10,2 C 0,0 km/h (0 Bft) 100,00 %
26.10.2016 17:58 10,2 C 93 % 1025,7 hPa 0,0 l/m 0,0 km/h (0 Bft) W-SW 254 0 min 0,000 mm 0,0 UV-I 7 W/m 9,1 C 10,2 C 0,0 km/h (0 Bft) 100,00 %
26.10.2016 17:59 10,1 C 93 % 1025,7 hPa 0,0 l/m 0,0 km/h (0 Bft) W-SW 254 0 min 0,000 mm 0,0 UV-I 7 W/m 9,0 C 10,1 C 0,0 km/h (0 Bft) 100,00 %
26.10.2016 18:00 10,1 C 93 % 1025,7 hPa 0,0 l/m 0,0 km/h (0 Bft) W-SW 254 0 min 0,000 mm 0,0 UV-I 7 W/m 9,0 C 10,1 C 0,0 km/h (0 Bft) 95,65 %
26.10.2016 18:01 10,1 C 93 % 1025,8 hPa 0,0 l/m 0,0 km/h (0 Bft) W-SW 254 0 min 0,000 mm 0,0 UV-I 7 W/m 9,0 C 10,1 C 0,0 km/h (0 Bft) 100,00 %
26.10.2016 18:02 10,1 C 93 % 1025,7 hPa 0,0 l/m 0,0 km/h (0 Bft) W-SW 254 0 min 0,000 mm 0,0 UV-I 6 W/m 9,0 C 10,1 C 0,0 km/h (0 Bft) 91,30 %
26.10.2016 18:03 10,0 C 93 % 1025,8 hPa 0,0 l/m 0,4 km/h (0 Bft) W-SW 254 0 min 0,000 mm 0,0 UV-I 5 W/m 8,9 C 10,0 C 1,6 km/h (1 Bft) 100,00 %
26.10.2016 18:04 10,0 C 93 % 1025,8 hPa 0,0 l/m 0,1 km/h (0 Bft) W-SW 254 0 min 0,000 mm 0,0 UV-I 5 W/m 8,9 C 10,0 C 1,6 km/h (1 Bft) 91,30 %
26.10.2016 18:05 9,9 C 93 % 1025,8 hPa 0,0 l/m 0,0 km/h (0 Bft) W-SW 254 0 min 0,000 mm 0,0 UV-I 5 W/m 8,8 C 9,9 C 0,0 km/h (0 Bft) 100,00 %
26.10.2016 18:06 9,9 C 94 % 1025,8 hPa 0,0 l/m 0,0 km/h (0 Bft) W-SW 254 0 min 0,000 mm 0,0 UV-I 5 W/m 9,0 C 9,9 C 0,0 km/h (0 Bft) 95,65 %
26.10.2016 18:07 9,9 C 94 % 1025,8 hPa 0,0 l/m 0,1 km/h (0 Bft) W-SW 254 0 min 0,000 mm 0,0 UV-I 5 W/m 9,0 C 9,9 C 1,6 km/h (1 Bft) 100,00 %
26.10.2016 18:08 9,9 C 94 % 1025,8 hPa 0,0 l/m 0,7 km/h (0 Bft) W-SW 254 0 min 0,000 mm 0,0 UV-I 5 W/m 9,0 C 9,9 C 1,6 km/h (1 Bft) 100,00 %
26.10.2016 18:09 9,9 C 94 % 1025,8 hPa 0,0 l/m 0,1 km/h (0 Bft) W-SW 254 0 min 0,000 mm 0,0 UV-I 5 W/m 9,0 C 9,9 C 1,6 km/h (1 Bft) 96,15 %
26.10.2016 18:10 9,9 C 94 % 1025,8 hPa 0,0 l/m 0,0 km/h (0 Bft) W-SW 254 0 min 0,000 mm 0,0 UV-I 5 W/m 9,0 C 9,9 C 0,0 km/h (0 Bft) 100,00 %
26.10.2016 18:11 9,8 C 94 % 1025,8 hPa 0,0 l/m 0,0 km/h (0 Bft) W-SW 254 0 min 0,000 mm 0,0 UV-I 0 W/m 8,9 C 9,8 C 0,0 km/h (0 Bft) 100,00 %
26.10.2016 18:12 9,8 C 94 % 1025,8 hPa 0,0 l/m 0,0 km/h (0 Bft) W-SW 254 0 min 0,000 mm 0,0 UV-I 0 W/m 8,9 C 9,8 C 0,0 km/h (0 Bft) 100,00 %
26.10.2016 18:13 9,8 C 94 % 1025,8 hPa 0,0 l/m 0,0 km/h (0 Bft) W-SW 254 0 min 0,000 mm 0,0 UV-I 0 W/m 8,9 C 9,8 C 0,0 km/h (0 Bft) 95,65 %
26.10.2016 18:14 9,8 C 94 % 1025,8 hPa 0,0 l/m 0,1 km/h (0 Bft) W-SW 254 0 min 0,000 mm 0,0 UV-I 0 W/m 8,9 C 9,8 C 1,6 km/h (1 Bft) 100,00 %
26.10.2016 18:15 9,8 C 94 % 1025,8 hPa 0,0 l/m 0,5 km/h (0 Bft) W-SW 254 0 min 0,000 mm 0,0 UV-I 0 W/m 8,9 C 9,8 C 1,6 km/h (1 Bft) 100,00 %
26.10.2016 18:16 9,7 C 94 % 1025,8 hPa 0,0 l/m 0,8 km/h (0 Bft) W-SW 254 0 min 0,000 mm 0,0 UV-I 0 W/m 8,8 C 9,7 C 1,6 km/h (1 Bft) 100,00 %
26.10.2016 18:17 9,7 C 94 % 1025,8 hPa 0,0 l/m 1,3 km/h (1 Bft) W-SW 254 0 min 0,000 mm 0,0 UV-I 0 W/m 8,8 C 9,7 C 3,2 km/h (1 Bft) 91,30 %
26.10.2016 18:18 9,7 C 94 % 1025,8 hPa 0,0 l/m 1,7 km/h (1 Bft) W-SW 254 0 min 0,000 mm 0,0 UV-I 0 W/m 8,8 C 9,7 C 3,2 km/h (1 Bft) 100,00 %
26.10.2016 18:19 9,7 C 94 % 1025,8 hPa 0,0 l/m 1,7 km/h (1 Bft) W-SW 254 0 min 0,000 mm 0,0 UV-I 0 W/m 8,8 C 9,7 C 4,8 km/h (1 Bft) 95,65 %
26.10.2016 18:20 9,7 C 94 % 1025,8 hPa 0,0 l/m 2,3 km/h (1 Bft) W-SW 254 0 min 0,000 mm 0,0 UV-I 0 W/m 8,8 C 9,7 C 4,8 km/h (1 Bft) 100,00 %
26.10.2016 18:21 9,7 C 94 % 1025,9 hPa 0,0 l/m 2,5 km/h (1 Bft) W-SW 254 0 min 0,000 mm 0,0 UV-I 0 W/m 8,8 C 9,7 C 3,2 km/h (1 Bft) 100,00 %
26.10.2016 18:22 9,6 C 94 % 1025,8 hPa 0,0 l/m 1,9 km/h (1 Bft) W-SW 254 0 min 0,000 mm 0,0 UV-I 0 W/m 8,7 C 9,6 C 3,2 km/h (1 Bft) 100,00 %
26.10.2016 18:23 9,6 C 94 % 1025,9 hPa 0,0 l/m 1,7 km/h (1 Bft) W-SW 254 0 min 0,000 mm 0,0 UV-I 0 W/m 8,7 C 9,6 C 3,2 km/h (1 Bft) 100,00 %
26.10.2016 18:24 9,5 C 94 % 1025,9 hPa 0,0 l/m 2,5 km/h (1 Bft) W-SW 254 0 min 0,000 mm 0,0 UV-I 0 W/m 8,6 C 9,5 C 4,8 km/h (1 Bft) 100,00 %
26.10.2016 18:25 9,5 C 94 % 1025,9 hPa 0,0 l/m 3,0 km/h (1 Bft) W-SW 254 0 min 0,000 mm 0,0 UV-I 0 W/m 8,6 C 9,5 C 4,8 km/h (1 Bft) 100,00 %
26.10.2016 18:26 9,5 C 94 % 1025,9 hPa 0,0 l/m 2,4 km/h (1 Bft) W-SW 254 0 min 0,000 mm 0,0 UV-I 0 W/m 8,6 C 9,5 C 4,8 km/h (1 Bft) 100,00 %
26.10.2016 18:27 9,5 C 94 % 1025,8 hPa 0,0 l/m 2,0 km/h (1 Bft) W-SW 254 0 min 0,000 mm 0,0 UV-I 0 W/m 8,6 C 9,5 C 3,2 km/h (1 Bft) 100,00 %
26.10.2016 18:28 9,5 C 95 % 1025,9 hPa 0,0 l/m 1,0 km/h (0 Bft) W-SW 254 0 min 0,000 mm 0,0 UV-I 0 W/m 8,7 C 9,5 C 1,6 km/h (1 Bft) 100,00 %
26.10.2016 18:29 9,4 C 95 % 1025,9 hPa 0,0 l/m 2,8 km/h (1 Bft) W-SW 252 0 min 0,000 mm 0,0 UV-I 0 W/m 8,6 C 9,4 C 3,2 km/h (1 Bft) 100,00 %
26.10.2016 18:30 9,4 C 95 % 1025,9 hPa 0,0 l/m 2,5 km/h (1 Bft) W-SW 252 0 min 0,000 mm 0,0 UV-I 0 W/m 8,6 C 9,4 C 4,8 km/h (1 Bft) 100,00 %
26.10.2016 18:31 9,4 C 94 % 1025,9 hPa 0,0 l/m 1,6 km/h (1 Bft) W-SW 252 0 min 0,000 mm 0,0 UV-I 0 W/m 8,5 C 9,4 C 3,2 km/h (1 Bft) 100,00 %
26.10.2016 18:32 9,4 C 95 % 1025,9 hPa 0,0 l/m 3,4 km/h (1 Bft) W-SW 252 0 min 0,000 mm 0,0 UV-I 0 W/m 8,6 C 9,4 C 4,8 km/h (1 Bft) 100,00 %
26.10.2016 18:33 9,3 C 95 % 1025,9 hPa 0,0 l/m 3,9 km/h (1 Bft) W-SW 252 0 min 0,000 mm 0,0 UV-I 0 W/m 8,5 C 9,3 C 4,8 km/h (1 Bft) 100,00 %
26.10.2016 18:34 9,4 C 95 % 1025,9 hPa 0,0 l/m 2,1 km/h (1 Bft) W-SW 251 0 min 0,000 mm 0,0 UV-I 0 W/m 8,6 C 9,4 C 6,4 km/h (2 Bft) 100,00 %
26.10.2016 18:35 9,4 C 95 % 1025,9 hPa 0,0 l/m 3,2 km/h (1 Bft) W-SW 251 0 min 0,000 mm 0,0 UV-I 0 W/m 8,6 C 9,4 C 4,8 km/h (1 Bft) 100,00 %
26.10.2016 18:36 9,4 C 95 % 1025,9 hPa 0,0 l/m 3,9 km/h (1 Bft) W-SW 251 0 min 0,000 mm 0,0 UV-I 0 W/m 8,6 C 9,4 C 4,8 km/h (1 Bft) 95,65 %
26.10.2016 18:37 9,5 C 95 % 1025,9 hPa 0,0 l/m 3,6 km/h (1 Bft) W-SW 251 0 min 0,000 mm 0,0 UV-I 0 W/m 8,7 C 9,5 C 4,8 km/h (1 Bft) 100,00 %
26.10.2016 18:38 9,5 C 95 % 1025,9 hPa 0,0 l/m 3,6 km/h (1 Bft) W-SW 251 0 min 0,000 mm 0,0 UV-I 0 W/m 8,7 C 9,5 C 4,8 km/h (1 Bft) 100,00 %
26.10.2016 18:39 9,5 C 95 % 1025,9 hPa 0,0 l/m 3,4 km/h (1 Bft) W-SW 251 0 min 0,000 mm 0,0 UV-I 0 W/m 8,7 C 9,5 C 4,8 km/h (1 Bft) 100,00 %
26.10.2016 18:40 9,5 C 95 % 1025,9 hPa 0,0 l/m 3,5 km/h (1 Bft) W-SW 251 0 min 0,000 mm 0,0 UV-I 0 W/m 8,7 C 9,5 C 4,8 km/h (1 Bft) 100,00 %
26.10.2016 18:41 9,5 C 95 % 1025,9 hPa 0,0 l/m 5,4 km/h (1 Bft) W-SW 250 0 min 0,000 mm 0,0 UV-I 0 W/m 8,7 C 9,5 C 6,4 km/h (2 Bft) 100,00 %
26.10.2016 18:42 9,5 C 95 % 1025,9 hPa 0,0 l/m 4,5 km/h (1 Bft) W-SW 250 0 min 0,000 mm 0,0 UV-I 0 W/m 8,7 C 9,5 C 6,4 km/h (2 Bft) 100,00 %
26.10.2016 18:43 9,5 C 95 % 1026,0 hPa 0,0 l/m 4,5 km/h (1 Bft) W-SW 250 0 min 0,000 mm 0,0 UV-I 0 W/m 8,7 C 9,5 C 6,4 km/h (2 Bft) 100,00 %
26.10.2016 18:44 9,5 C 95 % 1025,9 hPa 0,0 l/m 4,6 km/h (1 Bft) W-SW 250 0 min 0,000 mm 0,0 UV-I 0 W/m 8,7 C 9,5 C 6,4 km/h (2 Bft) 100,00 %
26.10.2016 18:45 9,5 C 95 % 1026,0 hPa 0,0 l/m 4,6 km/h (1 Bft) W-SW 250 0 min 0,000 mm 0,0 UV-I 0 W/m 8,7 C 9,5 C 6,4 km/h (2 Bft) 100,00 %
26.10.2016 18:46 9,5 C 95 % 1026,0 hPa 0,0 l/m 4,4 km/h (1 Bft) W-SW 250 0 min 0,000 mm 0,0 UV-I 0 W/m 8,7 C 9,5 C 6,4 km/h (2 Bft) 95,65 %
26.10.2016 18:47 9,5 C 95 % 1026,0 hPa 0,0 l/m 3,6 km/h (1 Bft) W-SW 250 0 min 0,000 mm 0,0 UV-I 0 W/m 8,7 C 9,5 C 6,4 km/h (2 Bft) 95,83 %
26.10.2016 18:48 9,5 C 95 % 1026,0 hPa 0,0 l/m 4,2 km/h (1 Bft) W-SW 250 0 min 0,000 mm 0,0 UV-I 0 W/m 8,7 C 9,5 C 6,4 km/h (2 Bft) 100,00 %
26.10.2016 18:49 9,5 C 95 % 1026,0 hPa 0,0 l/m 3,4 km/h (1 Bft) W-SW 250 0 min 0,000 mm 0,0 UV-I 0 W/m 8,7 C 9,5 C 4,8 km/h (1 Bft) 100,00 %
26.10.2016 18:50 9,4 C 95 % 1026,0 hPa 0,0 l/m 3,6 km/h (1 Bft) W-SW 250 0 min 0,000 mm 0,0 UV-I 0 W/m 8,6 C 9,4 C 4,8 km/h (1 Bft) 100,00 %
26.10.2016 18:51 9,4 C 95 % 1026,0 hPa 0,0 l/m 4,3 km/h (1 Bft) W-SW 250 0 min 0,000 mm 0,0 UV-I 0 W/m 8,6 C 9,4 C 6,4 km/h (2 Bft) 100,00 %
26.10.2016 18:52 9,4 C 95 % 1026,0 hPa 0,0 l/m 3,7 km/h (1 Bft) W-SW 250 0 min 0,000 mm 0,0 UV-I 0 W/m 8,6 C 9,4 C 4,8 km/h (1 Bft) 100,00 %
26.10.2016 18:53 9,4 C 95 % 1026,1 hPa 0,0 l/m 3,9 km/h (1 Bft) W-SW 250 0 min 0,000 mm 0,0 UV-I 0 W/m 8,6 C 9,4 C 4,8 km/h (1 Bft) 95,65 %
26.10.2016 18:54 9,4 C 95 % 1026,0 hPa 0,0 l/m 4,2 km/h (1 Bft) W-SW 250 0 min 0,000 mm 0,0 UV-I 0 W/m 8,6 C 9,4 C 6,4 km/h (2 Bft) 96,30 %
26.10.2016 18:55 9,3 C 95 % 1026,1 hPa 0,0 l/m 4,0 km/h (1 Bft) W-SW 250 0 min 0,000 mm 0,0 UV-I 0 W/m 8,5 C 9,3 C 6,4 km/h (2 Bft) 95,65 %
26.10.2016 18:56 9,3 C 95 % 1026,1 hPa 0,0 l/m 3,6 km/h (1 Bft) W-SW 250 0 min 0,000 mm 0,0 UV-I 0 W/m 8,5 C 9,3 C 4,8 km/h (1 Bft) 95,83 %
26.10.2016 18:57 9,3 C 95 % 1026,1 hPa 0,0 l/m 4,3 km/h (1 Bft) W-SW 250 0 min 0,000 mm 0,0 UV-I 0 W/m 8,5 C 9,3 C 4,8 km/h (1 Bft) 95,65 %
26.10.2016 18:58 9,3 C 95 % 1026,1 hPa 0,0 l/m 4,0 km/h (1 Bft) W-SW 250 0 min 0,000 mm 0,0 UV-I 0 W/m 8,5 C 9,3 C 4,8 km/h (1 Bft) 95,83 %
26.10.2016 18:59 9,2 C 95 % 1026,1 hPa 0,0 l/m 3,7 km/h (1 Bft) W-SW 250 0 min 0,000 mm 0,0 UV-I 0 W/m 8,4 C 9,2 C 4,8 km/h (1 Bft) 95,65 %
26.10.2016 19:00 9,2 C 96 % 1026,1 hPa 0,0 l/m 4,0 km/h (1 Bft) W-SW 250 0 min 0,000 mm 0,0 UV-I 0 W/m 8,6 C 9,2 C 4,8 km/h (1 Bft) 100,00 %
26.10.2016 19:02 9,2 C 96 % 1026,2 hPa 0,0 l/m 4,8 km/h (1 Bft) W-SW 250 0 min 0,000 mm 0,0 UV-I 0 W/m 8,6 C 9,2 C 4,8 km/h (1 Bft) 100,00 %
26.10.2016 19:03 9,2 C 96 % 1026,2 hPa 0,0 l/m 3,2 km/h (1 Bft) W-SW 250 0 min 0,000 mm 0,0 UV-I 0 W/m 8,6 C 9,2 C 4,8 km/h (1 Bft) 100,00 %
26.10.2016 19:04 9,2 C 96 % 1026,1 hPa 0,0 l/m 4,8 km/h (1 Bft) W-SW 250 0 min 0,000 mm 0,0 UV-I 0 W/m 8,6 C 9,2 C 6,4 km/h (2 Bft) 100,00 %
26.10.2016 19:05 9,2 C 96 % 1026,1 hPa 0,0 l/m 4,8 km/h (1 Bft) W-SW 250 0 min 0,000 mm 0,0 UV-I 0 W/m 8,6 C 9,2 C 6,4 km/h (2 Bft) 100,00 %
26.10.2016 19:06 9,2 C 96 % 1026,1 hPa 0,0 l/m 4,8 km/h (1 Bft) W-SW 250 0 min 0,000 mm 0,0 UV-I 0 W/m 8,6 C 9,2 C 6,4 km/h (2 Bft) 100,00 %
26.10.2016 19:07 9,1 C 96 % 1026,2 hPa 0,0 l/m 3,2 km/h (1 Bft) W-SW 250 0 min 0,000 mm 0,0 UV-I 0 W/m 8,5 C 9,1 C 6,4 km/h (2 Bft) 100,00 %
26.10.2016 19:08 9,1 C 96 % 1026,2 hPa 0,0 l/m 8,0 km/h (2 Bft) W-SW 250 0 min 0,000 mm 0,0 UV-I 0 W/m 8,5 C 7,9 C 8,0 km/h (2 Bft) 100,00 %
26.10.2016 19:09 9,1 C 96 % 1026,1 hPa 0,0 l/m 4,8 km/h (1 Bft) W-SW 250 0 min 0,000 mm 0,0 UV-I 0 W/m 8,5 C 9,1 C 8,0 km/h (2 Bft) 100,00 %
26.10.2016 19:10 9,0 C 96 % 1026,2 hPa 0,0 l/m 4,8 km/h (1 Bft) W-SW 248 0 min 0,000 mm 0,0 UV-I 0 W/m 8,4 C 9,0 C 8,0 km/h (2 Bft) 100,00 %
26.10.2016 19:11 9,0 C 96 % 1026,2 hPa 0,0 l/m 3,5 km/h (1 Bft) W-SW 248 0 min 0,000 mm 0,0 UV-I 0 W/m 8,4 C 9,0 C 8,0 km/h (2 Bft) 97,66 %
26.10.2016 19:12 8,9 C 96 % 1026,2 hPa 0,0 l/m 3,1 km/h (1 Bft) W-SW 248 0 min 0,000 mm 0,0 UV-I 0 W/m 8,3 C 8,9 C 4,8 km/h (1 Bft) 95,65 %
26.10.2016 19:13 8,8 C 95 % 1026,2 hPa 0,0 l/m 3,6 km/h (1 Bft) W-SW 248 0 min 0,000 mm 0,0 UV-I 0 W/m 8,0 C 8,8 C 4,8 km/h (1 Bft) 100,00 %
26.10.2016 19:14 8,9 C 96 % 1026,1 hPa 0,0 l/m 3,9 km/h (1 Bft) W-SW 248 0 min 0,000 mm 0,0 UV-I 0 W/m 8,3 C 8,9 C 4,8 km/h (1 Bft) 96,15 %
26.10.2016 19:15 8,9 C 96 % 1026,2 hPa 0,0 l/m 3,3 km/h (1 Bft) W-SW 248 0 min 0,000 mm 0,0 UV-I 0 W/m 8,3 C 8,9 C 4,8 km/h (1 Bft) 95,83 %
26.10.2016 19:16 8,9 C 96 % 1026,2 hPa 0,0 l/m 3,6 km/h (1 Bft) W-SW 248 0 min 0,000 mm 0,0 UV-I 0 W/m 8,3 C 8,9 C 4,8 km/h (1 Bft) 100,00 %
26.10.2016 19:17 8,9 C 96 % 1026,2 hPa 0,0 l/m 4,4 km/h (1 Bft) W-SW 248 0 min 0,000 mm 0,0 UV-I 0 W/m 8,3 C 8,9 C 6,4 km/h (2 Bft) 95,83 %
26.10.2016 19:18 8,9 C 96 % 1026,2 hPa 0,0 l/m 3,8 km/h (1 Bft) W-SW 248 0 min 0,000 mm 0,0 UV-I 0 W/m 8,3 C 8,9 C 6,4 km/h (2 Bft) 95,65 %
26.10.2016 19:19 8,9 C 96 % 1026,1 hPa 0,0 l/m 3,1 km/h (1 Bft) W-SW 248 0 min 0,000 mm 0,0 UV-I 0 W/m 8,3 C 8,9 C 6,4 km/h (2 Bft) 95,83 %
26.10.2016 19:20 8,9 C 96 % 1026,1 hPa 0,0 l/m 3,8 km/h (1 Bft) W-SW 248 0 min 0,000 mm 0,0 UV-I 0 W/m 8,3 C 8,9 C 4,8 km/h (1 Bft) 95,65 %
26.10.2016 19:21 8,9 C 96 % 1026,1 hPa 0,0 l/m 3,1 km/h (1 Bft) W-SW 248 0 min 0,000 mm 0,0 UV-I 0 W/m 8,3 C 8,9 C 4,8 km/h (1 Bft) 91,67 %
26.10.2016 19:22 8,9 C 96 % 1026,2 hPa 0,0 l/m 4,3 km/h (1 Bft) W-SW 248 0 min 0,000 mm 0,0 UV-I 0 W/m 8,3 C 8,9 C 4,8 km/h (1 Bft) 100,00 %
26.10.2016 19:23 8,9 C 96 % 1026,2 hPa 0,0 l/m 4,4 km/h (1 Bft) W-SW 248 0 min 0,000 mm 0,0 UV-I 0 W/m 8,3 C 8,9 C 6,4 km/h (2 Bft) 95,83 %
26.10.2016 19:24 8,9 C 96 % 1026,2 hPa 0,0 l/m 3,4 km/h (1 Bft) W-SW 248 0 min 0,000 mm 0,0 UV-I 0 W/m 8,3 C 8,9 C 4,8 km/h (1 Bft) 95,65 %
26.10.2016 19:25 9,0 C 96 % 1026,2 hPa 0,0 l/m 4,5 km/h (1 Bft) W-SW 248 0 min 0,000 mm 0,0 UV-I 0 W/m 8,4 C 9,0 C 6,4 km/h (2 Bft) 100,00 %
26.10.2016 19:26 9,0 C 97 % 1026,2 hPa 0,0 l/m 3,2 km/h (1 Bft) W-SW 248 0 min 0,000 mm 0,0 UV-I 0 W/m 8,5 C 9,0 C 4,8 km/h (1 Bft) 95,65 %
26.10.2016 19:27 9,1 C 97 % 1026,2 hPa 0,0 l/m 1,7 km/h (1 Bft) W-SW 248 0 min 0,000 mm 0,0 UV-I 0 W/m 8,6 C 9,1 C 4,8 km/h (1 Bft) 100,00 %
26.10.2016 19:28 9,1 C 97 % 1026,2 hPa 0,0 l/m 2,8 km/h (1 Bft) W-SW 248 0 min 0,000 mm 0,0 UV-I 0 W/m 8,6 C 9,1 C 4,8 km/h (1 Bft) 95,65 %
26.10.2016 19:29 9,1 C 97 % 1026,2 hPa 0,0 l/m 0,5 km/h (0 Bft) W-SW 248 0 min 0,000 mm 0,0 UV-I 0 W/m 8,6 C 9,1 C 1,6 km/h (1 Bft) 100,00 %
26.10.2016 19:30 9,1 C 97 % 1026,2 hPa 0,0 l/m 0,9 km/h (0 Bft) W-SW 248 0 min 0,000 mm 0,0 UV-I 0 W/m 8,6 C 9,1 C 3,2 km/h (1 Bft) 93,33 %
26.10.2016 19:31 9,1 C 96 % 1026,2 hPa 0,0 l/m 3,3 km/h (1 Bft) W-SW 248 0 min 0,000 mm 0,0 UV-I 0 W/m 8,5 C 9,1 C 4,8 km/h (1 Bft) 100,00 %
26.10.2016 19:32 9,1 C 96 % 1026,3 hPa 0,0 l/m 3,3 km/h (1 Bft) W-SW 248 0 min 0,000 mm 0,0 UV-I 0 W/m 8,5 C 9,1 C 4,8 km/h (1 Bft) 95,83 %
26.10.2016 19:33 9,1 C 96 % 1026,3 hPa 0,0 l/m 1,2 km/h (1 Bft) W-SW 248 0 min 0,000 mm 0,0 UV-I 0 W/m 8,5 C 9,1 C 3,2 km/h (1 Bft) 95,65 %
26.10.2016 19:34 9,1 C 96 % 1026,3 hPa 0,0 l/m 1,1 km/h (1 Bft) W-SW 248 0 min 0,000 mm 0,0 UV-I 0 W/m 8,5 C 9,1 C 1,6 km/h (1 Bft) 100,00 %
26.10.2016 19:35 9,1 C 96 % 1026,3 hPa 0,0 l/m 2,2 km/h (1 Bft) W-SW 248 0 min 0,000 mm 0,0 UV-I 0 W/m 8,5 C 9,1 C 3,2 km/h (1 Bft) 95,65 %
26.10.2016 19:36 9,0 C 96 % 1026,3 hPa 0,0 l/m 1,2 km/h (1 Bft) W-SW 248 0 min 0,000 mm 0,0 UV-I 0 W/m 8,4 C 9,0 C 3,2 km/h (1 Bft) 100,00 %
26.10.2016 19:37 8,9 C 96 % 1026,3 hPa 0,0 l/m 2,0 km/h (1 Bft) W-SW 248 0 min 0,000 mm 0,0 UV-I 0 W/m 8,3 C 8,9 C 3,2 km/h (1 Bft) 91,30 %
26.10.2016 19:38 8,9 C 96 % 1026,3 hPa 0,0 l/m 2,7 km/h (1 Bft) W-SW 248 0 min 0,000 mm 0,0 UV-I 0 W/m 8,3 C 8,9 C 4,8 km/h (1 Bft) 100,00 %
26.10.2016 19:39 8,9 C 96 % 1026,3 hPa 0,0 l/m 1,8 km/h (1 Bft) W-SW 248 0 min 0,000 mm 0,0 UV-I 0 W/m 8,3 C 8,9 C 3,2 km/h (1 Bft) 100,00 %
26.10.2016 19:40 8,9 C 96 % 1026,3 hPa 0,0 l/m 1,3 km/h (1 Bft) W-SW 248 0 min 0,000 mm 0,0 UV-I 0 W/m 8,3 C 8,9 C 3,2 km/h (1 Bft) 100,00 %
26.10.2016 19:41 8,9 C 96 % 1026,3 hPa 0,0 l/m 2,1 km/h (1 Bft) W-SW 248 0 min 0,000 mm 0,0 UV-I 0 W/m 8,3 C 8,9 C 4,8 km/h (1 Bft) 100,00 %
26.10.2016 19:42 8,9 C 96 % 1026,3 hPa 0,0 l/m 2,5 km/h (1 Bft) W-SW 248 0 min 0,000 mm 0,0 UV-I 0 W/m 8,3 C 8,9 C 3,2 km/h (1 Bft) 100,00 %
26.10.2016 19:43 8,9 C 96 % 1026,3 hPa 0,0 l/m 1,3 km/h (1 Bft) W-SW 248 0 min 0,000 mm 0,0 UV-I 0 W/m 8,3 C 8,9 C 1,6 km/h (1 Bft) 95,65 %
26.10.2016 19:44 8,9 C 96 % 1026,3 hPa 0,0 l/m 2,5 km/h (1 Bft) W-SW 248 0 min 0,000 mm 0,0 UV-I 0 W/m 8,3 C 8,9 C 3,2 km/h (1 Bft) 100,00 %
26.10.2016 19:45 8,8 C 96 % 1026,4 hPa 0,0 l/m 0,2 km/h (0 Bft) W-SW 248 0 min 0,000 mm 0,0 UV-I 0 W/m 8,2 C 8,8 C 1,6 km/h (1 Bft) 95,83 %
26.10.2016 19:46 8,8 C 96 % 1026,3 hPa 0,0 l/m 0,6 km/h (0 Bft) W-SW 248 0 min 0,000 mm 0,0 UV-I 0 W/m 8,2 C 8,8 C 3,2 km/h (1 Bft) 91,30 %
26.10.2016 19:47 8,8 C 96 % 1026,3 hPa 0,0 l/m 1,1 km/h (1 Bft) W-SW 248 0 min 0,000 mm 0,0 UV-I 0 W/m 8,2 C 8,8 C 3,2 km/h (1 Bft) 100,00 %
26.10.2016 19:48 8,7 C 96 % 1026,4 hPa 0,0 l/m 0,6 km/h (0 Bft) W-SW 248 0 min 0,000 mm 0,0 UV-I 0 W/m 8,1 C 8,7 C 1,6 km/h (1 Bft) 100,00 %
26.10.2016 19:49 8,7 C 96 % 1026,4 hPa 0,0 l/m 0,4 km/h (0 Bft) W-SW 248 0 min 0,000 mm 0,0 UV-I 0 W/m 8,1 C 8,7 C 1,6 km/h (1 Bft) 100,00 %
26.10.2016 19:50 8,7 C 96 % 1026,3 hPa 0,0 l/m 1,1 km/h (1 Bft) W-SW 248 0 min 0,000 mm 0,0 UV-I 0 W/m 8,1 C 8,7 C 3,2 km/h (1 Bft) 100,00 %
26.10.2016 19:51 8,6 C 96 % 1026,3 hPa 0,0 l/m 2,0 km/h (1 Bft) W-SW 248 0 min 0,000 mm 0,0 UV-I 0 W/m 8,0 C 8,6 C 3,2 km/h (1 Bft) 100,00 %
26.10.2016 19:52 8,6 C 96 % 1026,3 hPa 0,0 l/m 1,4 km/h (1 Bft) W-SW 248 0 min 0,000 mm 0,0 UV-I 0 W/m 8,0 C 8,6 C 3,2 km/h (1 Bft) 91,30 %
26.10.2016 19:53 8,6 C 96 % 1026,4 hPa 0,0 l/m 1,5 km/h (1 Bft) W-SW 248 0 min 0,000 mm 0,0 UV-I 0 W/m 8,0 C 8,6 C 4,8 km/h (1 Bft) 95,83 %
26.10.2016 19:54 8,6 C 96 % 1026,4 hPa 0,0 l/m 2,7 km/h (1 Bft) W-SW 248 0 min 0,000 mm 0,0 UV-I 0 W/m 8,0 C 8,6 C 3,2 km/h (1 Bft) 95,65 %
26.10.2016 19:55 8,6 C 96 % 1026,4 hPa 0,0 l/m 2,6 km/h (1 Bft) W-SW 248 0 min 0,000 mm 0,0 UV-I 0 W/m 8,0 C 8,6 C 3,2 km/h (1 Bft) 100,00 %
26.10.2016 19:56 8,6 C 96 % 1026,4 hPa 0,0 l/m 2,6 km/h (1 Bft) W-SW 248 0 min 0,000 mm 0,0 UV-I 0 W/m 8,0 C 8,6 C 3,2 km/h (1 Bft) 100,00 %
26.10.2016 19:57 8,5 C 96 % 1026,4 hPa 0,0 l/m 2,7 km/h (1 Bft) W-SW 247 0 min 0,000 mm 0,0 UV-I 0 W/m 7,9 C 8,5 C 4,8 km/h (1 Bft) 100,00 %
26.10.2016 19:58 8,5 C 96 % 1026,4 hPa 0,0 l/m 4,1 km/h (1 Bft) W-SW 238 0 min 0,000 mm 0,0 UV-I 0 W/m 7,9 C 8,5 C 6,4 km/h (2 Bft) 92,31 %
26.10.2016 19:59 8,4 C 96 % 1026,4 hPa 0,0 l/m 2,5 km/h (1 Bft) W-SW 237 0 min 0,000 mm 0,0 UV-I 0 W/m 7,8 C 8,4 C 4,8 km/h (1 Bft) 100,00 %
26.10.2016 20:00 8,5 C 96 % 1026,4 hPa 0,0 l/m 2,4 km/h (1 Bft) W-SW 237 0 min 0,000 mm 0,0 UV-I 0 W/m 7,9 C 8,5 C 4,8 km/h (1 Bft) 100,00 %
26.10.2016 20:02 8,5 C 96 % 1026,4 hPa 0,0 l/m 3,2 km/h (1 Bft) SW 236 0 min 0,000 mm 0,0 UV-I 0 W/m 7,9 C 8,5 C 3,2 km/h (1 Bft) 100,00 %
26.10.2016 20:03 8,5 C 97 % 1026,4 hPa 0,0 l/m 1,6 km/h (1 Bft) SW 236 0 min 0,000 mm 0,0 UV-I 0 W/m 8,1 C 8,5 C 4,8 km/h (1 Bft) 100,00 %
26.10.2016 20:04 8,6 C 97 % 1026,4 hPa 0,0 l/m 0,0 km/h (0 Bft) SW 236 0 min 0,000 mm 0,0 UV-I 0 W/m 8,2 C 8,6 C 4,8 km/h (1 Bft) 100,00 %
26.10.2016 20:05 8,6 C 97 % 1026,4 hPa 0,0 l/m 1,6 km/h (1 Bft) SW 236 0 min 0,000 mm 0,0 UV-I 0 W/m 8,2 C 8,6 C 4,8 km/h (1 Bft) 100,00 %
26.10.2016 20:06 8,6 C 97 % 1026,4 hPa 0,0 l/m 0,0 km/h (0 Bft) SW 236 0 min 0,000 mm 0,0 UV-I 0 W/m 8,2 C 8,6 C 4,8 km/h (1 Bft) 100,00 %
26.10.2016 20:07 8,6 C 97 % 1026,4 hPa 0,0 l/m 0,0 km/h (0 Bft) SW 236 0 min 0,000 mm 0,0 UV-I 0 W/m 8,2 C 8,6 C 4,8 km/h (1 Bft) 100,00 %
26.10.2016 20:08 8,6 C 97 % 1026,5 hPa 0,0 l/m 1,6 km/h (1 Bft) SW 236 0 min 0,000 mm 0,0 UV-I 0 W/m 8,2 C 8,6 C 4,8 km/h (1 Bft) 100,00 %
26.10.2016 20:09 8,6 C 97 % 1026,5 hPa 0,0 l/m 3,2 km/h (1 Bft) SW 232 0 min 0,000 mm 0,0 UV-I 0 W/m 8,2 C 8,6 C 4,8 km/h (1 Bft) 100,00 %
26.10.2016 20:10 8,6 C 97 % 1026,4 hPa 0,0 l/m 1,6 km/h (1 Bft) SW 230 0 min 0,000 mm 0,0 UV-I 0 W/m 8,2 C 8,6 C 4,8 km/h (1 Bft) 100,00 %
26.10.2016 20:11 8,6 C 97 % 1026,5 hPa 0,0 l/m 1,5 km/h (1 Bft) SW 230 0 min 0,000 mm 0,0 UV-I 0 W/m 8,2 C 8,6 C 4,8 km/h (1 Bft) 98,84 %
26.10.2016 20:12 8,6 C 97 % 1026,5 hPa 0,0 l/m 1,1 km/h (1 Bft) SW 230 0 min 0,000 mm 0,0 UV-I 0 W/m 8,2 C 8,6 C 1,6 km/h (1 Bft) 100,00 %
26.10.2016 20:13 8,6 C 97 % 1026,5 hPa 0,0 l/m 1,8 km/h (1 Bft) SW 230 0 min 0,000 mm 0,0 UV-I 0 W/m 8,2 C 8,6 C 3,2 km/h (1 Bft) 100,00 %
26.10.2016 20:14 8,7 C 97 % 1026,5 hPa 0,0 l/m 0,5 km/h (0 Bft) SW 230 0 min 0,000 mm 0,0 UV-I 0 W/m 8,3 C 8,7 C 1,6 km/h (1 Bft) 97,22 %
26.10.2016 20:15 8,7 C 97 % 1026,5 hPa 0,0 l/m 1,0 km/h (0 Bft) SW 230 0 min 0,000 mm 0,0 UV-I 0 W/m 8,3 C 8,7 C 3,2 km/h (1 Bft) 100,00 %
26.10.2016 20:16 8,7 C 97 % 1026,5 hPa 0,0 l/m 0,7 km/h (0 Bft) SW 230 0 min 0,000 mm 0,0 UV-I 0 W/m 8,3 C 8,7 C 1,6 km/h (1 Bft) 100,00 %
26.10.2016 20:17 8,7 C 97 % 1026,5 hPa 0,0 l/m 0,1 km/h (0 Bft) SW 230 0 min 0,000 mm 0,0 UV-I 0 W/m 8,3 C 8,7 C 1,6 km/h (1 Bft) 100,00 %
26.10.2016 20:18 8,7 C 97 % 1026,5 hPa 0,0 l/m 0,7 km/h (0 Bft) SW 230 0 min 0,000 mm 0,0 UV-I 0 W/m 8,3 C 8,7 C 1,6 km/h (1 Bft) 100,00 %
26.10.2016 20:19 8,7 C 97 % 1026,5 hPa 0,0 l/m 0,1 km/h (0 Bft) SW 230 0 min 0,000 mm 0,0 UV-I 0 W/m 8,3 C 8,7 C 1,6 km/h (1 Bft) 100,00 %
26.10.2016 20:20 8,7 C 97 % 1026,6 hPa 0,0 l/m 0,3 km/h (0 Bft) SW 230 0 min 0,000 mm 0,0 UV-I 0 W/m 8,3 C 8,7 C 1,6 km/h (1 Bft) 100,00 %
26.10.2016 20:21 8,7 C 97 % 1026,6 hPa 0,0 l/m 0,2 km/h (0 Bft) SW 230 0 min 0,000 mm 0,0 UV-I 0 W/m 8,3 C 8,7 C 1,6 km/h (1 Bft) 100,00 %
26.10.2016 20:22 8,7 C 97 % 1026,7 hPa 0,0 l/m 0,0 km/h (0 Bft) SW 230 0 min 0,000 mm 0,0 UV-I 0 W/m 8,3 C 8,7 C 0,0 km/h (0 Bft) 100,00 %
26.10.2016 20:23 8,7 C 97 % 1026,6 hPa 0,0 l/m 0,0 km/h (0 Bft) SW 230 0 min 0,000 mm 0,0 UV-I 0 W/m 8,3 C 8,7 C 0,0 km/h (0 Bft) 100,00 %
26.10.2016 20:24 8,8 C 97 % 1026,6 hPa 0,0 l/m 2,2 km/h (1 Bft) SW 230 0 min 0,000 mm 0,0 UV-I 0 W/m 8,4 C 8,8 C 3,2 km/h (1 Bft) 100,00 %
26.10.2016 20:25 8,8 C 97 % 1026,6 hPa 0,0 l/m 2,9 km/h (1 Bft) SW 230 0 min 0,000 mm 0,0 UV-I 0 W/m 8,4 C 8,8 C 4,8 km/h (1 Bft) 100,00 %
26.10.2016 20:26 8,8 C 97 % 1026,6 hPa 0,0 l/m 4,4 km/h (1 Bft) SW 230 0 min 0,000 mm 0,0 UV-I 0 W/m 8,4 C 8,8 C 4,8 km/h (1 Bft) 100,00 %
26.10.2016 20:27 8,8 C 97 % 1026,6 hPa 0,0 l/m 3,4 km/h (1 Bft) SW 230 0 min 0,000 mm 0,0 UV-I 0 W/m 8,4 C 8,8 C 4,8 km/h (1 Bft) 100,00 %
26.10.2016 20:28 8,8 C 97 % 1026,6 hPa 0,0 l/m 2,8 km/h (1 Bft) SW 230 0 min 0,000 mm 0,0 UV-I 0 W/m 8,4 C 8,8 C 3,2 km/h (1 Bft) 100,00 %
26.10.2016 20:29 8,8 C 97 % 1026,6 hPa 0,0 l/m 2,8 km/h (1 Bft) SW 230 0 min 0,000 mm 0,0 UV-I 0 W/m 8,4 C 8,8 C 3,2 km/h (1 Bft) 100,00 %
26.10.2016 20:30 8,8 C 97 % 1026,7 hPa 0,0 l/m 2,9 km/h (1 Bft) SW 230 0 min 0,000 mm 0,0 UV-I 0 W/m 8,4 C 8,8 C 3,2 km/h (1 Bft) 100,00 %
26.10.2016 20:31 8,7 C 97 % 1026,6 hPa 0,0 l/m 2,0 km/h (1 Bft) SW 230 0 min 0,000 mm 0,0 UV-I 0 W/m 8,3 C 8,7 C 4,8 km/h (1 Bft) 100,00 %
26.10.2016 20:32 8,6 C 96 % 1026,7 hPa 0,0 l/m 2,1 km/h (1 Bft) SW 230 0 min 0,000 mm 0,0 UV-I 0 W/m 8,0 C 8,6 C 3,2 km/h (1 Bft) 100,00 %
26.10.2016 20:33 8,4 C 96 % 1026,7 hPa 0,0 l/m 2,0 km/h (1 Bft) SW 230 0 min 0,000 mm 0,0 UV-I 0 W/m 7,8 C 8,4 C 4,8 km/h (1 Bft) 100,00 %
26.10.2016 20:34 8,3 C 96 % 1026,7 hPa 0,0 l/m 2,4 km/h (1 Bft) SW 230 0 min 0,000 mm 0,0 UV-I 0 W/m 7,7 C 8,3 C 4,8 km/h (1 Bft) 100,00 %
26.10.2016 20:35 8,3 C 96 % 1026,7 hPa 0,0 l/m 3,8 km/h (1 Bft) SW 230 0 min 0,000 mm 0,0 UV-I 0 W/m 7,7 C 8,3 C 4,8 km/h (1 Bft) 100,00 %
26.10.2016 20:36 8,3 C 97 % 1026,7 hPa 0,0 l/m 3,1 km/h (1 Bft) SW 230 0 min 0,000 mm 0,0 UV-I 0 W/m 7,9 C 8,3 C 4,8 km/h (1 Bft) 100,00 %
26.10.2016 20:37 8,3 C 97 % 1026,7 hPa 0,0 l/m 3,2 km/h (1 Bft) SW 230 0 min 0,000 mm 0,0 UV-I 0 W/m 7,9 C 8,3 C 4,8 km/h (1 Bft) 100,00 %
26.10.2016 20:38 8,3 C 97 % 1026,7 hPa 0,0 l/m 2,5 km/h (1 Bft) SW 230 0 min 0,000 mm 0,0 UV-I 0 W/m 7,9 C 8,3 C 4,8 km/h (1 Bft) 100,00 %
26.10.2016 20:39 8,3 C 97 % 1026,7 hPa 0,0 l/m 3,1 km/h (1 Bft) SW 230 0 min 0,000 mm 0,0 UV-I 0 W/m 7,9 C 8,3 C 4,8 km/h (1 Bft) 100,00 %
26.10.2016 20:40 8,3 C 97 % 1026,7 hPa 0,0 l/m 3,2 km/h (1 Bft) SW 230 0 min 0,000 mm 0,0 UV-I 0 W/m 7,9 C 8,3 C 4,8 km/h (1 Bft) 100,00 %
26.10.2016 20:41 8,2 C 96 % 1026,7 hPa 0,0 l/m 3,2 km/h (1 Bft) SW 230 0 min 0,000 mm 0,0 UV-I 0 W/m 7,6 C 8,2 C 6,4 km/h (2 Bft) 100,00 %
26.10.2016 20:42 8,3 C 97 % 1026,7 hPa 0,0 l/m 4,6 km/h (1 Bft) SW 230 0 min 0,000 mm 0,0 UV-I 0 W/m 7,9 C 8,3 C 6,4 km/h (2 Bft) 95,65 %
26.10.2016 20:43 8,3 C 97 % 1026,8 hPa 0,0 l/m 3,9 km/h (1 Bft) SW 230 0 min 0,000 mm 0,0 UV-I 0 W/m 7,9 C 8,3 C 4,8 km/h (1 Bft) 100,00 %
26.10.2016 20:44 8,3 C 97 % 1026,8 hPa 0,0 l/m 4,3 km/h (1 Bft) SW 230 0 min 0,000 mm 0,0 UV-I 0 W/m 7,9 C 8,3 C 6,4 km/h (2 Bft) 100,00 %
26.10.2016 20:45 8,3 C 97 % 1026,8 hPa 0,0 l/m 4,0 km/h (1 Bft) SW 230 0 min 0,000 mm 0,0 UV-I 0 W/m 7,9 C 8,3 C 4,8 km/h (1 Bft) 95,83 %
26.10.2016 20:46 8,3 C 97 % 1026,8 hPa 0,0 l/m 3,0 km/h (1 Bft) SW 230 0 min 0,000 mm 0,0 UV-I 0 W/m 7,9 C 8,3 C 4,8 km/h (1 Bft) 95,65 %
26.10.2016 20:47 8,3 C 97 % 1026,8 hPa 0,0 l/m 4,2 km/h (1 Bft) SW 230 0 min 0,000 mm 0,0 UV-I 0 W/m 7,9 C 8,3 C 6,4 km/h (2 Bft) 95,83 %
26.10.2016 20:48 8,3 C 97 % 1026,8 hPa 0,0 l/m 4,4 km/h (1 Bft) SW 230 0 min 0,000 mm 0,0 UV-I 0 W/m 7,9 C 8,3 C 6,4 km/h (2 Bft) 100,00 %
26.10.2016 20:49 8,3 C 97 % 1026,8 hPa 0,0 l/m 3,7 km/h (1 Bft) SW 230 0 min 0,000 mm 0,0 UV-I 0 W/m 7,9 C 8,3 C 4,8 km/h (1 Bft) 95,65 %
26.10.2016 20:50 8,4 C 97 % 1026,9 hPa 0,0 l/m 3,6 km/h (1 Bft) SW 230 0 min 0,000 mm 0,0 UV-I 0 W/m 8,0 C 8,4 C 4,8 km/h (1 Bft) 100,00 %
26.10.2016 20:51 8,4 C 97 % 1026,9 hPa 0,0 l/m 5,4 km/h (1 Bft) SW 229 0 min 0,000 mm 0,0 UV-I 0 W/m 8,0 C 8,4 C 6,4 km/h (2 Bft) 100,00 %
26.10.2016 20:52 8,4 C 97 % 1026,9 hPa 0,0 l/m 5,3 km/h (1 Bft) SW 229 0 min 0,000 mm 0,0 UV-I 0 W/m 8,0 C 8,4 C 6,4 km/h (2 Bft) 100,00 %
26.10.2016 20:53 8,3 C 97 % 1026,9 hPa 0,0 l/m 4,4 km/h (1 Bft) SW 229 0 min 0,000 mm 0,0 UV-I 0 W/m 7,9 C 8,3 C 6,4 km/h (2 Bft) 100,00 %
26.10.2016 20:54 8,3 C 97 % 1026,9 hPa 0,0 l/m 4,9 km/h (1 Bft) SW 228 0 min 0,000 mm 0,0 UV-I 0 W/m 7,9 C 8,3 C 8,0 km/h (2 Bft) 91,67 %
26.10.2016 20:55 8,3 C 97 % 1026,9 hPa 0,0 l/m 5,5 km/h (1 Bft) SW 227 0 min 0,000 mm 0,0 UV-I 0 W/m 7,9 C 8,3 C 8,0 km/h (2 Bft) 100,00 %
26.10.2016 20:56 8,3 C 97 % 1026,9 hPa 0,0 l/m 4,8 km/h (1 Bft) SW 225 0 min 0,000 mm 0,0 UV-I 0 W/m 7,9 C 8,3 C 6,4 km/h (2 Bft) 100,00 %
26.10.2016 20:57 8,3 C 97 % 1026,9 hPa 0,0 l/m 4,7 km/h (1 Bft) SW 217 0 min 0,000 mm 0,0 UV-I 0 W/m 7,9 C 8,3 C 8,0 km/h (2 Bft) 100,00 %
26.10.2016 20:58 8,3 C 97 % 1026,9 hPa 0,0 l/m 6,3 km/h (2 Bft) SW 216 0 min 0,000 mm 0,0 UV-I 0 W/m 7,9 C 8,3 C 8,0 km/h (2 Bft) 100,00 %
26.10.2016 20:59 8,3 C 97 % 1026,9 hPa 0,0 l/m 3,9 km/h (1 Bft) SW 216 0 min 0,000 mm 0,0 UV-I 0 W/m 7,9 C 8,3 C 6,4 km/h (2 Bft) 100,00 %
26.10.2016 21:00 8,3 C 97 % 1026,9 hPa 0,0 l/m 4,8 km/h (1 Bft) SW 216 0 min 0,000 mm 0,0 UV-I 0 W/m 7,9 C 8,3 C 6,4 km/h (2 Bft) 100,00 %
26.10.2016 21:02 8,3 C 97 % 1026,9 hPa 0,0 l/m 1,6 km/h (1 Bft) SW 216 0 min 0,000 mm 0,0 UV-I 0 W/m 7,9 C 8,3 C 8,0 km/h (2 Bft) 100,00 %
26.10.2016 21:03 8,3 C 97 % 1026,9 hPa 0,0 l/m 6,4 km/h (2 Bft) SW 216 0 min 0,000 mm 0,0 UV-I 0 W/m 7,9 C 8,3 C 8,0 km/h (2 Bft) 100,00 %
26.10.2016 21:04 8,3 C 97 % 1027,0 hPa 0,0 l/m 9,7 km/h (2 Bft) S-SW 210 0 min 0,000 mm 0,0 UV-I 0 W/m 7,9 C 5,9 C 9,7 km/h (2 Bft) 100,00 %
26.10.2016 21:05 8,3 C 97 % 1026,9 hPa 0,0 l/m 6,4 km/h (2 Bft) S-SW 202 0 min 0,000 mm 0,0 UV-I 0 W/m 7,9 C 8,3 C 9,7 km/h (2 Bft) 100,00 %
26.10.2016 21:06 8,4 C 97 % 1027,0 hPa 0,0 l/m 3,2 km/h (1 Bft) S-SW 197 0 min 0,000 mm 0,0 UV-I 0 W/m 8,0 C 8,4 C 11,3 km/h (2 Bft) 100,00 %
26.10.2016 21:07 8,3 C 97 % 1027,0 hPa 0,0 l/m 4,8 km/h (1 Bft) S-SW 197 0 min 0,000 mm 0,0 UV-I 0 W/m 7,9 C 8,3 C 11,3 km/h (2 Bft) 100,00 %
26.10.2016 21:08 8,3 C 97 % 1027,0 hPa 0,0 l/m 3,2 km/h (1 Bft) S-SW 197 0 min 0,000 mm 0,0 UV-I 0 W/m 7,9 C 8,3 C 11,3 km/h (2 Bft) 100,00 %
26.10.2016 21:09 8,3 C 97 % 1026,9 hPa 0,0 l/m 4,8 km/h (1 Bft) S-SW 197 0 min 0,000 mm 0,0 UV-I 0 W/m 7,9 C 8,3 C 11,3 km/h (2 Bft) 100,00 %
26.10.2016 21:10 8,3 C 97 % 1026,9 hPa 0,0 l/m 3,2 km/h (1 Bft) S-SW 197 0 min 0,000 mm 0,0 UV-I 0 W/m 7,9 C 8,3 C 11,3 km/h (2 Bft) 100,00 %
26.10.2016 21:11 8,3 C 97 % 1027,0 hPa 0,0 l/m 4,9 km/h (1 Bft) S-SW 200 0 min 0,000 mm 0,0 UV-I 0 W/m 7,9 C 8,3 C 11,3 km/h (2 Bft) 97,68 %
26.10.2016 21:12 8,3 C 97 % 1026,9 hPa 0,0 l/m 2,3 km/h (1 Bft) S-SW 198 0 min 0,000 mm 0,0 UV-I 0 W/m 7,9 C 8,3 C 3,2 km/h (1 Bft) 90,91 %
26.10.2016 21:13 8,3 C 97 % 1027,0 hPa 0,0 l/m 4,6 km/h (1 Bft) S-SW 198 0 min 0,000 mm 0,0 UV-I 0 W/m 7,9 C 8,3 C 6,4 km/h (2 Bft) 100,00 %
26.10.2016 21:14 8,3 C 97 % 1027,0 hPa 0,0 l/m 3,6 km/h (1 Bft) S-SW 198 0 min 0,000 mm 0,0 UV-I 0 W/m 7,9 C 8,3 C 6,4 km/h (2 Bft) 95,65 %
26.10.2016 21:15 8,3 C 97 % 1027,0 hPa 0,0 l/m 5,2 km/h (1 Bft) S-SW 202 0 min 0,000 mm 0,0 UV-I 0 W/m 7,9 C 8,3 C 8,0 km/h (2 Bft) 100,00 %
26.10.2016 21:16 8,3 C 97 % 1027,0 hPa 0,0 l/m 5,8 km/h (2 Bft) S-SW 206 0 min 0,000 mm 0,0 UV-I 0 W/m 7,9 C 8,3 C 8,0 km/h (2 Bft) 95,65 %
26.10.2016 21:17 8,3 C 97 % 1027,0 hPa 0,0 l/m 4,8 km/h (1 Bft) S 186 0 min 0,000 mm 0,0 UV-I 0 W/m 7,9 C 8,3 C 6,4 km/h (2 Bft) 100,00 %
26.10.2016 21:18 8,3 C 97 % 1027,0 hPa 0,0 l/m 6,2 km/h (2 Bft) S-SW 202 0 min 0,000 mm 0,0 UV-I 0 W/m 7,9 C 8,3 C 9,7 km/h (2 Bft) 95,65 %
26.10.2016 21:19 8,3 C 97 % 1027,0 hPa 0,0 l/m 5,7 km/h (1 Bft) S-SW 203 0 min 0,000 mm 0,0 UV-I 0 W/m 7,9 C 8,3 C 8,0 km/h (2 Bft) 91,67 %
26.10.2016 21:20 8,3 C 97 % 1027,0 hPa 0,0 l/m 8,0 km/h (2 Bft) SW 215 0 min 0,000 mm 0,0 UV-I 0 W/m 7,9 C 7,1 C 11,3 km/h (2 Bft) 100,00 %
26.10.2016 21:21 8,3 C 97 % 1027,0 hPa 0,0 l/m 5,8 km/h (2 Bft) SW 215 0 min 0,000 mm 0,0 UV-I 0 W/m 7,9 C 8,3 C 8,0 km/h (2 Bft) 95,83 %
26.10.2016 21:22 8,3 C 97 % 1027,0 hPa 0,0 l/m 7,0 km/h (2 Bft) S-SW 209 0 min 0,000 mm 0,0 UV-I 0 W/m 7,9 C 7,8 C 9,7 km/h (2 Bft) 100,00 %
26.10.2016 21:23 8,3 C 97 % 1027,0 hPa 0,0 l/m 6,4 km/h (2 Bft) SW 221 0 min 0,000 mm 0,0 UV-I 0 W/m 7,9 C 8,3 C 8,0 km/h (2 Bft) 87,50 %
26.10.2016 21:24 8,3 C 97 % 1027,0 hPa 0,0 l/m 6,0 km/h (2 Bft) SW 219 0 min 0,000 mm 0,0 UV-I 0 W/m 7,9 C 8,3 C 9,7 km/h (2 Bft) 100,00 %
26.10.2016 21:25 8,3 C 97 % 1027,1 hPa 0,0 l/m 5,1 km/h (1 Bft) SW 219 0 min 0,000 mm 0,0 UV-I 0 W/m 7,9 C 8,3 C 8,0 km/h (2 Bft) 95,65 %
26.10.2016 21:26 8,3 C 97 % 1027,1 hPa 0,0 l/m 6,3 km/h (2 Bft) S-SW 212 0 min 0,000 mm 0,0 UV-I 0 W/m 7,9 C 8,3 C 9,7 km/h (2 Bft) 100,00 %
26.10.2016 21:27 8,3 C 97 % 1027,1 hPa 0,0 l/m 4,8 km/h (1 Bft) S-SW 210 0 min 0,000 mm 0,0 UV-I 0 W/m 7,9 C 8,3 C 6,4 km/h (2 Bft) 95,65 %
26.10.2016 21:28 8,3 C 97 % 1027,2 hPa 0,0 l/m 6,4 km/h (2 Bft) S-SW 213 0 min 0,000 mm 0,0 UV-I 0 W/m 7,9 C 8,3 C 9,7 km/h (2 Bft) 96,30 %
26.10.2016 21:29 8,3 C 97 % 1027,2 hPa 0,0 l/m 6,0 km/h (2 Bft) S-SW 213 0 min 0,000 mm 0,0 UV-I 0 W/m 7,9 C 8,3 C 6,4 km/h (2 Bft) 100,00 %
26.10.2016 21:30 8,3 C 97 % 1027,2 hPa 0,0 l/m 5,6 km/h (1 Bft) S-SW 213 0 min 0,000 mm 0,0 UV-I 0 W/m 7,9 C 8,3 C 8,0 km/h (2 Bft) 95,83 %
26.10.2016 21:31 8,3 C 97 % 1027,2 hPa 0,0 l/m 3,7 km/h (1 Bft) S-SW 213 0 min 0,000 mm 0,0 UV-I 0 W/m 7,9 C 8,3 C 6,4 km/h (2 Bft) 100,00 %
26.10.2016 21:32 8,3 C 97 % 1027,2 hPa 0,0 l/m 4,6 km/h (1 Bft) S-SW 200 0 min 0,000 mm 0,0 UV-I 0 W/m 7,9 C 8,3 C 8,0 km/h (2 Bft) 95,83 %
26.10.2016 21:33 8,3 C 97 % 1027,2 hPa 0,0 l/m 4,1 km/h (1 Bft) S-SW 200 0 min 0,000 mm 0,0 UV-I 0 W/m 7,9 C 8,3 C 6,4 km/h (2 Bft) 95,65 %
26.10.2016 21:34 8,3 C 97 % 1027,2 hPa 0,0 l/m 4,5 km/h (1 Bft) S-SW 212 0 min 0,000 mm 0,0 UV-I 0 W/m 7,9 C 8,3 C 6,4 km/h (2 Bft) 95,83 %
26.10.2016 21:35 8,3 C 97 % 1027,2 hPa 0,0 l/m 5,0 km/h (1 Bft) S-SW 207 0 min 0,000 mm 0,0 UV-I 0 W/m 7,9 C 8,3 C 6,4 km/h (2 Bft) 95,65 %
26.10.2016 21:36 8,3 C 97 % 1027,2 hPa 0,0 l/m 3,0 km/h (1 Bft) S-SW 205 0 min 0,000 mm 0,0 UV-I 0 W/m 7,9 C 8,3 C 4,8 km/h (1 Bft) 100,00 %
26.10.2016 21:37 8,3 C 97 % 1027,2 hPa 0,0 l/m 4,2 km/h (1 Bft) S-SW 205 0 min 0,000 mm 0,0 UV-I 0 W/m 7,9 C 8,3 C 6,4 km/h (2 Bft) 95,65 %
26.10.2016 21:38 8,4 C 97 % 1027,2 hPa 0,0 l/m 5,5 km/h (1 Bft) S-SW 207 0 min 0,000 mm 0,0 UV-I 0 W/m 8,0 C 8,4 C 6,4 km/h (2 Bft) 100,00 %
26.10.2016 21:39 8,4 C 97 % 1027,2 hPa 0,0 l/m 3,8 km/h (1 Bft) S 186 0 min 0,000 mm 0,0 UV-I 0 W/m 8,0 C 8,4 C 6,4 km/h (2 Bft) 91,30 %
26.10.2016 21:40 8,4 C 97 % 1027,2 hPa 0,0 l/m 4,5 km/h (1 Bft) S 189 0 min 0,000 mm 0,0 UV-I 0 W/m 8,0 C 8,4 C 6,4 km/h (2 Bft) 100,00 %
26.10.2016 21:41 8,4 C 97 % 1027,2 hPa 0,0 l/m 3,6 km/h (1 Bft) S 189 0 min 0,000 mm 0,0 UV-I 0 W/m 8,0 C 8,4 C 4,8 km/h (1 Bft) 100,00 %
26.10.2016 21:42 8,4 C 97 % 1027,2 hPa 0,0 l/m 3,8 km/h (1 Bft) S 191 0 min 0,000 mm 0,0 UV-I 0 W/m 8,0 C 8,4 C 6,4 km/h (2 Bft) 100,00 %
26.10.2016 21:43 8,4 C 97 % 1027,2 hPa 0,0 l/m 4,3 km/h (1 Bft) S-SW 192 0 min 0,000 mm 0,0 UV-I 0 W/m 8,0 C 8,4 C 4,8 km/h (1 Bft) 91,30 %
26.10.2016 21:44 8,5 C 97 % 1027,2 hPa 0,0 l/m 4,2 km/h (1 Bft) S-SW 192 0 min 0,000 mm 0,0 UV-I 0 W/m 8,1 C 8,5 C 6,4 km/h (2 Bft) 93,33 %
26.10.2016 21:45 8,5 C 97 % 1027,2 hPa 0,0 l/m 3,1 km/h (1 Bft) S-SW 193 0 min 0,000 mm 0,0 UV-I 0 W/m 8,1 C 8,5 C 4,8 km/h (1 Bft) 100,00 %
26.10.2016 21:46 8,5 C 97 % 1027,2 hPa 0,0 l/m 3,4 km/h (1 Bft) S-SW 195 0 min 0,000 mm 0,0 UV-I 0 W/m 8,1 C 8,5 C 4,8 km/h (1 Bft) 100,00 %
26.10.2016 21:47 8,5 C 97 % 1027,2 hPa 0,0 l/m 4,3 km/h (1 Bft) S-SW 195 0 min 0,000 mm 0,0 UV-I 0 W/m 8,1 C 8,5 C 6,4 km/h (2 Bft) 100,00 %
26.10.2016 21:48 8,5 C 97 % 1027,2 hPa 0,0 l/m 3,0 km/h (1 Bft) S-SW 196 0 min 0,000 mm 0,0 UV-I 0 W/m 8,1 C 8,5 C 4,8 km/h (1 Bft) 100,00 %
26.10.2016 21:49 8,6 C 97 % 1027,2 hPa 0,0 l/m 3,8 km/h (1 Bft) SW 219 0 min 0,000 mm 0,0 UV-I 0 W/m 8,2 C 8,6 C 8,0 km/h (2 Bft) 91,67 %
26.10.2016 21:50 8,6 C 97 % 1027,3 hPa 0,0 l/m 2,5 km/h (1 Bft) SW 229 0 min 0,000 mm 0,0 UV-I 0 W/m 8,2 C 8,6 C 6,4 km/h (2 Bft) 95,65 %
26.10.2016 21:51 8,6 C 97 % 1027,3 hPa 0,0 l/m 2,5 km/h (1 Bft) SW 229 0 min 0,000 mm 0,0 UV-I 0 W/m 8,2 C 8,6 C 4,8 km/h (1 Bft) 100,00 %
26.10.2016 21:52 8,6 C 97 % 1027,3 hPa 0,0 l/m 3,1 km/h (1 Bft) SW 229 0 min 0,000 mm 0,0 UV-I 0 W/m 8,2 C 8,6 C 4,8 km/h (1 Bft) 95,65 %
26.10.2016 21:53 8,6 C 97 % 1027,3 hPa 0,0 l/m 3,6 km/h (1 Bft) SW 227 0 min 0,000 mm 0,0 UV-I 0 W/m 8,2 C 8,6 C 4,8 km/h (1 Bft) 100,00 %
26.10.2016 21:54 8,7 C 97 % 1027,3 hPa 0,0 l/m 4,0 km/h (1 Bft) SW 224 0 min 0,000 mm 0,0 UV-I 0 W/m 8,3 C 8,7 C 6,4 km/h (2 Bft) 100,00 %
26.10.2016 21:55 8,7 C 97 % 1027,3 hPa 0,0 l/m 4,7 km/h (1 Bft) SW 224 0 min 0,000 mm 0,0 UV-I 0 W/m 8,3 C 8,7 C 6,4 km/h (2 Bft) 100,00 %
26.10.2016 21:56 8,7 C 97 % 1027,3 hPa 0,0 l/m 3,1 km/h (1 Bft) SW 224 0 min 0,000 mm 0,0 UV-I 0 W/m 8,3 C 8,7 C 6,4 km/h (2 Bft) 100,00 %
26.10.2016 21:57 8,7 C 97 % 1027,3 hPa 0,0 l/m 3,6 km/h (1 Bft) SW 224 0 min 0,000 mm 0,0 UV-I 0 W/m 8,3 C 8,7 C 4,8 km/h (1 Bft) 100,00 %
26.10.2016 21:58 8,7 C 97 % 1027,3 hPa 0,0 l/m 3,5 km/h (1 Bft) SW 223 0 min 0,000 mm 0,0 UV-I 0 W/m 8,3 C 8,7 C 4,8 km/h (1 Bft) 100,00 %
26.10.2016 21:59 8,7 C 97 % 1027,3 hPa 0,0 l/m 3,7 km/h (1 Bft) SW 222 0 min 0,000 mm 0,0 UV-I 0 W/m 8,3 C 8,7 C 4,8 km/h (1 Bft) 100,00 %
26.10.2016 22:00 8,7 C 97 % 1027,3 hPa 0,0 l/m 4,3 km/h (1 Bft) SW 223 0 min 0,000 mm 0,0 UV-I 0 W/m 8,3 C 8,7 C 6,4 km/h (2 Bft) 100,00 %
26.10.2016 22:01 8,7 C 97 % 1027,3 hPa 0,0 l/m 3,2 km/h (1 Bft) SW 223 0 min 0,000 mm 0,0 UV-I 0 W/m 8,3 C 8,7 C 4,8 km/h (1 Bft) 91,67 %
26.10.2016 22:02 8,7 C 97 % 1027,2 hPa 0,0 l/m 4,0 km/h (1 Bft) SW 227 0 min 0,000 mm 0,0 UV-I 0 W/m 8,3 C 8,7 C 6,4 km/h (2 Bft) 100,00 %
26.10.2016 22:03 8,8 C 97 % 1027,3 hPa 0,0 l/m 3,9 km/h (1 Bft) SW 226 0 min 0,000 mm 0,0 UV-I 0 W/m 8,4 C 8,8 C 6,4 km/h (2 Bft) 100,00 %
26.10.2016 22:04 8,8 C 97 % 1027,3 hPa 0,0 l/m 4,5 km/h (1 Bft) SW 226 0 min 0,000 mm 0,0 UV-I 0 W/m 8,4 C 8,8 C 6,4 km/h (2 Bft) 100,00 %
26.10.2016 22:05 8,8 C 97 % 1027,3 hPa 0,0 l/m 2,9 km/h (1 Bft) SW 226 0 min 0,000 mm 0,0 UV-I 0 W/m 8,4 C 8,8 C 6,4 km/h (2 Bft) 100,00 %
26.10.2016 22:06 8,8 C 97 % 1027,3 hPa 0,0 l/m 3,0 km/h (1 Bft) SW 226 0 min 0,000 mm 0,0 UV-I 0 W/m 8,4 C 8,8 C 6,4 km/h (2 Bft) 100,00 %
26.10.2016 22:07 8,8 C 97 % 1027,3 hPa 0,0 l/m 4,9 km/h (1 Bft) SW 226 0 min 0,000 mm 0,0 UV-I 0 W/m 8,4 C 8,8 C 8,0 km/h (2 Bft) 100,00 %
26.10.2016 22:08 8,8 C 97 % 1027,3 hPa 0,0 l/m 2,0 km/h (1 Bft) SW 223 0 min 0,000 mm 0,0 UV-I 0 W/m 8,4 C 8,8 C 3,2 km/h (1 Bft) 100,00 %
26.10.2016 22:09 8,8 C 97 % 1027,3 hPa 0,0 l/m 3,1 km/h (1 Bft) SW 215 0 min 0,000 mm 0,0 UV-I 0 W/m 8,4 C 8,8 C 4,8 km/h (1 Bft) 96,15 %
26.10.2016 22:10 8,8 C 97 % 1027,3 hPa 0,0 l/m 1,5 km/h (1 Bft) SW 215 0 min 0,000 mm 0,0 UV-I 0 W/m 8,4 C 8,8 C 3,2 km/h (1 Bft) 100,00 %
26.10.2016 22:11 8,8 C 97 % 1027,3 hPa 0,0 l/m 2,2 km/h (1 Bft) SW 215 0 min 0,000 mm 0,0 UV-I 0 W/m 8,4 C 8,8 C 3,2 km/h (1 Bft) 100,00 %
26.10.2016 22:12 8,8 C 97 % 1027,3 hPa 0,0 l/m 2,4 km/h (1 Bft) SW 215 0 min 0,000 mm 0,0 UV-I 0 W/m 8,4 C 8,8 C 4,8 km/h (1 Bft) 100,00 %
26.10.2016 22:13 8,8 C 97 % 1027,3 hPa 0,0 l/m 1,3 km/h (1 Bft) SW 215 0 min 0,000 mm 0,0 UV-I 0 W/m 8,4 C 8,8 C 3,2 km/h (1 Bft) 100,00 %
26.10.2016 22:14 8,8 C 97 % 1027,3 hPa 0,0 l/m 2,7 km/h (1 Bft) SW 215 0 min 0,000 mm 0,0 UV-I 0 W/m 8,4 C 8,8 C 4,8 km/h (1 Bft) 100,00 %
26.10.2016 22:15 8,8 C 97 % 1027,3 hPa 0,0 l/m 2,2 km/h (1 Bft) S-SW 206 0 min 0,000 mm 0,0 UV-I 0 W/m 8,4 C 8,8 C 4,8 km/h (1 Bft) 100,00 %
26.10.2016 22:16 8,9 C 97 % 1027,3 hPa 0,0 l/m 0,8 km/h (0 Bft) S-SW 206 0 min 0,000 mm 0,0 UV-I 0 W/m 8,4 C 8,9 C 1,6 km/h (1 Bft) 95,83 %
26.10.2016 22:17 8,9 C 96 % 1027,3 hPa 0,0 l/m 0,3 km/h (0 Bft) S-SW 206 0 min 0,000 mm 0,0 UV-I 0 W/m 8,3 C 8,9 C 1,6 km/h (1 Bft) 91,30 %
26.10.2016 22:18 8,9 C 96 % 1027,3 hPa 0,0 l/m 0,4 km/h (0 Bft) S-SW 206 0 min 0,000 mm 0,0 UV-I 0 W/m 8,3 C 8,9 C 1,6 km/h (1 Bft) 100,00 %
26.10.2016 22:19 8,9 C 96 % 1027,3 hPa 0,0 l/m 0,6 km/h (0 Bft) S-SW 206 0 min 0,000 mm 0,0 UV-I 0 W/m 8,3 C 8,9 C 1,6 km/h (1 Bft) 100,00 %
26.10.2016 22:20 8,9 C 96 % 1027,3 hPa 0,0 l/m 1,7 km/h (1 Bft) S-SW 206 0 min 0,000 mm 0,0 UV-I 0 W/m 8,3 C 8,9 C 4,8 km/h (1 Bft) 100,00 %
26.10.2016 22:21 8,9 C 96 % 1027,3 hPa 0,0 l/m 1,2 km/h (1 Bft) S-SW 206 0 min 0,000 mm 0,0 UV-I 0 W/m 8,3 C 8,9 C 3,2 km/h (1 Bft) 100,00 %
26.10.2016 22:22 8,9 C 96 % 1027,3 hPa 0,0 l/m 1,4 km/h (1 Bft) S-SW 206 0 min 0,000 mm 0,0 UV-I 0 W/m 8,3 C 8,9 C 3,2 km/h (1 Bft) 100,00 %
26.10.2016 22:23 8,9 C 97 % 1027,3 hPa 0,0 l/m 3,2 km/h (1 Bft) S-SW 206 0 min 0,000 mm 0,0 UV-I 0 W/m 8,4 C 8,9 C 6,4 km/h (2 Bft) 91,30 %
26.10.2016 22:24 8,9 C 97 % 1027,3 hPa 0,0 l/m 2,1 km/h (1 Bft) S-SW 206 0 min 0,000 mm 0,0 UV-I 0 W/m 8,4 C 8,9 C 6,4 km/h (2 Bft) 100,00 %
26.10.2016 22:25 8,9 C 97 % 1027,3 hPa 0,0 l/m 3,1 km/h (1 Bft) S-SW 206 0 min 0,000 mm 0,0 UV-I 0 W/m 8,4 C 8,9 C 4,8 km/h (1 Bft) 100,00 %
26.10.2016 22:26 9,0 C 96 % 1027,3 hPa 0,0 l/m 2,1 km/h (1 Bft) S-SW 206 0 min 0,000 mm 0,0 UV-I 0 W/m 8,4 C 9,0 C 3,2 km/h (1 Bft) 100,00 %
26.10.2016 22:27 8,9 C 96 % 1027,4 hPa 0,0 l/m 3,3 km/h (1 Bft) S-SW 206 0 min 0,000 mm 0,0 UV-I 0 W/m 8,3 C 8,9 C 4,8 km/h (1 Bft) 95,65 %
26.10.2016 22:28 9,0 C 96 % 1027,4 hPa 0,0 l/m 2,7 km/h (1 Bft) S-SW 206 0 min 0,000 mm 0,0 UV-I 0 W/m 8,4 C 9,0 C 3,2 km/h (1 Bft) 100,00 %
26.10.2016 22:29 9,0 C 96 % 1027,4 hPa 0,0 l/m 3,5 km/h (1 Bft) S-SW 206 0 min 0,000 mm 0,0 UV-I 0 W/m 8,4 C 9,0 C 4,8 km/h (1 Bft) 100,00 %
26.10.2016 22:30 9,0 C 96 % 1027,4 hPa 0,0 l/m 4,3 km/h (1 Bft) S-SW 206 0 min 0,000 mm 0,0 UV-I 0 W/m 8,4 C 9,0 C 6,4 km/h (2 Bft) 95,65 %
26.10.2016 22:31 9,0 C 96 % 1027,4 hPa 0,0 l/m 6,2 km/h (2 Bft) S-SW 206 0 min 0,000 mm 0,0 UV-I 0 W/m 8,4 C 9,0 C 8,0 km/h (2 Bft) 100,00 %
26.10.2016 22:32 9,0 C 96 % 1027,5 hPa 0,0 l/m 4,0 km/h (1 Bft) S-SW 206 0 min 0,000 mm 0,0 UV-I 0 W/m 8,4 C 9,0 C 6,4 km/h (2 Bft) 100,00 %
26.10.2016 22:33 9,0 C 96 % 1027,5 hPa 0,0 l/m 6,0 km/h (2 Bft) W-SW 242 0 min 0,000 mm 0,0 UV-I 0 W/m 8,4 C 9,0 C 8,0 km/h (2 Bft) 100,00 %
26.10.2016 22:34 9,0 C 96 % 1027,5 hPa 0,0 l/m 5,4 km/h (1 Bft) SW 220 0 min 0,000 mm 0,0 UV-I 0 W/m 8,4 C 9,0 C 8,0 km/h (2 Bft) 100,00 %
26.10.2016 22:35 9,0 C 96 % 1027,5 hPa 0,0 l/m 5,4 km/h (1 Bft) SW 219 0 min 0,000 mm 0,0 UV-I 0 W/m 8,4 C 9,0 C 8,0 km/h (2 Bft) 100,00 %
26.10.2016 22:36 9,0 C 96 % 1027,5 hPa 0,0 l/m 4,6 km/h (1 Bft) SW 218 0 min 0,000 mm 0,0 UV-I 0 W/m 8,4 C 9,0 C 6,4 km/h (2 Bft) 95,65 %
26.10.2016 22:37 9,0 C 96 % 1027,5 hPa 0,0 l/m 3,6 km/h (1 Bft) SW 218 0 min 0,000 mm 0,0 UV-I 0 W/m 8,4 C 9,0 C 6,4 km/h (2 Bft) 100,00 %
26.10.2016 22:38 9,0 C 96 % 1027,5 hPa 0,0 l/m 3,6 km/h (1 Bft) SW 218 0 min 0,000 mm 0,0 UV-I 0 W/m 8,4 C 9,0 C 4,8 km/h (1 Bft) 100,00 %
26.10.2016 22:39 9,1 C 96 % 1027,5 hPa 0,0 l/m 3,5 km/h (1 Bft) SW 218 0 min 0,000 mm 0,0 UV-I 0 W/m 8,5 C 9,1 C 4,8 km/h (1 Bft) 100,00 %
26.10.2016 22:40 9,1 C 96 % 1027,5 hPa 0,0 l/m 4,9 km/h (1 Bft) W-SW 238 0 min 0,000 mm 0,0 UV-I 0 W/m 8,5 C 9,1 C 6,4 km/h (2 Bft) 100,00 %
26.10.2016 22:41 9,0 C 96 % 1027,5 hPa 0,0 l/m 4,0 km/h (1 Bft) W-SW 237 0 min 0,000 mm 0,0 UV-I 0 W/m 8,4 C 9,0 C 4,8 km/h (1 Bft) 100,00 %
26.10.2016 22:42 9,0 C 96 % 1027,5 hPa 0,0 l/m 4,7 km/h (1 Bft) SW 232 0 min 0,000 mm 0,0 UV-I 0 W/m 8,4 C 9,0 C 8,0 km/h (2 Bft) 100,00 %
26.10.2016 22:43 9,0 C 96 % 1027,5 hPa 0,0 l/m 6,8 km/h (2 Bft) SW 223 0 min 0,000 mm 0,0 UV-I 0 W/m 8,4 C 8,7 C 8,0 km/h (2 Bft) 95,83 %
26.10.2016 22:44 9,0 C 96 % 1027,5 hPa 0,0 l/m 6,1 km/h (2 Bft) SW 234 0 min 0,000 mm 0,0 UV-I 0 W/m 8,4 C 9,0 C 8,0 km/h (2 Bft) 100,00 %
26.10.2016 22:45 9,0 C 96 % 1027,5 hPa 0,0 l/m 6,0 km/h (2 Bft) SW 225 0 min 0,000 mm 0,0 UV-I 0 W/m 8,4 C 9,0 C 8,0 km/h (2 Bft) 100,00 %
26.10.2016 22:46 9,0 C 96 % 1027,5 hPa 0,0 l/m 5,9 km/h (2 Bft) SW 228 0 min 0,000 mm 0,0 UV-I 0 W/m 8,4 C 9,0 C 8,0 km/h (2 Bft) 100,00 %
26.10.2016 22:47 9,0 C 96 % 1027,5 hPa 0,0 l/m 6,7 km/h (2 Bft) SW 235 0 min 0,000 mm 0,0 UV-I 0 W/m 8,4 C 8,8 C 8,0 km/h (2 Bft) 100,00 %
26.10.2016 22:48 8,9 C 96 % 1027,5 hPa 0,0 l/m 6,3 km/h (2 Bft) SW 230 0 min 0,000 mm 0,0 UV-I 0 W/m 8,3 C 8,9 C 8,0 km/h (2 Bft) 100,00 %
26.10.2016 22:49 8,9 C 96 % 1027,5 hPa 0,0 l/m 6,9 km/h (2 Bft) SW 229 0 min 0,000 mm 0,0 UV-I 0 W/m 8,3 C 8,5 C 9,7 km/h (2 Bft) 100,00 %
26.10.2016 22:50 8,9 C 96 % 1027,5 hPa 0,0 l/m 6,8 km/h (2 Bft) SW 233 0 min 0,000 mm 0,0 UV-I 0 W/m 8,3 C 8,6 C 9,7 km/h (2 Bft) 100,00 %
26.10.2016 22:51 8,9 C 96 % 1027,5 hPa 0,0 l/m 6,0 km/h (2 Bft) SW 229 0 min 0,000 mm 0,0 UV-I 0 W/m 8,3 C 8,9 C 9,7 km/h (2 Bft) 100,00 %
26.10.2016 22:52 8,9 C 96 % 1027,5 hPa 0,0 l/m 6,5 km/h (2 Bft) SW 227 0 min 0,000 mm 0,0 UV-I 0 W/m 8,3 C 8,9 C 8,0 km/h (2 Bft) 100,00 %
26.10.2016 22:53 8,9 C 96 % 1027,5 hPa 0,0 l/m 7,2 km/h (2 Bft) SW 229 0 min 0,000 mm 0,0 UV-I 0 W/m 8,3 C 8,3 C 9,7 km/h (2 Bft) 100,00 %
26.10.2016 22:54 8,9 C 96 % 1027,5 hPa 0,0 l/m 6,5 km/h (2 Bft) SW 216 0 min 0,000 mm 0,0 UV-I 0 W/m 8,3 C 8,9 C 9,7 km/h (2 Bft) 95,83 %
26.10.2016 22:55 8,9 C 96 % 1027,5 hPa 0,0 l/m 6,5 km/h (2 Bft) SW 232 0 min 0,000 mm 0,0 UV-I 0 W/m 8,3 C 8,9 C 8,0 km/h (2 Bft) 96,15 %
26.10.2016 22:56 8,9 C 96 % 1027,5 hPa 0,0 l/m 5,7 km/h (1 Bft) SW 233 0 min 0,000 mm 0,0 UV-I 0 W/m 8,3 C 8,9 C 6,4 km/h (2 Bft) 100,00 %
26.10.2016 22:57 8,9 C 96 % 1027,5 hPa 0,0 l/m 5,2 km/h (1 Bft) SW 232 0 min 0,000 mm 0,0 UV-I 0 W/m 8,3 C 8,9 C 6,4 km/h (2 Bft) 91,30 %
26.10.2016 22:58 8,9 C 96 % 1027,5 hPa 0,0 l/m 3,9 km/h (1 Bft) SW 232 0 min 0,000 mm 0,0 UV-I 0 W/m 8,3 C 8,9 C 4,8 km/h (1 Bft) 100,00 %
26.10.2016 22:59 8,9 C 97 % 1027,5 hPa 0,0 l/m 5,4 km/h (1 Bft) SW 234 0 min 0,000 mm 0,0 UV-I 0 W/m 8,4 C 8,9 C 6,4 km/h (2 Bft) 100,00 %
26.10.2016 23:00 9,0 C 97 % 1027,5 hPa 0,0 l/m 5,2 km/h (1 Bft) SW 232 0 min 0,000 mm 0,0 UV-I 0 W/m 8,5 C 9,0 C 6,4 km/h (2 Bft) 100,00 %
26.10.2016 23:01 9,0 C 97 % 1027,5 hPa 0,0 l/m 5,0 km/h (1 Bft) SW 228 0 min 0,000 mm 0,0 UV-I 0 W/m 8,5 C 9,0 C 6,4 km/h (2 Bft) 95,65 %
26.10.2016 23:02 9,0 C 97 % 1027,5 hPa 0,0 l/m 4,1 km/h (1 Bft) SW 228 0 min 0,000 mm 0,0 UV-I 0 W/m 8,5 C 9,0 C 6,4 km/h (2 Bft) 100,00 %
26.10.2016 23:03 9,0 C 97 % 1027,5 hPa 0,0 l/m 5,6 km/h (1 Bft) SW 226 0 min 0,000 mm 0,0 UV-I 0 W/m 8,5 C 9,0 C 8,0 km/h (2 Bft) 100,00 %
26.10.2016 23:04 9,0 C 97 % 1027,5 hPa 0,0 l/m 4,7 km/h (1 Bft) SW 225 0 min 0,000 mm 0,0 UV-I 0 W/m 8,5 C 9,0 C 6,4 km/h (2 Bft) 100,00 %
26.10.2016 23:05 9,0 C 97 % 1027,5 hPa 0,0 l/m 4,8 km/h (1 Bft) SW 225 0 min 0,000 mm 0,0 UV-I 0 W/m 8,5 C 9,0 C 6,4 km/h (2 Bft) 100,00 %
26.10.2016 23:06 9,0 C 97 % 1027,6 hPa 0,0 l/m 3,9 km/h (1 Bft) SW 225 0 min 0,000 mm 0,0 UV-I 0 W/m 8,5 C 9,0 C 6,4 km/h (2 Bft) 100,00 %
26.10.2016 23:07 9,0 C 96 % 1027,6 hPa 0,0 l/m 4,0 km/h (1 Bft) SW 224 0 min 0,000 mm 0,0 UV-I 0 W/m 8,4 C 9,0 C 6,4 km/h (2 Bft) 100,00 %
26.10.2016 23:08 9,0 C 96 % 1027,6 hPa 0,0 l/m 4,0 km/h (1 Bft) SW 232 0 min 0,000 mm 0,0 UV-I 0 W/m 8,4 C 9,0 C 4,8 km/h (1 Bft) 95,65 %
26.10.2016 23:09 9,0 C 96 % 1027,6 hPa 0,0 l/m 4,5 km/h (1 Bft) SW 230 0 min 0,000 mm 0,0 UV-I 0 W/m 8,4 C 9,0 C 6,4 km/h (2 Bft) 100,00 %
26.10.2016 23:10 9,0 C 96 % 1027,6 hPa 0,0 l/m 4,4 km/h (1 Bft) SW 227 0 min 0,000 mm 0,0 UV-I 0 W/m 8,4 C 9,0 C 6,4 km/h (2 Bft) 100,00 %
26.10.2016 23:11 9,0 C 96 % 1027,6 hPa 0,0 l/m 3,3 km/h (1 Bft) SW 228 0 min 0,000 mm 0,0 UV-I 0 W/m 8,4 C 9,0 C 4,8 km/h (1 Bft) 95,83 %
26.10.2016 23:12 9,0 C 96 % 1027,6 hPa 0,0 l/m 3,4 km/h (1 Bft) SW 228 0 min 0,000 mm 0,0 UV-I 0 W/m 8,4 C 9,0 C 4,8 km/h (1 Bft) 91,30 %
26.10.2016 23:13 9,1 C 96 % 1027,5 hPa 0,0 l/m 3,8 km/h (1 Bft) SW 233 0 min 0,000 mm 0,0 UV-I 0 W/m 8,5 C 9,1 C 4,8 km/h (1 Bft) 100,00 %
26.10.2016 23:14 9,1 C 97 % 1027,6 hPa 0,0 l/m 4,5 km/h (1 Bft) SW 236 0 min 0,000 mm 0,0 UV-I 0 W/m 8,6 C 9,1 C 6,4 km/h (2 Bft) 96,15 %
26.10.2016 23:15 9,1 C 96 % 1027,6 hPa 0,0 l/m 3,2 km/h (1 Bft) SW 236 0 min 0,000 mm 0,0 UV-I 0 W/m 8,5 C 9,1 C 4,8 km/h (1 Bft) 100,00 %
26.10.2016 23:16 9,1 C 96 % 1027,6 hPa 0,0 l/m 3,6 km/h (1 Bft) SW 229 0 min 0,000 mm 0,0 UV-I 0 W/m 8,5 C 9,1 C 6,4 km/h (2 Bft) 95,65 %
26.10.2016 23:17 9,1 C 96 % 1027,6 hPa 0,0 l/m 5,0 km/h (1 Bft) SW 232 0 min 0,000 mm 0,0 UV-I 0 W/m 8,5 C 9,1 C 8,0 km/h (2 Bft) 96,30 %
26.10.2016 23:18 9,1 C 96 % 1027,6 hPa 0,0 l/m 3,9 km/h (1 Bft) SW 234 0 min 0,000 mm 0,0 UV-I 0 W/m 8,5 C 9,1 C 4,8 km/h (1 Bft) 100,00 %
26.10.2016 23:19 9,1 C 96 % 1027,6 hPa 0,0 l/m 5,8 km/h (2 Bft) SW 236 0 min 0,000 mm 0,0 UV-I 0 W/m 8,5 C 9,1 C 8,0 km/h (2 Bft) 95,83 %
26.10.2016 23:20 9,1 C 96 % 1027,6 hPa 0,0 l/m 5,3 km/h (1 Bft) W-SW 244 0 min 0,000 mm 0,0 UV-I 0 W/m 8,5 C 9,1 C 8,0 km/h (2 Bft) 100,00 %
26.10.2016 23:21 9,1 C 96 % 1027,6 hPa 0,0 l/m 5,4 km/h (1 Bft) W-SW 240 0 min 0,000 mm 0,0 UV-I 0 W/m 8,5 C 9,1 C 8,0 km/h (2 Bft) 91,67 %
26.10.2016 23:22 9,1 C 96 % 1027,6 hPa 0,0 l/m 4,1 km/h (1 Bft) SW 225 0 min 0,000 mm 0,0 UV-I 0 W/m 8,5 C 9,1 C 6,4 km/h (2 Bft) 100,00 %
26.10.2016 23:23 9,1 C 96 % 1027,6 hPa 0,0 l/m 4,2 km/h (1 Bft) SW 229 0 min 0,000 mm 0,0 UV-I 0 W/m 8,5 C 9,1 C 4,8 km/h (1 Bft) 95,83 %
26.10.2016 23:24 9,1 C 96 % 1027,7 hPa 0,0 l/m 5,2 km/h (1 Bft) SW 225 0 min 0,000 mm 0,0 UV-I 0 W/m 8,5 C 9,1 C 6,4 km/h (2 Bft) 100,00 %
26.10.2016 23:25 9,1 C 96 % 1027,7 hPa 0,0 l/m 4,6 km/h (1 Bft) SW 232 0 min 0,000 mm 0,0 UV-I 0 W/m 8,5 C 9,1 C 6,4 km/h (2 Bft) 95,83 %
26.10.2016 23:26 9,2 C 96 % 1027,6 hPa 0,0 l/m 5,5 km/h (1 Bft) SW 215 0 min 0,000 mm 0,0 UV-I 0 W/m 8,6 C 9,2 C 8,0 km/h (2 Bft) 100,00 %
26.10.2016 23:27 9,2 C 96 % 1027,7 hPa 0,0 l/m 6,1 km/h (2 Bft) SW 231 0 min 0,000 mm 0,0 UV-I 0 W/m 8,6 C 9,2 C 8,0 km/h (2 Bft) 96,15 %
26.10.2016 23:28 9,2 C 96 % 1027,7 hPa 0,0 l/m 6,8 km/h (2 Bft) SW 228 0 min 0,000 mm 0,0 UV-I 0 W/m 8,6 C 8,9 C 9,7 km/h (2 Bft) 96,30 %
26.10.2016 23:29 9,2 C 96 % 1027,7 hPa 0,0 l/m 6,8 km/h (2 Bft) SW 222 0 min 0,000 mm 0,0 UV-I 0 W/m 8,6 C 8,9 C 9,7 km/h (2 Bft) 95,65 %
26.10.2016 23:30 9,2 C 96 % 1027,6 hPa 0,0 l/m 5,1 km/h (1 Bft) SW 225 0 min 0,000 mm 0,0 UV-I 0 W/m 8,6 C 9,2 C 8,0 km/h (2 Bft) 95,83 %
26.10.2016 23:31 9,2 C 96 % 1027,7 hPa 0,0 l/m 7,5 km/h (2 Bft) SW 234 0 min 0,000 mm 0,0 UV-I 0 W/m 8,6 C 8,4 C 9,7 km/h (2 Bft) 100,00 %
26.10.2016 23:32 9,2 C 96 % 1027,7 hPa 0,0 l/m 5,5 km/h (1 Bft) W-SW 238 0 min 0,000 mm 0,0 UV-I 0 W/m 8,6 C 9,2 C 6,4 km/h (2 Bft) 95,83 %
26.10.2016 23:33 9,2 C 96 % 1027,7 hPa 0,0 l/m 5,4 km/h (1 Bft) SW 232 0 min 0,000 mm 0,0 UV-I 0 W/m 8,6 C 9,2 C 8,0 km/h (2 Bft) 100,00 %
26.10.2016 23:34 9,2 C 96 % 1027,7 hPa 0,0 l/m 4,9 km/h (1 Bft) SW 226 0 min 0,000 mm 0,0 UV-I 0 W/m 8,6 C 9,2 C 6,4 km/h (2 Bft) 95,83 %
26.10.2016 23:35 9,2 C 96 % 1027,7 hPa 0,0 l/m 6,4 km/h (2 Bft) SW 223 0 min 0,000 mm 0,0 UV-I 0 W/m 8,6 C 9,2 C 8,0 km/h (2 Bft) 95,65 %
26.10.2016 23:36 9,2 C 96 % 1027,7 hPa 0,0 l/m 6,2 km/h (2 Bft) S-SW 213 0 min 0,000 mm 0,0 UV-I 0 W/m 8,6 C 9,2 C 9,7 km/h (2 Bft) 100,00 %
26.10.2016 23:37 9,2 C 96 % 1027,7 hPa 0,0 l/m 5,6 km/h (1 Bft) SW 227 0 min 0,000 mm 0,0 UV-I 0 W/m 8,6 C 9,2 C 8,0 km/h (2 Bft) 95,65 %
26.10.2016 23:38 9,2 C 96 % 1027,7 hPa 0,0 l/m 5,7 km/h (1 Bft) SW 230 0 min 0,000 mm 0,0 UV-I 0 W/m 8,6 C 9,2 C 8,0 km/h (2 Bft) 100,00 %
26.10.2016 23:39 9,2 C 96 % 1027,7 hPa 0,0 l/m 4,9 km/h (1 Bft) W-SW 237 0 min 0,000 mm 0,0 UV-I 0 W/m 8,6 C 9,2 C 6,4 km/h (2 Bft) 92,31 %
26.10.2016 23:40 9,2 C 96 % 1027,7 hPa 0,0 l/m 5,3 km/h (1 Bft) SW 234 0 min 0,000 mm 0,0 UV-I 0 W/m 8,6 C 9,2 C 8,0 km/h (2 Bft) 100,00 %
26.10.2016 23:41 9,2 C 96 % 1027,7 hPa 0,0 l/m 4,8 km/h (1 Bft) SW 234 0 min 0,000 mm 0,0 UV-I 0 W/m 8,6 C 9,2 C 6,4 km/h (2 Bft) 95,65 %
26.10.2016 23:42 9,2 C 96 % 1027,7 hPa 0,0 l/m 4,7 km/h (1 Bft) SW 234 0 min 0,000 mm 0,0 UV-I 0 W/m 8,6 C 9,2 C 6,4 km/h (2 Bft) 95,83 %
26.10.2016 23:43 9,2 C 96 % 1027,7 hPa 0,0 l/m 4,9 km/h (1 Bft) SW 236 0 min 0,000 mm 0,0 UV-I 0 W/m 8,6 C 9,2 C 6,4 km/h (2 Bft) 100,00 %
26.10.2016 23:44 9,2 C 96 % 1027,8 hPa 0,0 l/m 5,7 km/h (1 Bft) SW 232 0 min 0,000 mm 0,0 UV-I 0 W/m 8,6 C 9,2 C 6,4 km/h (2 Bft) 95,83 %
26.10.2016 23:45 9,2 C 96 % 1027,7 hPa 0,0 l/m 5,6 km/h (1 Bft) SW 231 0 min 0,000 mm 0,0 UV-I 0 W/m 8,6 C 9,2 C 8,0 km/h (2 Bft) 95,65 %
26.10.2016 23:46 9,2 C 96 % 1027,8 hPa 0,0 l/m 5,7 km/h (1 Bft) SW 234 0 min 0,000 mm 0,0 UV-I 0 W/m 8,6 C 9,2 C 6,4 km/h (2 Bft) 100,00 %
26.10.2016 23:47 9,2 C 96 % 1027,7 hPa 0,0 l/m 5,2 km/h (1 Bft) W-SW 240 0 min 0,000 mm 0,0 UV-I 0 W/m 8,6 C 9,2 C 8,0 km/h (2 Bft) 100,00 %
26.10.2016 23:48 9,2 C 96 % 1027,7 hPa 0,0 l/m 4,4 km/h (1 Bft) W-SW 240 0 min 0,000 mm 0,0 UV-I 0 W/m 8,6 C 9,2 C 4,8 km/h (1 Bft) 86,67 %
26.10.2016 23:49 9,2 C 96 % 1027,8 hPa 0,0 l/m 5,2 km/h (1 Bft) SW 231 0 min 0,000 mm 0,0 UV-I 0 W/m 8,6 C 9,2 C 8,0 km/h (2 Bft) 100,00 %
26.10.2016 23:50 9,2 C 96 % 1027,7 hPa 0,0 l/m 5,6 km/h (1 Bft) SW 229 0 min 0,000 mm 0,0 UV-I 0 W/m 8,6 C 9,2 C 6,4 km/h (2 Bft) 100,00 %
26.10.2016 23:51 9,2 C 96 % 1027,7 hPa 0,0 l/m 5,4 km/h (1 Bft) SW 231 0 min 0,000 mm 0,0 UV-I 0 W/m 8,6 C 9,2 C 8,0 km/h (2 Bft) 100,00 %
26.10.2016 23:52 9,2 C 96 % 1027,8 hPa 0,0 l/m 5,5 km/h (1 Bft) SW 231 0 min 0,000 mm 0,0 UV-I 0 W/m 8,6 C 9,2 C 8,0 km/h (2 Bft) 100,00 %
26.10.2016 23:53 9,2 C 96 % 1027,8 hPa 0,0 l/m 4,1 km/h (1 Bft) SW 231 0 min 0,000 mm 0,0 UV-I 0 W/m 8,6 C 9,2 C 4,8 km/h (1 Bft) 100,00 %
26.10.2016 23:54 9,2 C 96 % 1027,8 hPa 0,0 l/m 3,7 km/h (1 Bft) SW 231 0 min 0,000 mm 0,0 UV-I 0 W/m 8,6 C 9,2 C 6,4 km/h (2 Bft) 100,00 %
26.10.2016 23:55 9,2 C 96 % 1027,8 hPa 0,0 l/m 5,3 km/h (1 Bft) W-SW 241 0 min 0,000 mm 0,0 UV-I 0 W/m 8,6 C 9,2 C 8,0 km/h (2 Bft) 100,00 %
26.10.2016 23:56 9,2 C 96 % 1027,8 hPa 0,0 l/m 4,0 km/h (1 Bft) W-SW 241 0 min 0,000 mm 0,0 UV-I 0 W/m 8,6 C 9,2 C 4,8 km/h (1 Bft) 100,00 %
26.10.2016 23:57 9,2 C 96 % 1027,8 hPa 0,0 l/m 4,2 km/h (1 Bft) W-SW 242 0 min 0,000 mm 0,0 UV-I 0 W/m 8,6 C 9,2 C 4,8 km/h (1 Bft) 100,00 %
26.10.2016 23:58 9,2 C 96 % 1027,8 hPa 0,0 l/m 5,4 km/h (1 Bft) SW 235 0 min 0,000 mm 0,0 UV-I 0 W/m 8,6 C 9,2 C 8,0 km/h (2 Bft) 95,65 %
26.10.2016 23:59 9,2 C 96 % 1027,8 hPa 0,0 l/m 6,0 km/h (2 Bft) SW 231 0 min 0,000 mm 0,0 UV-I 0 W/m 8,6 C 9,2 C 8,0 km/h (2 Bft) 100,00 %
_ Min-Zeit 20:41 15:09 00:03 - 07:43 - - - - - - 20:41 21:04 07:43 00:02
Minimum _ 8,2 C 84 % 1022,3 hPa - 0,0 km/h (0 Bft) - - - - - - 7,6 C 5,9 C 0,0 km/h (0 Bft) 11,11 %
_ Max-Zeit 15:05 00:00 23:44 01:04 21:04 - - 13:54 16:00 14:01 14:58 00:00 15:06 02:52 00:00
Maximum _ 12,9 C 99 % 1027,8 hPa 0,2 l/m 9,7 km/h
S-SW (2 Bft)
- - 1 min 0,152 mm 1,0 UV-I 466 W/m 12,2 C 12,9 C 12,9 km/h
W-NW (3 Bft)
100,00 %
Durchschnitt _ 10,8 C 95 % 1025,1 hPa #0,2 l/m 2,8 km/h (1 Bft) W-SW - #1:33 h #0,559 mm 0,7 UV-I 114 W/m 10,1 C 10,8 C 4,5 km/h (1 Bft) 98,47 %